<?xml version="1.0" encoding="UTF-8" standalone="no" ?>
<gpx xmlns="http://www.topografix.com/GPX/1/1" xmlns:xsi="http://www.w3.org/2001/XMLSchema-instance" xsi:schemaLocation="http://www.topografix.com/GPX/1/1 http://www.topografix.com/GPX/1/1/gpx.xsd" version="1.1" creator="VisuGPX - https://www.visugpx.com">
  <metadata>
    <name>20221119_0928 Brignancourt Chars</name>
  </metadata>
  <trk>
    <name><![CDATA[20221119_0928 Brignancourt Chars_1]]></name>
    <trkseg>
      <trkpt lat="49.13713" lon="1.94344">
        <ele>62.3</ele>
        <time>2022-11-19T08:28:32Z</time>
      </trkpt>
      <trkpt lat="49.13712" lon="1.94344">
        <ele>62.3</ele>
        <time>2022-11-19T08:28:38Z</time>
      </trkpt>
      <trkpt lat="49.1371" lon="1.94342">
        <ele>62</ele>
        <time>2022-11-19T08:28:44Z</time>
      </trkpt>
      <trkpt lat="49.1371" lon="1.94342">
        <ele>62</ele>
        <time>2022-11-19T08:28:50Z</time>
      </trkpt>
      <trkpt lat="49.13711" lon="1.94342">
        <ele>62.1</ele>
        <time>2022-11-19T08:28:55Z</time>
      </trkpt>
      <trkpt lat="49.13711" lon="1.94342">
        <ele>62.1</ele>
        <time>2022-11-19T08:29:01Z</time>
      </trkpt>
      <trkpt lat="49.13713" lon="1.9434">
        <ele>62.1</ele>
        <time>2022-11-19T08:29:06Z</time>
      </trkpt>
      <trkpt lat="49.13713" lon="1.94339">
        <ele>62</ele>
        <time>2022-11-19T08:29:11Z</time>
      </trkpt>
      <trkpt lat="49.13712" lon="1.9434">
        <ele>62</ele>
        <time>2022-11-19T08:29:17Z</time>
      </trkpt>
      <trkpt lat="49.13712" lon="1.94339">
        <ele>62</ele>
        <time>2022-11-19T08:29:23Z</time>
      </trkpt>
      <trkpt lat="49.13714" lon="1.94337">
        <ele>61.9</ele>
        <time>2022-11-19T08:29:29Z</time>
      </trkpt>
      <trkpt lat="49.13722" lon="1.94337">
        <ele>62.3</ele>
        <time>2022-11-19T08:29:35Z</time>
      </trkpt>
      <trkpt lat="49.13726" lon="1.94334">
        <ele>62.2</ele>
        <time>2022-11-19T08:29:41Z</time>
      </trkpt>
      <trkpt lat="49.13734" lon="1.94332">
        <ele>62.4</ele>
        <time>2022-11-19T08:29:47Z</time>
      </trkpt>
      <trkpt lat="49.13742" lon="1.94332">
        <ele>62.7</ele>
        <time>2022-11-19T08:29:52Z</time>
      </trkpt>
      <trkpt lat="49.1375" lon="1.94332">
        <ele>62.9</ele>
        <time>2022-11-19T08:29:58Z</time>
      </trkpt>
      <trkpt lat="49.13757" lon="1.94328">
        <ele>63.4</ele>
        <time>2022-11-19T08:30:03Z</time>
      </trkpt>
      <trkpt lat="49.13764" lon="1.9432">
        <ele>63.6</ele>
        <time>2022-11-19T08:30:09Z</time>
      </trkpt>
      <trkpt lat="49.1377" lon="1.94312">
        <ele>63.7</ele>
        <time>2022-11-19T08:30:14Z</time>
      </trkpt>
      <trkpt lat="49.13775" lon="1.94304">
        <ele>63.8</ele>
        <time>2022-11-19T08:30:19Z</time>
      </trkpt>
      <trkpt lat="49.1378" lon="1.94298">
        <ele>63.9</ele>
        <time>2022-11-19T08:30:25Z</time>
      </trkpt>
      <trkpt lat="49.13786" lon="1.94293">
        <ele>64.1</ele>
        <time>2022-11-19T08:30:30Z</time>
      </trkpt>
      <trkpt lat="49.13793" lon="1.94289">
        <ele>64.5</ele>
        <time>2022-11-19T08:30:36Z</time>
      </trkpt>
      <trkpt lat="49.13799" lon="1.94288">
        <ele>64.9</ele>
        <time>2022-11-19T08:30:42Z</time>
      </trkpt>
      <trkpt lat="49.13803" lon="1.94283">
        <ele>65</ele>
        <time>2022-11-19T08:30:47Z</time>
      </trkpt>
      <trkpt lat="49.13809" lon="1.94273">
        <ele>65.3</ele>
        <time>2022-11-19T08:30:53Z</time>
      </trkpt>
      <trkpt lat="49.13814" lon="1.94266">
        <ele>65.5</ele>
        <time>2022-11-19T08:30:58Z</time>
      </trkpt>
      <trkpt lat="49.13815" lon="1.94263">
        <ele>65.5</ele>
        <time>2022-11-19T08:31:04Z</time>
      </trkpt>
      <trkpt lat="49.13814" lon="1.94258">
        <ele>65.2</ele>
        <time>2022-11-19T08:31:09Z</time>
      </trkpt>
      <trkpt lat="49.13812" lon="1.94248">
        <ele>64.7</ele>
        <time>2022-11-19T08:31:15Z</time>
      </trkpt>
      <trkpt lat="49.13814" lon="1.94239">
        <ele>64.9</ele>
        <time>2022-11-19T08:31:20Z</time>
      </trkpt>
      <trkpt lat="49.13818" lon="1.94229">
        <ele>65.3</ele>
        <time>2022-11-19T08:31:26Z</time>
      </trkpt>
      <trkpt lat="49.13824" lon="1.94221">
        <ele>66</ele>
        <time>2022-11-19T08:31:32Z</time>
      </trkpt>
      <trkpt lat="49.13828" lon="1.94213">
        <ele>66.4</ele>
        <time>2022-11-19T08:31:37Z</time>
      </trkpt>
      <trkpt lat="49.13834" lon="1.94202">
        <ele>67</ele>
        <time>2022-11-19T08:31:43Z</time>
      </trkpt>
      <trkpt lat="49.1384" lon="1.94191">
        <ele>67.4</ele>
        <time>2022-11-19T08:31:49Z</time>
      </trkpt>
      <trkpt lat="49.13845" lon="1.94183">
        <ele>67.4</ele>
        <time>2022-11-19T08:31:54Z</time>
      </trkpt>
      <trkpt lat="49.1385" lon="1.94172">
        <ele>67.4</ele>
        <time>2022-11-19T08:32:00Z</time>
      </trkpt>
      <trkpt lat="49.13856" lon="1.9416">
        <ele>67.4</ele>
        <time>2022-11-19T08:32:06Z</time>
      </trkpt>
      <trkpt lat="49.13859" lon="1.94152">
        <ele>67.4</ele>
        <time>2022-11-19T08:32:11Z</time>
      </trkpt>
      <trkpt lat="49.13863" lon="1.94145">
        <ele>67.3</ele>
        <time>2022-11-19T08:32:16Z</time>
      </trkpt>
      <trkpt lat="49.13868" lon="1.94136">
        <ele>67.1</ele>
        <time>2022-11-19T08:32:21Z</time>
      </trkpt>
      <trkpt lat="49.13874" lon="1.94125">
        <ele>66.9</ele>
        <time>2022-11-19T08:32:27Z</time>
      </trkpt>
      <trkpt lat="49.13879" lon="1.94114">
        <ele>66.7</ele>
        <time>2022-11-19T08:32:33Z</time>
      </trkpt>
      <trkpt lat="49.13883" lon="1.94105">
        <ele>66.8</ele>
        <time>2022-11-19T08:32:38Z</time>
      </trkpt>
      <trkpt lat="49.13887" lon="1.94097">
        <ele>66.9</ele>
        <time>2022-11-19T08:32:44Z</time>
      </trkpt>
      <trkpt lat="49.13892" lon="1.94088">
        <ele>67.1</ele>
        <time>2022-11-19T08:32:50Z</time>
      </trkpt>
      <trkpt lat="49.13897" lon="1.94077">
        <ele>67.1</ele>
        <time>2022-11-19T08:32:56Z</time>
      </trkpt>
      <trkpt lat="49.13902" lon="1.94068">
        <ele>67.2</ele>
        <time>2022-11-19T08:33:02Z</time>
      </trkpt>
      <trkpt lat="49.13908" lon="1.94059">
        <ele>67.4</ele>
        <time>2022-11-19T08:33:08Z</time>
      </trkpt>
      <trkpt lat="49.13913" lon="1.94051">
        <ele>67.7</ele>
        <time>2022-11-19T08:33:13Z</time>
      </trkpt>
      <trkpt lat="49.13921" lon="1.94042">
        <ele>68.1</ele>
        <time>2022-11-19T08:33:19Z</time>
      </trkpt>
      <trkpt lat="49.13927" lon="1.94032">
        <ele>68.4</ele>
        <time>2022-11-19T08:33:25Z</time>
      </trkpt>
      <trkpt lat="49.13931" lon="1.94024">
        <ele>68.3</ele>
        <time>2022-11-19T08:33:30Z</time>
      </trkpt>
      <trkpt lat="49.13935" lon="1.94016">
        <ele>68.1</ele>
        <time>2022-11-19T08:33:35Z</time>
      </trkpt>
      <trkpt lat="49.13942" lon="1.9401">
        <ele>68.2</ele>
        <time>2022-11-19T08:33:41Z</time>
      </trkpt>
      <trkpt lat="49.1395" lon="1.94005">
        <ele>68.4</ele>
        <time>2022-11-19T08:33:47Z</time>
      </trkpt>
      <trkpt lat="49.13959" lon="1.93998">
        <ele>68.5</ele>
        <time>2022-11-19T08:33:53Z</time>
      </trkpt>
      <trkpt lat="49.13968" lon="1.93993">
        <ele>68.6</ele>
        <time>2022-11-19T08:33:59Z</time>
      </trkpt>
      <trkpt lat="49.13976" lon="1.9399">
        <ele>68.8</ele>
        <time>2022-11-19T08:34:04Z</time>
      </trkpt>
      <trkpt lat="49.13984" lon="1.93988">
        <ele>69</ele>
        <time>2022-11-19T08:34:10Z</time>
      </trkpt>
      <trkpt lat="49.13991" lon="1.93986">
        <ele>69.2</ele>
        <time>2022-11-19T08:34:15Z</time>
      </trkpt>
      <trkpt lat="49.14" lon="1.93986">
        <ele>69.5</ele>
        <time>2022-11-19T08:34:21Z</time>
      </trkpt>
      <trkpt lat="49.14008" lon="1.93986">
        <ele>69.6</ele>
        <time>2022-11-19T08:34:26Z</time>
      </trkpt>
      <trkpt lat="49.14016" lon="1.93986">
        <ele>69.8</ele>
        <time>2022-11-19T08:34:31Z</time>
      </trkpt>
      <trkpt lat="49.14025" lon="1.93987">
        <ele>70</ele>
        <time>2022-11-19T08:34:37Z</time>
      </trkpt>
      <trkpt lat="49.14032" lon="1.93986">
        <ele>70.1</ele>
        <time>2022-11-19T08:34:42Z</time>
      </trkpt>
      <trkpt lat="49.14039" lon="1.93984">
        <ele>70.1</ele>
        <time>2022-11-19T08:34:47Z</time>
      </trkpt>
      <trkpt lat="49.14048" lon="1.93984">
        <ele>70.1</ele>
        <time>2022-11-19T08:34:53Z</time>
      </trkpt>
      <trkpt lat="49.14057" lon="1.93985">
        <ele>70.4</ele>
        <time>2022-11-19T08:34:59Z</time>
      </trkpt>
      <trkpt lat="49.14064" lon="1.93987">
        <ele>70.7</ele>
        <time>2022-11-19T08:35:04Z</time>
      </trkpt>
      <trkpt lat="49.14072" lon="1.9399">
        <ele>71.1</ele>
        <time>2022-11-19T08:35:10Z</time>
      </trkpt>
      <trkpt lat="49.14078" lon="1.93988">
        <ele>71</ele>
        <time>2022-11-19T08:35:15Z</time>
      </trkpt>
      <trkpt lat="49.14086" lon="1.93985">
        <ele>70.8</ele>
        <time>2022-11-19T08:35:21Z</time>
      </trkpt>
      <trkpt lat="49.14092" lon="1.93983">
        <ele>70.6</ele>
        <time>2022-11-19T08:35:26Z</time>
      </trkpt>
      <trkpt lat="49.141" lon="1.93983">
        <ele>70.4</ele>
        <time>2022-11-19T08:35:31Z</time>
      </trkpt>
      <trkpt lat="49.14107" lon="1.93985">
        <ele>70.4</ele>
        <time>2022-11-19T08:35:36Z</time>
      </trkpt>
      <trkpt lat="49.14116" lon="1.93986">
        <ele>70.5</ele>
        <time>2022-11-19T08:35:42Z</time>
      </trkpt>
      <trkpt lat="49.14126" lon="1.93986">
        <ele>70.8</ele>
        <time>2022-11-19T08:35:48Z</time>
      </trkpt>
      <trkpt lat="49.14135" lon="1.93988">
        <ele>71.2</ele>
        <time>2022-11-19T08:35:53Z</time>
      </trkpt>
      <trkpt lat="49.14143" lon="1.93988">
        <ele>71.3</ele>
        <time>2022-11-19T08:35:58Z</time>
      </trkpt>
      <trkpt lat="49.14151" lon="1.93987">
        <ele>71.2</ele>
        <time>2022-11-19T08:36:04Z</time>
      </trkpt>
      <trkpt lat="49.14154" lon="1.93987">
        <ele>71.1</ele>
        <time>2022-11-19T08:36:09Z</time>
      </trkpt>
      <trkpt lat="49.1416" lon="1.93988">
        <ele>71.3</ele>
        <time>2022-11-19T08:36:15Z</time>
      </trkpt>
      <trkpt lat="49.14167" lon="1.93988">
        <ele>71.2</ele>
        <time>2022-11-19T08:36:20Z</time>
      </trkpt>
      <trkpt lat="49.14172" lon="1.93988">
        <ele>71.3</ele>
        <time>2022-11-19T08:36:25Z</time>
      </trkpt>
      <trkpt lat="49.14181" lon="1.93988">
        <ele>71.5</ele>
        <time>2022-11-19T08:36:30Z</time>
      </trkpt>
      <trkpt lat="49.14189" lon="1.93987">
        <ele>71.5</ele>
        <time>2022-11-19T08:36:35Z</time>
      </trkpt>
      <trkpt lat="49.14197" lon="1.93985">
        <ele>71.3</ele>
        <time>2022-11-19T08:36:41Z</time>
      </trkpt>
      <trkpt lat="49.14206" lon="1.93986">
        <ele>71</ele>
        <time>2022-11-19T08:36:46Z</time>
      </trkpt>
      <trkpt lat="49.14217" lon="1.93988">
        <ele>71.1</ele>
        <time>2022-11-19T08:36:52Z</time>
      </trkpt>
      <trkpt lat="49.14224" lon="1.93991">
        <ele>71.2</ele>
        <time>2022-11-19T08:36:58Z</time>
      </trkpt>
      <trkpt lat="49.14234" lon="1.93993">
        <ele>70.9</ele>
        <time>2022-11-19T08:37:04Z</time>
      </trkpt>
      <trkpt lat="49.14244" lon="1.93994">
        <ele>70.2</ele>
        <time>2022-11-19T08:37:09Z</time>
      </trkpt>
      <trkpt lat="49.14254" lon="1.93996">
        <ele>70</ele>
        <time>2022-11-19T08:37:15Z</time>
      </trkpt>
      <trkpt lat="49.1426" lon="1.93999">
        <ele>70.1</ele>
        <time>2022-11-19T08:37:20Z</time>
      </trkpt>
      <trkpt lat="49.1427" lon="1.94003">
        <ele>70.1</ele>
        <time>2022-11-19T08:37:26Z</time>
      </trkpt>
      <trkpt lat="49.14278" lon="1.94007">
        <ele>70.2</ele>
        <time>2022-11-19T08:37:31Z</time>
      </trkpt>
      <trkpt lat="49.14286" lon="1.94011">
        <ele>71.2</ele>
        <time>2022-11-19T08:37:37Z</time>
      </trkpt>
      <trkpt lat="49.14293" lon="1.94011">
        <ele>71.6</ele>
        <time>2022-11-19T08:37:42Z</time>
      </trkpt>
      <trkpt lat="49.14302" lon="1.94012">
        <ele>72.1</ele>
        <time>2022-11-19T08:37:48Z</time>
      </trkpt>
      <trkpt lat="49.14313" lon="1.94013">
        <ele>72.7</ele>
        <time>2022-11-19T08:37:54Z</time>
      </trkpt>
      <trkpt lat="49.14322" lon="1.94011">
        <ele>72.6</ele>
        <time>2022-11-19T08:38:00Z</time>
      </trkpt>
      <trkpt lat="49.14332" lon="1.94009">
        <ele>72.6</ele>
        <time>2022-11-19T08:38:06Z</time>
      </trkpt>
      <trkpt lat="49.14341" lon="1.94007">
        <ele>72.7</ele>
        <time>2022-11-19T08:38:11Z</time>
      </trkpt>
      <trkpt lat="49.14349" lon="1.94004">
        <ele>72.8</ele>
        <time>2022-11-19T08:38:16Z</time>
      </trkpt>
      <trkpt lat="49.14356" lon="1.94002">
        <ele>73</ele>
        <time>2022-11-19T08:38:21Z</time>
      </trkpt>
      <trkpt lat="49.14362" lon="1.93997">
        <ele>72.4</ele>
        <time>2022-11-19T08:38:27Z</time>
      </trkpt>
      <trkpt lat="49.14369" lon="1.93991">
        <ele>71.3</ele>
        <time>2022-11-19T08:38:32Z</time>
      </trkpt>
      <trkpt lat="49.14377" lon="1.93986">
        <ele>70.5</ele>
        <time>2022-11-19T08:38:38Z</time>
      </trkpt>
      <trkpt lat="49.14383" lon="1.9398">
        <ele>69.4</ele>
        <time>2022-11-19T08:38:44Z</time>
      </trkpt>
      <trkpt lat="49.14392" lon="1.93975">
        <ele>68.5</ele>
        <time>2022-11-19T08:38:50Z</time>
      </trkpt>
      <trkpt lat="49.144" lon="1.93971">
        <ele>67.9</ele>
        <time>2022-11-19T08:38:56Z</time>
      </trkpt>
      <trkpt lat="49.14406" lon="1.93967">
        <ele>67.3</ele>
        <time>2022-11-19T08:39:01Z</time>
      </trkpt>
      <trkpt lat="49.14414" lon="1.93963">
        <ele>67</ele>
        <time>2022-11-19T08:39:06Z</time>
      </trkpt>
      <trkpt lat="49.14426" lon="1.9396">
        <ele>66.6</ele>
        <time>2022-11-19T08:39:12Z</time>
      </trkpt>
      <trkpt lat="49.14437" lon="1.93956">
        <ele>65.8</ele>
        <time>2022-11-19T08:39:18Z</time>
      </trkpt>
      <trkpt lat="49.14445" lon="1.93951">
        <ele>64.9</ele>
        <time>2022-11-19T08:39:23Z</time>
      </trkpt>
      <trkpt lat="49.14453" lon="1.93946">
        <ele>63.9</ele>
        <time>2022-11-19T08:39:29Z</time>
      </trkpt>
      <trkpt lat="49.14459" lon="1.93944">
        <ele>63.4</ele>
        <time>2022-11-19T08:39:34Z</time>
      </trkpt>
      <trkpt lat="49.14468" lon="1.93942">
        <ele>62.9</ele>
        <time>2022-11-19T08:39:40Z</time>
      </trkpt>
      <trkpt lat="49.14475" lon="1.93942">
        <ele>62.6</ele>
        <time>2022-11-19T08:39:45Z</time>
      </trkpt>
      <trkpt lat="49.14484" lon="1.93946">
        <ele>62.2</ele>
        <time>2022-11-19T08:39:51Z</time>
      </trkpt>
      <trkpt lat="49.14494" lon="1.9395">
        <ele>61.7</ele>
        <time>2022-11-19T08:39:57Z</time>
      </trkpt>
      <trkpt lat="49.14504" lon="1.93956">
        <ele>61.1</ele>
        <time>2022-11-19T08:40:04Z</time>
      </trkpt>
      <trkpt lat="49.14511" lon="1.93964">
        <ele>60.6</ele>
        <time>2022-11-19T08:40:10Z</time>
      </trkpt>
      <trkpt lat="49.14516" lon="1.93973">
        <ele>60.3</ele>
        <time>2022-11-19T08:40:16Z</time>
      </trkpt>
      <trkpt lat="49.14522" lon="1.93982">
        <ele>59.7</ele>
        <time>2022-11-19T08:40:22Z</time>
      </trkpt>
      <trkpt lat="49.1453" lon="1.9399">
        <ele>58.9</ele>
        <time>2022-11-19T08:40:28Z</time>
      </trkpt>
      <trkpt lat="49.14537" lon="1.93995">
        <ele>58.7</ele>
        <time>2022-11-19T08:40:33Z</time>
      </trkpt>
      <trkpt lat="49.14549" lon="1.94002">
        <ele>58.2</ele>
        <time>2022-11-19T08:40:39Z</time>
      </trkpt>
      <trkpt lat="49.14562" lon="1.94005">
        <ele>58</ele>
        <time>2022-11-19T08:40:45Z</time>
      </trkpt>
      <trkpt lat="49.1457" lon="1.94007">
        <ele>58</ele>
        <time>2022-11-19T08:40:51Z</time>
      </trkpt>
      <trkpt lat="49.14579" lon="1.94009">
        <ele>58</ele>
        <time>2022-11-19T08:40:57Z</time>
      </trkpt>
      <trkpt lat="49.14586" lon="1.94008">
        <ele>58</ele>
        <time>2022-11-19T08:41:02Z</time>
      </trkpt>
      <trkpt lat="49.14596" lon="1.94008">
        <ele>58.1</ele>
        <time>2022-11-19T08:41:08Z</time>
      </trkpt>
      <trkpt lat="49.14602" lon="1.94005">
        <ele>58.1</ele>
        <time>2022-11-19T08:41:13Z</time>
      </trkpt>
      <trkpt lat="49.1461" lon="1.93996">
        <ele>58</ele>
        <time>2022-11-19T08:41:19Z</time>
      </trkpt>
      <trkpt lat="49.14617" lon="1.93985">
        <ele>59.2</ele>
        <time>2022-11-19T08:41:25Z</time>
      </trkpt>
      <trkpt lat="49.14624" lon="1.93977">
        <ele>60.3</ele>
        <time>2022-11-19T08:41:31Z</time>
      </trkpt>
      <trkpt lat="49.14627" lon="1.93971">
        <ele>60.8</ele>
        <time>2022-11-19T08:41:36Z</time>
      </trkpt>
      <trkpt lat="49.14633" lon="1.9397">
        <ele>61.9</ele>
        <time>2022-11-19T08:41:41Z</time>
      </trkpt>
      <trkpt lat="49.14638" lon="1.93978">
        <ele>63</ele>
        <time>2022-11-19T08:41:46Z</time>
      </trkpt>
      <trkpt lat="49.14639" lon="1.9399">
        <ele>63.7</ele>
        <time>2022-11-19T08:41:52Z</time>
      </trkpt>
      <trkpt lat="49.1464" lon="1.94001">
        <ele>64.5</ele>
        <time>2022-11-19T08:41:58Z</time>
      </trkpt>
      <trkpt lat="49.14641" lon="1.94011">
        <ele>65.1</ele>
        <time>2022-11-19T08:42:03Z</time>
      </trkpt>
      <trkpt lat="49.14639" lon="1.94023">
        <ele>65</ele>
        <time>2022-11-19T08:42:09Z</time>
      </trkpt>
      <trkpt lat="49.1464" lon="1.94036">
        <ele>65.4</ele>
        <time>2022-11-19T08:42:15Z</time>
      </trkpt>
      <trkpt lat="49.14639" lon="1.94047">
        <ele>65.2</ele>
        <time>2022-11-19T08:42:20Z</time>
      </trkpt>
      <trkpt lat="49.1464" lon="1.94058">
        <ele>65.6</ele>
        <time>2022-11-19T08:42:26Z</time>
      </trkpt>
      <trkpt lat="49.14643" lon="1.94068">
        <ele>66.7</ele>
        <time>2022-11-19T08:42:32Z</time>
      </trkpt>
      <trkpt lat="49.14645" lon="1.94079">
        <ele>67.7</ele>
        <time>2022-11-19T08:42:38Z</time>
      </trkpt>
      <trkpt lat="49.14647" lon="1.94089">
        <ele>68.7</ele>
        <time>2022-11-19T08:42:43Z</time>
      </trkpt>
      <trkpt lat="49.14649" lon="1.94102">
        <ele>69.9</ele>
        <time>2022-11-19T08:42:49Z</time>
      </trkpt>
      <trkpt lat="49.14647" lon="1.9411">
        <ele>69.6</ele>
        <time>2022-11-19T08:42:54Z</time>
      </trkpt>
      <trkpt lat="49.14647" lon="1.94122">
        <ele>69.7</ele>
        <time>2022-11-19T08:43:00Z</time>
      </trkpt>
      <trkpt lat="49.14646" lon="1.94132">
        <ele>69.4</ele>
        <time>2022-11-19T08:43:05Z</time>
      </trkpt>
      <trkpt lat="49.14644" lon="1.94142">
        <ele>69.4</ele>
        <time>2022-11-19T08:43:11Z</time>
      </trkpt>
      <trkpt lat="49.14644" lon="1.94151">
        <ele>69.9</ele>
        <time>2022-11-19T08:43:16Z</time>
      </trkpt>
      <trkpt lat="49.14643" lon="1.94163">
        <ele>70.3</ele>
        <time>2022-11-19T08:43:22Z</time>
      </trkpt>
      <trkpt lat="49.14644" lon="1.94178">
        <ele>71.1</ele>
        <time>2022-11-19T08:43:28Z</time>
      </trkpt>
      <trkpt lat="49.14646" lon="1.94191">
        <ele>72.1</ele>
        <time>2022-11-19T08:43:34Z</time>
      </trkpt>
      <trkpt lat="49.14645" lon="1.94201">
        <ele>71.9</ele>
        <time>2022-11-19T08:43:39Z</time>
      </trkpt>
      <trkpt lat="49.14645" lon="1.94213">
        <ele>71.9</ele>
        <time>2022-11-19T08:43:45Z</time>
      </trkpt>
      <trkpt lat="49.14647" lon="1.94225">
        <ele>72.3</ele>
        <time>2022-11-19T08:43:51Z</time>
      </trkpt>
      <trkpt lat="49.14651" lon="1.94235">
        <ele>73</ele>
        <time>2022-11-19T08:43:56Z</time>
      </trkpt>
      <trkpt lat="49.14655" lon="1.94241">
        <ele>74</ele>
        <time>2022-11-19T08:44:01Z</time>
      </trkpt>
      <trkpt lat="49.14662" lon="1.94251">
        <ele>75.4</ele>
        <time>2022-11-19T08:44:07Z</time>
      </trkpt>
      <trkpt lat="49.14667" lon="1.94258">
        <ele>76.1</ele>
        <time>2022-11-19T08:44:12Z</time>
      </trkpt>
      <trkpt lat="49.14672" lon="1.94265">
        <ele>76.3</ele>
        <time>2022-11-19T08:44:18Z</time>
      </trkpt>
      <trkpt lat="49.14676" lon="1.94269">
        <ele>76.6</ele>
        <time>2022-11-19T08:44:23Z</time>
      </trkpt>
      <trkpt lat="49.14682" lon="1.94279">
        <ele>76.7</ele>
        <time>2022-11-19T08:44:29Z</time>
      </trkpt>
      <trkpt lat="49.14687" lon="1.94285">
        <ele>77.3</ele>
        <time>2022-11-19T08:44:34Z</time>
      </trkpt>
      <trkpt lat="49.14692" lon="1.94294">
        <ele>77.5</ele>
        <time>2022-11-19T08:44:40Z</time>
      </trkpt>
      <trkpt lat="49.14698" lon="1.94302">
        <ele>77.8</ele>
        <time>2022-11-19T08:44:45Z</time>
      </trkpt>
      <trkpt lat="49.14705" lon="1.94311">
        <ele>78.6</ele>
        <time>2022-11-19T08:44:51Z</time>
      </trkpt>
      <trkpt lat="49.14711" lon="1.94315">
        <ele>79.3</ele>
        <time>2022-11-19T08:44:56Z</time>
      </trkpt>
      <trkpt lat="49.1472" lon="1.94322">
        <ele>80.1</ele>
        <time>2022-11-19T08:45:02Z</time>
      </trkpt>
      <trkpt lat="49.14724" lon="1.9433">
        <ele>80.3</ele>
        <time>2022-11-19T08:45:07Z</time>
      </trkpt>
      <trkpt lat="49.14731" lon="1.94337">
        <ele>81.1</ele>
        <time>2022-11-19T08:45:13Z</time>
      </trkpt>
      <trkpt lat="49.14737" lon="1.94343">
        <ele>82.1</ele>
        <time>2022-11-19T08:45:19Z</time>
      </trkpt>
      <trkpt lat="49.14742" lon="1.94348">
        <ele>82.8</ele>
        <time>2022-11-19T08:45:24Z</time>
      </trkpt>
      <trkpt lat="49.14749" lon="1.94355">
        <ele>83.7</ele>
        <time>2022-11-19T08:45:30Z</time>
      </trkpt>
      <trkpt lat="49.14754" lon="1.94363">
        <ele>84.2</ele>
        <time>2022-11-19T08:45:35Z</time>
      </trkpt>
      <trkpt lat="49.14758" lon="1.94369">
        <ele>84.6</ele>
        <time>2022-11-19T08:45:40Z</time>
      </trkpt>
      <trkpt lat="49.14761" lon="1.94378">
        <ele>85</ele>
        <time>2022-11-19T08:45:46Z</time>
      </trkpt>
      <trkpt lat="49.14765" lon="1.94384">
        <ele>85.4</ele>
        <time>2022-11-19T08:45:51Z</time>
      </trkpt>
      <trkpt lat="49.14771" lon="1.94392">
        <ele>85.9</ele>
        <time>2022-11-19T08:45:57Z</time>
      </trkpt>
      <trkpt lat="49.14777" lon="1.94402">
        <ele>86.5</ele>
        <time>2022-11-19T08:46:03Z</time>
      </trkpt>
      <trkpt lat="49.14784" lon="1.94413">
        <ele>87.1</ele>
        <time>2022-11-19T08:46:09Z</time>
      </trkpt>
      <trkpt lat="49.14789" lon="1.94423">
        <ele>87.7</ele>
        <time>2022-11-19T08:46:14Z</time>
      </trkpt>
      <trkpt lat="49.14794" lon="1.94431">
        <ele>88.3</ele>
        <time>2022-11-19T08:46:19Z</time>
      </trkpt>
      <trkpt lat="49.14799" lon="1.94442">
        <ele>88.9</ele>
        <time>2022-11-19T08:46:25Z</time>
      </trkpt>
      <trkpt lat="49.14806" lon="1.94455">
        <ele>89.4</ele>
        <time>2022-11-19T08:46:31Z</time>
      </trkpt>
      <trkpt lat="49.14811" lon="1.94465">
        <ele>89.8</ele>
        <time>2022-11-19T08:46:37Z</time>
      </trkpt>
      <trkpt lat="49.14816" lon="1.94472">
        <ele>90</ele>
        <time>2022-11-19T08:46:42Z</time>
      </trkpt>
      <trkpt lat="49.14822" lon="1.94483">
        <ele>90.2</ele>
        <time>2022-11-19T08:46:49Z</time>
      </trkpt>
      <trkpt lat="49.14825" lon="1.94493">
        <ele>90.5</ele>
        <time>2022-11-19T08:46:55Z</time>
      </trkpt>
      <trkpt lat="49.14829" lon="1.94502">
        <ele>90.8</ele>
        <time>2022-11-19T08:47:01Z</time>
      </trkpt>
      <trkpt lat="49.14833" lon="1.94512">
        <ele>91</ele>
        <time>2022-11-19T08:47:07Z</time>
      </trkpt>
      <trkpt lat="49.14838" lon="1.94522">
        <ele>91</ele>
        <time>2022-11-19T08:47:13Z</time>
      </trkpt>
      <trkpt lat="49.14841" lon="1.9453">
        <ele>91</ele>
        <time>2022-11-19T08:47:18Z</time>
      </trkpt>
      <trkpt lat="49.14846" lon="1.94539">
        <ele>91.2</ele>
        <time>2022-11-19T08:47:24Z</time>
      </trkpt>
      <trkpt lat="49.14854" lon="1.94549">
        <ele>91.6</ele>
        <time>2022-11-19T08:47:30Z</time>
      </trkpt>
      <trkpt lat="49.14861" lon="1.9456">
        <ele>92</ele>
        <time>2022-11-19T08:47:36Z</time>
      </trkpt>
      <trkpt lat="49.14867" lon="1.94569">
        <ele>91.9</ele>
        <time>2022-11-19T08:47:42Z</time>
      </trkpt>
      <trkpt lat="49.14872" lon="1.9458">
        <ele>91.9</ele>
        <time>2022-11-19T08:47:48Z</time>
      </trkpt>
      <trkpt lat="49.14879" lon="1.94587">
        <ele>92</ele>
        <time>2022-11-19T08:47:54Z</time>
      </trkpt>
      <trkpt lat="49.14885" lon="1.94592">
        <ele>92</ele>
        <time>2022-11-19T08:47:59Z</time>
      </trkpt>
      <trkpt lat="49.14891" lon="1.94598">
        <ele>91.9</ele>
        <time>2022-11-19T08:48:04Z</time>
      </trkpt>
      <trkpt lat="49.14897" lon="1.94605">
        <ele>91.7</ele>
        <time>2022-11-19T08:48:10Z</time>
      </trkpt>
      <trkpt lat="49.14903" lon="1.94611">
        <ele>91.5</ele>
        <time>2022-11-19T08:48:16Z</time>
      </trkpt>
      <trkpt lat="49.14909" lon="1.94616">
        <ele>91.4</ele>
        <time>2022-11-19T08:48:21Z</time>
      </trkpt>
      <trkpt lat="49.14918" lon="1.94623">
        <ele>91.4</ele>
        <time>2022-11-19T08:48:27Z</time>
      </trkpt>
      <trkpt lat="49.14924" lon="1.94629">
        <ele>91.5</ele>
        <time>2022-11-19T08:48:32Z</time>
      </trkpt>
      <trkpt lat="49.14932" lon="1.94633">
        <ele>91.4</ele>
        <time>2022-11-19T08:48:38Z</time>
      </trkpt>
      <trkpt lat="49.14938" lon="1.9464">
        <ele>91.3</ele>
        <time>2022-11-19T08:48:43Z</time>
      </trkpt>
      <trkpt lat="49.14945" lon="1.94646">
        <ele>91.2</ele>
        <time>2022-11-19T08:48:49Z</time>
      </trkpt>
      <trkpt lat="49.14952" lon="1.94649">
        <ele>91.4</ele>
        <time>2022-11-19T08:48:54Z</time>
      </trkpt>
      <trkpt lat="49.1496" lon="1.94654">
        <ele>91.5</ele>
        <time>2022-11-19T08:49:00Z</time>
      </trkpt>
      <trkpt lat="49.14967" lon="1.94662">
        <ele>91.8</ele>
        <time>2022-11-19T08:49:06Z</time>
      </trkpt>
      <trkpt lat="49.14971" lon="1.94673">
        <ele>92</ele>
        <time>2022-11-19T08:49:12Z</time>
      </trkpt>
      <trkpt lat="49.1497" lon="1.94687">
        <ele>92.1</ele>
        <time>2022-11-19T08:49:18Z</time>
      </trkpt>
      <trkpt lat="49.14968" lon="1.94698">
        <ele>92.1</ele>
        <time>2022-11-19T08:49:24Z</time>
      </trkpt>
      <trkpt lat="49.14965" lon="1.94713">
        <ele>92.2</ele>
        <time>2022-11-19T08:49:30Z</time>
      </trkpt>
      <trkpt lat="49.14964" lon="1.94725">
        <ele>92.4</ele>
        <time>2022-11-19T08:49:36Z</time>
      </trkpt>
      <trkpt lat="49.14963" lon="1.94736">
        <ele>92.7</ele>
        <time>2022-11-19T08:49:41Z</time>
      </trkpt>
      <trkpt lat="49.14962" lon="1.94744">
        <ele>92.9</ele>
        <time>2022-11-19T08:49:46Z</time>
      </trkpt>
      <trkpt lat="49.1496" lon="1.94756">
        <ele>93.1</ele>
        <time>2022-11-19T08:49:52Z</time>
      </trkpt>
      <trkpt lat="49.14959" lon="1.94768">
        <ele>93.3</ele>
        <time>2022-11-19T08:49:57Z</time>
      </trkpt>
      <trkpt lat="49.14959" lon="1.94778">
        <ele>93.5</ele>
        <time>2022-11-19T08:50:02Z</time>
      </trkpt>
      <trkpt lat="49.14956" lon="1.94793">
        <ele>93.6</ele>
        <time>2022-11-19T08:50:08Z</time>
      </trkpt>
      <trkpt lat="49.14954" lon="1.94805">
        <ele>93.7</ele>
        <time>2022-11-19T08:50:13Z</time>
      </trkpt>
      <trkpt lat="49.14954" lon="1.94813">
        <ele>93.8</ele>
        <time>2022-11-19T08:50:18Z</time>
      </trkpt>
      <trkpt lat="49.14952" lon="1.94826">
        <ele>93.9</ele>
        <time>2022-11-19T08:50:24Z</time>
      </trkpt>
      <trkpt lat="49.14951" lon="1.94839">
        <ele>94.2</ele>
        <time>2022-11-19T08:50:29Z</time>
      </trkpt>
      <trkpt lat="49.14951" lon="1.9485">
        <ele>94.4</ele>
        <time>2022-11-19T08:50:34Z</time>
      </trkpt>
      <trkpt lat="49.1495" lon="1.94862">
        <ele>94.8</ele>
        <time>2022-11-19T08:50:40Z</time>
      </trkpt>
      <trkpt lat="49.14949" lon="1.94873">
        <ele>94.9</ele>
        <time>2022-11-19T08:50:45Z</time>
      </trkpt>
      <trkpt lat="49.14948" lon="1.94884">
        <ele>95</ele>
        <time>2022-11-19T08:50:51Z</time>
      </trkpt>
      <trkpt lat="49.14947" lon="1.94894">
        <ele>95</ele>
        <time>2022-11-19T08:50:57Z</time>
      </trkpt>
      <trkpt lat="49.14945" lon="1.94902">
        <ele>95</ele>
        <time>2022-11-19T08:51:03Z</time>
      </trkpt>
      <trkpt lat="49.14945" lon="1.94915">
        <ele>95</ele>
        <time>2022-11-19T08:51:09Z</time>
      </trkpt>
      <trkpt lat="49.14946" lon="1.94925">
        <ele>95.3</ele>
        <time>2022-11-19T08:51:15Z</time>
      </trkpt>
      <trkpt lat="49.14945" lon="1.94933">
        <ele>95.6</ele>
        <time>2022-11-19T08:51:20Z</time>
      </trkpt>
      <trkpt lat="49.14942" lon="1.94942">
        <ele>95.9</ele>
        <time>2022-11-19T08:51:25Z</time>
      </trkpt>
      <trkpt lat="49.14942" lon="1.94952">
        <ele>96</ele>
        <time>2022-11-19T08:51:31Z</time>
      </trkpt>
      <trkpt lat="49.1494" lon="1.94963">
        <ele>96</ele>
        <time>2022-11-19T08:51:36Z</time>
      </trkpt>
      <trkpt lat="49.14939" lon="1.94973">
        <ele>96</ele>
        <time>2022-11-19T08:51:42Z</time>
      </trkpt>
      <trkpt lat="49.14938" lon="1.94984">
        <ele>96.4</ele>
        <time>2022-11-19T08:51:47Z</time>
      </trkpt>
      <trkpt lat="49.14936" lon="1.94995">
        <ele>96.8</ele>
        <time>2022-11-19T08:51:53Z</time>
      </trkpt>
      <trkpt lat="49.14935" lon="1.95006">
        <ele>97</ele>
        <time>2022-11-19T08:51:59Z</time>
      </trkpt>
      <trkpt lat="49.14931" lon="1.95017">
        <ele>97</ele>
        <time>2022-11-19T08:52:04Z</time>
      </trkpt>
      <trkpt lat="49.14931" lon="1.95028">
        <ele>97</ele>
        <time>2022-11-19T08:52:10Z</time>
      </trkpt>
      <trkpt lat="49.14931" lon="1.9504">
        <ele>97.4</ele>
        <time>2022-11-19T08:52:16Z</time>
      </trkpt>
      <trkpt lat="49.14928" lon="1.95051">
        <ele>97.8</ele>
        <time>2022-11-19T08:52:21Z</time>
      </trkpt>
      <trkpt lat="49.14929" lon="1.95061">
        <ele>98.2</ele>
        <time>2022-11-19T08:52:26Z</time>
      </trkpt>
      <trkpt lat="49.14929" lon="1.95066">
        <ele>98.4</ele>
        <time>2022-11-19T08:52:31Z</time>
      </trkpt>
      <trkpt lat="49.14928" lon="1.95073">
        <ele>98.6</ele>
        <time>2022-11-19T08:52:36Z</time>
      </trkpt>
      <trkpt lat="49.14933" lon="1.95085">
        <ele>99</ele>
        <time>2022-11-19T08:52:42Z</time>
      </trkpt>
      <trkpt lat="49.1494" lon="1.95087">
        <ele>99.1</ele>
        <time>2022-11-19T08:52:48Z</time>
      </trkpt>
      <trkpt lat="49.14949" lon="1.95095">
        <ele>99.4</ele>
        <time>2022-11-19T08:52:54Z</time>
      </trkpt>
      <trkpt lat="49.14957" lon="1.95097">
        <ele>99.5</ele>
        <time>2022-11-19T08:52:59Z</time>
      </trkpt>
      <trkpt lat="49.14965" lon="1.95097">
        <ele>99.5</ele>
        <time>2022-11-19T08:53:05Z</time>
      </trkpt>
      <trkpt lat="49.14972" lon="1.95098">
        <ele>99.5</ele>
        <time>2022-11-19T08:53:10Z</time>
      </trkpt>
      <trkpt lat="49.14982" lon="1.95099">
        <ele>99.2</ele>
        <time>2022-11-19T08:53:16Z</time>
      </trkpt>
      <trkpt lat="49.1499" lon="1.95099">
        <ele>98.9</ele>
        <time>2022-11-19T08:53:21Z</time>
      </trkpt>
      <trkpt lat="49.14996" lon="1.95101">
        <ele>98.8</ele>
        <time>2022-11-19T08:53:26Z</time>
      </trkpt>
      <trkpt lat="49.15005" lon="1.95106">
        <ele>98.8</ele>
        <time>2022-11-19T08:53:32Z</time>
      </trkpt>
      <trkpt lat="49.15014" lon="1.95107">
        <ele>98.8</ele>
        <time>2022-11-19T08:53:37Z</time>
      </trkpt>
      <trkpt lat="49.15024" lon="1.9511">
        <ele>99</ele>
        <time>2022-11-19T08:53:43Z</time>
      </trkpt>
      <trkpt lat="49.15031" lon="1.95113">
        <ele>98.9</ele>
        <time>2022-11-19T08:53:48Z</time>
      </trkpt>
      <trkpt lat="49.15041" lon="1.95118">
        <ele>98.6</ele>
        <time>2022-11-19T08:53:54Z</time>
      </trkpt>
      <trkpt lat="49.15048" lon="1.95125">
        <ele>98.6</ele>
        <time>2022-11-19T08:53:59Z</time>
      </trkpt>
      <trkpt lat="49.15054" lon="1.95128">
        <ele>98.6</ele>
        <time>2022-11-19T08:54:05Z</time>
      </trkpt>
      <trkpt lat="49.15062" lon="1.95132">
        <ele>98.6</ele>
        <time>2022-11-19T08:54:11Z</time>
      </trkpt>
      <trkpt lat="49.15066" lon="1.95138">
        <ele>98.6</ele>
        <time>2022-11-19T08:54:17Z</time>
      </trkpt>
      <trkpt lat="49.15073" lon="1.95147">
        <ele>98.5</ele>
        <time>2022-11-19T08:54:22Z</time>
      </trkpt>
      <trkpt lat="49.15083" lon="1.95159">
        <ele>98.7</ele>
        <time>2022-11-19T08:54:28Z</time>
      </trkpt>
      <trkpt lat="49.15092" lon="1.95164">
        <ele>98.6</ele>
        <time>2022-11-19T08:54:33Z</time>
      </trkpt>
      <trkpt lat="49.15099" lon="1.9517">
        <ele>98.5</ele>
        <time>2022-11-19T08:54:39Z</time>
      </trkpt>
      <trkpt lat="49.15107" lon="1.95179">
        <ele>98.5</ele>
        <time>2022-11-19T08:54:45Z</time>
      </trkpt>
      <trkpt lat="49.15112" lon="1.95184">
        <ele>98.6</ele>
        <time>2022-11-19T08:54:50Z</time>
      </trkpt>
      <trkpt lat="49.15119" lon="1.95194">
        <ele>98.7</ele>
        <time>2022-11-19T08:54:56Z</time>
      </trkpt>
      <trkpt lat="49.15126" lon="1.95198">
        <ele>98.6</ele>
        <time>2022-11-19T08:55:01Z</time>
      </trkpt>
      <trkpt lat="49.15135" lon="1.95206">
        <ele>98.5</ele>
        <time>2022-11-19T08:55:07Z</time>
      </trkpt>
      <trkpt lat="49.15145" lon="1.9521">
        <ele>98.6</ele>
        <time>2022-11-19T08:55:13Z</time>
      </trkpt>
      <trkpt lat="49.15152" lon="1.95216">
        <ele>98.8</ele>
        <time>2022-11-19T08:55:18Z</time>
      </trkpt>
      <trkpt lat="49.1516" lon="1.95221">
        <ele>98.9</ele>
        <time>2022-11-19T08:55:24Z</time>
      </trkpt>
      <trkpt lat="49.15166" lon="1.95224">
        <ele>99</ele>
        <time>2022-11-19T08:55:29Z</time>
      </trkpt>
      <trkpt lat="49.15173" lon="1.95231">
        <ele>98.8</ele>
        <time>2022-11-19T08:55:35Z</time>
      </trkpt>
      <trkpt lat="49.15182" lon="1.95236">
        <ele>98.7</ele>
        <time>2022-11-19T08:55:41Z</time>
      </trkpt>
      <trkpt lat="49.15188" lon="1.95241">
        <ele>98.7</ele>
        <time>2022-11-19T08:55:46Z</time>
      </trkpt>
      <trkpt lat="49.15194" lon="1.95247">
        <ele>98.9</ele>
        <time>2022-11-19T08:55:51Z</time>
      </trkpt>
      <trkpt lat="49.152" lon="1.95253">
        <ele>99.1</ele>
        <time>2022-11-19T08:55:57Z</time>
      </trkpt>
      <trkpt lat="49.15209" lon="1.95261">
        <ele>99.2</ele>
        <time>2022-11-19T08:56:03Z</time>
      </trkpt>
      <trkpt lat="49.15214" lon="1.95265">
        <ele>99.2</ele>
        <time>2022-11-19T08:56:08Z</time>
      </trkpt>
      <trkpt lat="49.15224" lon="1.95273">
        <ele>99</ele>
        <time>2022-11-19T08:56:14Z</time>
      </trkpt>
      <trkpt lat="49.15233" lon="1.95279">
        <ele>99</ele>
        <time>2022-11-19T08:56:19Z</time>
      </trkpt>
      <trkpt lat="49.15241" lon="1.95285">
        <ele>99.1</ele>
        <time>2022-11-19T08:56:24Z</time>
      </trkpt>
      <trkpt lat="49.15248" lon="1.95291">
        <ele>99</ele>
        <time>2022-11-19T08:56:30Z</time>
      </trkpt>
      <trkpt lat="49.15255" lon="1.95299">
        <ele>99</ele>
        <time>2022-11-19T08:56:36Z</time>
      </trkpt>
      <trkpt lat="49.1526" lon="1.95303">
        <ele>99</ele>
        <time>2022-11-19T08:56:41Z</time>
      </trkpt>
      <trkpt lat="49.15266" lon="1.95309">
        <ele>99.1</ele>
        <time>2022-11-19T08:56:46Z</time>
      </trkpt>
      <trkpt lat="49.15272" lon="1.95316">
        <ele>99.1</ele>
        <time>2022-11-19T08:56:51Z</time>
      </trkpt>
      <trkpt lat="49.1528" lon="1.95322">
        <ele>99.1</ele>
        <time>2022-11-19T08:56:57Z</time>
      </trkpt>
      <trkpt lat="49.15287" lon="1.95327">
        <ele>99.3</ele>
        <time>2022-11-19T08:57:02Z</time>
      </trkpt>
      <trkpt lat="49.15295" lon="1.95334">
        <ele>99.7</ele>
        <time>2022-11-19T08:57:08Z</time>
      </trkpt>
      <trkpt lat="49.15302" lon="1.9534">
        <ele>100.1</ele>
        <time>2022-11-19T08:57:13Z</time>
      </trkpt>
      <trkpt lat="49.15308" lon="1.95342">
        <ele>100.4</ele>
        <time>2022-11-19T08:57:19Z</time>
      </trkpt>
      <trkpt lat="49.15315" lon="1.95346">
        <ele>100.8</ele>
        <time>2022-11-19T08:57:24Z</time>
      </trkpt>
      <trkpt lat="49.15324" lon="1.95353">
        <ele>101.4</ele>
        <time>2022-11-19T08:57:30Z</time>
      </trkpt>
      <trkpt lat="49.15331" lon="1.95357">
        <ele>101.8</ele>
        <time>2022-11-19T08:57:36Z</time>
      </trkpt>
      <trkpt lat="49.15334" lon="1.95359">
        <ele>102</ele>
        <time>2022-11-19T08:57:41Z</time>
      </trkpt>
      <trkpt lat="49.1534" lon="1.95364">
        <ele>102.3</ele>
        <time>2022-11-19T08:57:46Z</time>
      </trkpt>
      <trkpt lat="49.15347" lon="1.95373">
        <ele>102.7</ele>
        <time>2022-11-19T08:57:52Z</time>
      </trkpt>
      <trkpt lat="49.15355" lon="1.95377">
        <ele>102.9</ele>
        <time>2022-11-19T08:57:57Z</time>
      </trkpt>
      <trkpt lat="49.15364" lon="1.95387">
        <ele>103</ele>
        <time>2022-11-19T08:58:03Z</time>
      </trkpt>
      <trkpt lat="49.15373" lon="1.95394">
        <ele>103.2</ele>
        <time>2022-11-19T08:58:09Z</time>
      </trkpt>
      <trkpt lat="49.15378" lon="1.95398">
        <ele>103.3</ele>
        <time>2022-11-19T08:58:15Z</time>
      </trkpt>
      <trkpt lat="49.15386" lon="1.95402">
        <ele>103.5</ele>
        <time>2022-11-19T08:58:21Z</time>
      </trkpt>
      <trkpt lat="49.15394" lon="1.95404">
        <ele>103.5</ele>
        <time>2022-11-19T08:58:27Z</time>
      </trkpt>
      <trkpt lat="49.15401" lon="1.95408">
        <ele>103.7</ele>
        <time>2022-11-19T08:58:32Z</time>
      </trkpt>
      <trkpt lat="49.1541" lon="1.95411">
        <ele>103.8</ele>
        <time>2022-11-19T08:58:37Z</time>
      </trkpt>
      <trkpt lat="49.15417" lon="1.95413">
        <ele>103.9</ele>
        <time>2022-11-19T08:58:42Z</time>
      </trkpt>
      <trkpt lat="49.15424" lon="1.95419">
        <ele>103.7</ele>
        <time>2022-11-19T08:58:48Z</time>
      </trkpt>
      <trkpt lat="49.1543" lon="1.95425">
        <ele>103.5</ele>
        <time>2022-11-19T08:58:53Z</time>
      </trkpt>
      <trkpt lat="49.15436" lon="1.95433">
        <ele>103.3</ele>
        <time>2022-11-19T08:58:59Z</time>
      </trkpt>
      <trkpt lat="49.15442" lon="1.95442">
        <ele>103.1</ele>
        <time>2022-11-19T08:59:05Z</time>
      </trkpt>
      <trkpt lat="49.15449" lon="1.95451">
        <ele>103.2</ele>
        <time>2022-11-19T08:59:10Z</time>
      </trkpt>
      <trkpt lat="49.15454" lon="1.95463">
        <ele>103.4</ele>
        <time>2022-11-19T08:59:16Z</time>
      </trkpt>
      <trkpt lat="49.1546" lon="1.95466">
        <ele>103.4</ele>
        <time>2022-11-19T08:59:21Z</time>
      </trkpt>
      <trkpt lat="49.15462" lon="1.95468">
        <ele>103.3</ele>
        <time>2022-11-19T08:59:27Z</time>
      </trkpt>
      <trkpt lat="49.15462" lon="1.95465">
        <ele>103.3</ele>
        <time>2022-11-19T08:59:33Z</time>
      </trkpt>
      <trkpt lat="49.15464" lon="1.95467">
        <ele>103.3</ele>
        <time>2022-11-19T08:59:38Z</time>
      </trkpt>
      <trkpt lat="49.15467" lon="1.95481">
        <ele>103.5</ele>
        <time>2022-11-19T08:59:44Z</time>
      </trkpt>
      <trkpt lat="49.15469" lon="1.95491">
        <ele>103.8</ele>
        <time>2022-11-19T08:59:50Z</time>
      </trkpt>
      <trkpt lat="49.15474" lon="1.95488">
        <ele>103.5</ele>
        <time>2022-11-19T08:59:56Z</time>
      </trkpt>
      <trkpt lat="49.15482" lon="1.95481">
        <ele>102.8</ele>
        <time>2022-11-19T09:00:02Z</time>
      </trkpt>
      <trkpt lat="49.15489" lon="1.95477">
        <ele>102.5</ele>
        <time>2022-11-19T09:00:07Z</time>
      </trkpt>
      <trkpt lat="49.15496" lon="1.9548">
        <ele>102.2</ele>
        <time>2022-11-19T09:00:12Z</time>
      </trkpt>
      <trkpt lat="49.15506" lon="1.9548">
        <ele>101.8</ele>
        <time>2022-11-19T09:00:18Z</time>
      </trkpt>
      <trkpt lat="49.15515" lon="1.95477">
        <ele>101.5</ele>
        <time>2022-11-19T09:00:24Z</time>
      </trkpt>
      <trkpt lat="49.15521" lon="1.95475">
        <ele>101.3</ele>
        <time>2022-11-19T09:00:29Z</time>
      </trkpt>
      <trkpt lat="49.15528" lon="1.95473">
        <ele>101</ele>
        <time>2022-11-19T09:00:35Z</time>
      </trkpt>
      <trkpt lat="49.15535" lon="1.9547">
        <ele>100.8</ele>
        <time>2022-11-19T09:00:40Z</time>
      </trkpt>
      <trkpt lat="49.15546" lon="1.9547">
        <ele>100.4</ele>
        <time>2022-11-19T09:00:46Z</time>
      </trkpt>
      <trkpt lat="49.15553" lon="1.95472">
        <ele>100.1</ele>
        <time>2022-11-19T09:00:51Z</time>
      </trkpt>
      <trkpt lat="49.15561" lon="1.95472">
        <ele>99.8</ele>
        <time>2022-11-19T09:00:57Z</time>
      </trkpt>
      <trkpt lat="49.1557" lon="1.95473">
        <ele>99.5</ele>
        <time>2022-11-19T09:01:03Z</time>
      </trkpt>
      <trkpt lat="49.15581" lon="1.95474">
        <ele>99.1</ele>
        <time>2022-11-19T09:01:09Z</time>
      </trkpt>
      <trkpt lat="49.15589" lon="1.95477">
        <ele>98.7</ele>
        <time>2022-11-19T09:01:14Z</time>
      </trkpt>
      <trkpt lat="49.15594" lon="1.95481">
        <ele>98.5</ele>
        <time>2022-11-19T09:01:20Z</time>
      </trkpt>
      <trkpt lat="49.15602" lon="1.95485">
        <ele>98.1</ele>
        <time>2022-11-19T09:01:26Z</time>
      </trkpt>
      <trkpt lat="49.1561" lon="1.95491">
        <ele>97.8</ele>
        <time>2022-11-19T09:01:31Z</time>
      </trkpt>
      <trkpt lat="49.15617" lon="1.95495">
        <ele>97.4</ele>
        <time>2022-11-19T09:01:37Z</time>
      </trkpt>
      <trkpt lat="49.15622" lon="1.95496">
        <ele>97</ele>
        <time>2022-11-19T09:01:43Z</time>
      </trkpt>
      <trkpt lat="49.15632" lon="1.95493">
        <ele>96.2</ele>
        <time>2022-11-19T09:01:49Z</time>
      </trkpt>
      <trkpt lat="49.15642" lon="1.95494">
        <ele>95.7</ele>
        <time>2022-11-19T09:01:55Z</time>
      </trkpt>
      <trkpt lat="49.15648" lon="1.95496">
        <ele>95.5</ele>
        <time>2022-11-19T09:02:00Z</time>
      </trkpt>
      <trkpt lat="49.15656" lon="1.95495">
        <ele>95.2</ele>
        <time>2022-11-19T09:02:05Z</time>
      </trkpt>
      <trkpt lat="49.15662" lon="1.95496">
        <ele>95</ele>
        <time>2022-11-19T09:02:10Z</time>
      </trkpt>
      <trkpt lat="49.15675" lon="1.95492">
        <ele>94.5</ele>
        <time>2022-11-19T09:02:16Z</time>
      </trkpt>
      <trkpt lat="49.15684" lon="1.95492">
        <ele>94.3</ele>
        <time>2022-11-19T09:02:22Z</time>
      </trkpt>
      <trkpt lat="49.15691" lon="1.9549">
        <ele>94.1</ele>
        <time>2022-11-19T09:02:27Z</time>
      </trkpt>
      <trkpt lat="49.15701" lon="1.95489">
        <ele>94</ele>
        <time>2022-11-19T09:02:33Z</time>
      </trkpt>
      <trkpt lat="49.15707" lon="1.95488">
        <ele>94</ele>
        <time>2022-11-19T09:02:38Z</time>
      </trkpt>
      <trkpt lat="49.15713" lon="1.95487">
        <ele>94</ele>
        <time>2022-11-19T09:02:43Z</time>
      </trkpt>
      <trkpt lat="49.15721" lon="1.95485">
        <ele>94</ele>
        <time>2022-11-19T09:02:49Z</time>
      </trkpt>
      <trkpt lat="49.15729" lon="1.95482">
        <ele>94.2</ele>
        <time>2022-11-19T09:02:54Z</time>
      </trkpt>
      <trkpt lat="49.15737" lon="1.95481">
        <ele>94.4</ele>
        <time>2022-11-19T09:03:00Z</time>
      </trkpt>
      <trkpt lat="49.15746" lon="1.9548">
        <ele>94.6</ele>
        <time>2022-11-19T09:03:06Z</time>
      </trkpt>
      <trkpt lat="49.15756" lon="1.95475">
        <ele>95.1</ele>
        <time>2022-11-19T09:03:12Z</time>
      </trkpt>
      <trkpt lat="49.15763" lon="1.95469">
        <ele>95.6</ele>
        <time>2022-11-19T09:03:17Z</time>
      </trkpt>
      <trkpt lat="49.1577" lon="1.95466">
        <ele>96.1</ele>
        <time>2022-11-19T09:03:23Z</time>
      </trkpt>
      <trkpt lat="49.15779" lon="1.95462">
        <ele>96.8</ele>
        <time>2022-11-19T09:03:29Z</time>
      </trkpt>
      <trkpt lat="49.15784" lon="1.95458">
        <ele>97.4</ele>
        <time>2022-11-19T09:03:34Z</time>
      </trkpt>
      <trkpt lat="49.15793" lon="1.9546">
        <ele>97.8</ele>
        <time>2022-11-19T09:03:40Z</time>
      </trkpt>
      <trkpt lat="49.15801" lon="1.95463">
        <ele>98.1</ele>
        <time>2022-11-19T09:03:46Z</time>
      </trkpt>
      <trkpt lat="49.15807" lon="1.95461">
        <ele>98.5</ele>
        <time>2022-11-19T09:03:51Z</time>
      </trkpt>
      <trkpt lat="49.15815" lon="1.95461">
        <ele>99.1</ele>
        <time>2022-11-19T09:03:57Z</time>
      </trkpt>
      <trkpt lat="49.15824" lon="1.9546">
        <ele>99.8</ele>
        <time>2022-11-19T09:04:03Z</time>
      </trkpt>
      <trkpt lat="49.15832" lon="1.95461">
        <ele>100.3</ele>
        <time>2022-11-19T09:04:08Z</time>
      </trkpt>
      <trkpt lat="49.15838" lon="1.9546">
        <ele>100.6</ele>
        <time>2022-11-19T09:04:13Z</time>
      </trkpt>
      <trkpt lat="49.15843" lon="1.95458">
        <ele>100.9</ele>
        <time>2022-11-19T09:04:18Z</time>
      </trkpt>
      <trkpt lat="49.15849" lon="1.95451">
        <ele>101.3</ele>
        <time>2022-11-19T09:04:24Z</time>
      </trkpt>
      <trkpt lat="49.15858" lon="1.95446">
        <ele>101.8</ele>
        <time>2022-11-19T09:04:30Z</time>
      </trkpt>
      <trkpt lat="49.15866" lon="1.95444">
        <ele>102.2</ele>
        <time>2022-11-19T09:04:35Z</time>
      </trkpt>
      <trkpt lat="49.15874" lon="1.95443">
        <ele>102.5</ele>
        <time>2022-11-19T09:04:41Z</time>
      </trkpt>
      <trkpt lat="49.15884" lon="1.95438">
        <ele>102.8</ele>
        <time>2022-11-19T09:04:47Z</time>
      </trkpt>
      <trkpt lat="49.15892" lon="1.95435">
        <ele>103</ele>
        <time>2022-11-19T09:04:52Z</time>
      </trkpt>
      <trkpt lat="49.15901" lon="1.95431">
        <ele>103</ele>
        <time>2022-11-19T09:04:57Z</time>
      </trkpt>
      <trkpt lat="49.15909" lon="1.95428">
        <ele>103</ele>
        <time>2022-11-19T09:05:03Z</time>
      </trkpt>
      <trkpt lat="49.15916" lon="1.95427">
        <ele>103</ele>
        <time>2022-11-19T09:05:08Z</time>
      </trkpt>
      <trkpt lat="49.15925" lon="1.95423">
        <ele>103</ele>
        <time>2022-11-19T09:05:13Z</time>
      </trkpt>
      <trkpt lat="49.15934" lon="1.95417">
        <ele>103</ele>
        <time>2022-11-19T09:05:19Z</time>
      </trkpt>
      <trkpt lat="49.15941" lon="1.95415">
        <ele>103</ele>
        <time>2022-11-19T09:05:24Z</time>
      </trkpt>
      <trkpt lat="49.15948" lon="1.95412">
        <ele>103</ele>
        <time>2022-11-19T09:05:30Z</time>
      </trkpt>
      <trkpt lat="49.15955" lon="1.95411">
        <ele>103.1</ele>
        <time>2022-11-19T09:05:35Z</time>
      </trkpt>
      <trkpt lat="49.15961" lon="1.95408">
        <ele>103.2</ele>
        <time>2022-11-19T09:05:40Z</time>
      </trkpt>
      <trkpt lat="49.1597" lon="1.95404">
        <ele>103.4</ele>
        <time>2022-11-19T09:05:46Z</time>
      </trkpt>
      <trkpt lat="49.1598" lon="1.954">
        <ele>103.6</ele>
        <time>2022-11-19T09:05:52Z</time>
      </trkpt>
      <trkpt lat="49.15989" lon="1.95396">
        <ele>103.7</ele>
        <time>2022-11-19T09:05:58Z</time>
      </trkpt>
      <trkpt lat="49.15995" lon="1.95394">
        <ele>103.8</ele>
        <time>2022-11-19T09:06:03Z</time>
      </trkpt>
      <trkpt lat="49.16003" lon="1.9539">
        <ele>104</ele>
        <time>2022-11-19T09:06:09Z</time>
      </trkpt>
      <trkpt lat="49.16013" lon="1.95387">
        <ele>104</ele>
        <time>2022-11-19T09:06:15Z</time>
      </trkpt>
      <trkpt lat="49.16022" lon="1.95384">
        <ele>104</ele>
        <time>2022-11-19T09:06:21Z</time>
      </trkpt>
      <trkpt lat="49.16027" lon="1.95381">
        <ele>104</ele>
        <time>2022-11-19T09:06:26Z</time>
      </trkpt>
      <trkpt lat="49.16035" lon="1.95377">
        <ele>104</ele>
        <time>2022-11-19T09:06:32Z</time>
      </trkpt>
      <trkpt lat="49.16042" lon="1.95374">
        <ele>104</ele>
        <time>2022-11-19T09:06:37Z</time>
      </trkpt>
      <trkpt lat="49.16049" lon="1.95371">
        <ele>104</ele>
        <time>2022-11-19T09:06:43Z</time>
      </trkpt>
      <trkpt lat="49.16055" lon="1.95368">
        <ele>104</ele>
        <time>2022-11-19T09:06:48Z</time>
      </trkpt>
      <trkpt lat="49.16064" lon="1.95365">
        <ele>104</ele>
        <time>2022-11-19T09:06:53Z</time>
      </trkpt>
      <trkpt lat="49.16073" lon="1.95361">
        <ele>104</ele>
        <time>2022-11-19T09:06:59Z</time>
      </trkpt>
      <trkpt lat="49.16079" lon="1.95358">
        <ele>104.1</ele>
        <time>2022-11-19T09:07:04Z</time>
      </trkpt>
      <trkpt lat="49.16087" lon="1.95355">
        <ele>104.3</ele>
        <time>2022-11-19T09:07:10Z</time>
      </trkpt>
      <trkpt lat="49.16094" lon="1.95352">
        <ele>104.6</ele>
        <time>2022-11-19T09:07:15Z</time>
      </trkpt>
      <trkpt lat="49.16102" lon="1.95349">
        <ele>104.8</ele>
        <time>2022-11-19T09:07:21Z</time>
      </trkpt>
      <trkpt lat="49.16109" lon="1.95346">
        <ele>105</ele>
        <time>2022-11-19T09:07:26Z</time>
      </trkpt>
      <trkpt lat="49.16115" lon="1.95343">
        <ele>105</ele>
        <time>2022-11-19T09:07:31Z</time>
      </trkpt>
      <trkpt lat="49.16125" lon="1.95339">
        <ele>105</ele>
        <time>2022-11-19T09:07:37Z</time>
      </trkpt>
      <trkpt lat="49.16133" lon="1.95337">
        <ele>105</ele>
        <time>2022-11-19T09:07:42Z</time>
      </trkpt>
      <trkpt lat="49.1614" lon="1.95334">
        <ele>105</ele>
        <time>2022-11-19T09:07:47Z</time>
      </trkpt>
      <trkpt lat="49.16148" lon="1.95331">
        <ele>105.4</ele>
        <time>2022-11-19T09:07:53Z</time>
      </trkpt>
      <trkpt lat="49.16157" lon="1.95327">
        <ele>105.7</ele>
        <time>2022-11-19T09:07:59Z</time>
      </trkpt>
      <trkpt lat="49.16164" lon="1.95324">
        <ele>105.9</ele>
        <time>2022-11-19T09:08:04Z</time>
      </trkpt>
      <trkpt lat="49.16174" lon="1.95322">
        <ele>106.2</ele>
        <time>2022-11-19T09:08:10Z</time>
      </trkpt>
      <trkpt lat="49.1618" lon="1.95319">
        <ele>106.5</ele>
        <time>2022-11-19T09:08:15Z</time>
      </trkpt>
      <trkpt lat="49.16189" lon="1.95316">
        <ele>106.8</ele>
        <time>2022-11-19T09:08:21Z</time>
      </trkpt>
      <trkpt lat="49.16197" lon="1.95313">
        <ele>107.1</ele>
        <time>2022-11-19T09:08:26Z</time>
      </trkpt>
      <trkpt lat="49.16205" lon="1.95312">
        <ele>107.4</ele>
        <time>2022-11-19T09:08:32Z</time>
      </trkpt>
      <trkpt lat="49.16211" lon="1.95311">
        <ele>107.6</ele>
        <time>2022-11-19T09:08:37Z</time>
      </trkpt>
      <trkpt lat="49.1622" lon="1.95308">
        <ele>107.9</ele>
        <time>2022-11-19T09:08:43Z</time>
      </trkpt>
      <trkpt lat="49.16228" lon="1.95305">
        <ele>108.2</ele>
        <time>2022-11-19T09:08:48Z</time>
      </trkpt>
      <trkpt lat="49.16234" lon="1.95302">
        <ele>108.4</ele>
        <time>2022-11-19T09:08:53Z</time>
      </trkpt>
      <trkpt lat="49.16242" lon="1.953">
        <ele>108.7</ele>
        <time>2022-11-19T09:08:59Z</time>
      </trkpt>
      <trkpt lat="49.16249" lon="1.95298">
        <ele>109</ele>
        <time>2022-11-19T09:09:04Z</time>
      </trkpt>
      <trkpt lat="49.16257" lon="1.95296">
        <ele>109.2</ele>
        <time>2022-11-19T09:09:10Z</time>
      </trkpt>
      <trkpt lat="49.16262" lon="1.95294">
        <ele>109.2</ele>
        <time>2022-11-19T09:09:15Z</time>
      </trkpt>
      <trkpt lat="49.16272" lon="1.95297">
        <ele>109.6</ele>
        <time>2022-11-19T09:09:21Z</time>
      </trkpt>
      <trkpt lat="49.16282" lon="1.953">
        <ele>109.8</ele>
        <time>2022-11-19T09:09:27Z</time>
      </trkpt>
      <trkpt lat="49.1629" lon="1.95297">
        <ele>109.7</ele>
        <time>2022-11-19T09:09:33Z</time>
      </trkpt>
      <trkpt lat="49.16299" lon="1.95299">
        <ele>109.8</ele>
        <time>2022-11-19T09:09:39Z</time>
      </trkpt>
      <trkpt lat="49.16309" lon="1.95298">
        <ele>109.7</ele>
        <time>2022-11-19T09:09:45Z</time>
      </trkpt>
      <trkpt lat="49.16317" lon="1.95299">
        <ele>109.6</ele>
        <time>2022-11-19T09:09:50Z</time>
      </trkpt>
      <trkpt lat="49.16325" lon="1.95299">
        <ele>109.6</ele>
        <time>2022-11-19T09:09:55Z</time>
      </trkpt>
      <trkpt lat="49.16334" lon="1.953">
        <ele>109.6</ele>
        <time>2022-11-19T09:10:01Z</time>
      </trkpt>
      <trkpt lat="49.16344" lon="1.95298">
        <ele>109.2</ele>
        <time>2022-11-19T09:10:07Z</time>
      </trkpt>
      <trkpt lat="49.16351" lon="1.95298">
        <ele>109</ele>
        <time>2022-11-19T09:10:12Z</time>
      </trkpt>
      <trkpt lat="49.16358" lon="1.95297">
        <ele>108.8</ele>
        <time>2022-11-19T09:10:18Z</time>
      </trkpt>
      <trkpt lat="49.16364" lon="1.95298">
        <ele>108.6</ele>
        <time>2022-11-19T09:10:23Z</time>
      </trkpt>
      <trkpt lat="49.16371" lon="1.95299">
        <ele>108.4</ele>
        <time>2022-11-19T09:10:28Z</time>
      </trkpt>
      <trkpt lat="49.1638" lon="1.95299">
        <ele>108.1</ele>
        <time>2022-11-19T09:10:34Z</time>
      </trkpt>
      <trkpt lat="49.16389" lon="1.953">
        <ele>107.8</ele>
        <time>2022-11-19T09:10:40Z</time>
      </trkpt>
      <trkpt lat="49.16397" lon="1.953">
        <ele>107.8</ele>
        <time>2022-11-19T09:10:45Z</time>
      </trkpt>
      <trkpt lat="49.16408" lon="1.95299">
        <ele>107.8</ele>
        <time>2022-11-19T09:10:51Z</time>
      </trkpt>
      <trkpt lat="49.16417" lon="1.95298">
        <ele>107.7</ele>
        <time>2022-11-19T09:10:56Z</time>
      </trkpt>
      <trkpt lat="49.16424" lon="1.95297">
        <ele>107.7</ele>
        <time>2022-11-19T09:11:01Z</time>
      </trkpt>
      <trkpt lat="49.16432" lon="1.95297">
        <ele>107.7</ele>
        <time>2022-11-19T09:11:07Z</time>
      </trkpt>
      <trkpt lat="49.1644" lon="1.95296">
        <ele>107.7</ele>
        <time>2022-11-19T09:11:12Z</time>
      </trkpt>
      <trkpt lat="49.16447" lon="1.95293">
        <ele>107.5</ele>
        <time>2022-11-19T09:11:17Z</time>
      </trkpt>
      <trkpt lat="49.16455" lon="1.95289">
        <ele>107.4</ele>
        <time>2022-11-19T09:11:23Z</time>
      </trkpt>
      <trkpt lat="49.16461" lon="1.95285">
        <ele>107.2</ele>
        <time>2022-11-19T09:11:28Z</time>
      </trkpt>
      <trkpt lat="49.16472" lon="1.95284">
        <ele>107.2</ele>
        <time>2022-11-19T09:11:34Z</time>
      </trkpt>
      <trkpt lat="49.16482" lon="1.95282">
        <ele>107.5</ele>
        <time>2022-11-19T09:11:39Z</time>
      </trkpt>
      <trkpt lat="49.16491" lon="1.95281">
        <ele>107.7</ele>
        <time>2022-11-19T09:11:45Z</time>
      </trkpt>
      <trkpt lat="49.16498" lon="1.95279">
        <ele>107.9</ele>
        <time>2022-11-19T09:11:51Z</time>
      </trkpt>
      <trkpt lat="49.16505" lon="1.95279">
        <ele>108</ele>
        <time>2022-11-19T09:11:56Z</time>
      </trkpt>
      <trkpt lat="49.16513" lon="1.95278">
        <ele>108</ele>
        <time>2022-11-19T09:12:02Z</time>
      </trkpt>
      <trkpt lat="49.16523" lon="1.95278">
        <ele>108</ele>
        <time>2022-11-19T09:12:08Z</time>
      </trkpt>
      <trkpt lat="49.16531" lon="1.95277">
        <ele>108.1</ele>
        <time>2022-11-19T09:12:13Z</time>
      </trkpt>
      <trkpt lat="49.16542" lon="1.95275">
        <ele>108.5</ele>
        <time>2022-11-19T09:12:19Z</time>
      </trkpt>
      <trkpt lat="49.16549" lon="1.95275">
        <ele>108.7</ele>
        <time>2022-11-19T09:12:25Z</time>
      </trkpt>
      <trkpt lat="49.16555" lon="1.95273">
        <ele>108.8</ele>
        <time>2022-11-19T09:12:31Z</time>
      </trkpt>
      <trkpt lat="49.1655" lon="1.95268">
        <ele>108.5</ele>
        <time>2022-11-19T09:12:36Z</time>
      </trkpt>
      <trkpt lat="49.16545" lon="1.95255">
        <ele>108.1</ele>
        <time>2022-11-19T09:12:42Z</time>
      </trkpt>
      <trkpt lat="49.16539" lon="1.95241">
        <ele>107.8</ele>
        <time>2022-11-19T09:12:48Z</time>
      </trkpt>
      <trkpt lat="49.16538" lon="1.95229">
        <ele>107.5</ele>
        <time>2022-11-19T09:12:53Z</time>
      </trkpt>
      <trkpt lat="49.16535" lon="1.95217">
        <ele>107.2</ele>
        <time>2022-11-19T09:12:59Z</time>
      </trkpt>
      <trkpt lat="49.16531" lon="1.95204">
        <ele>107.1</ele>
        <time>2022-11-19T09:13:05Z</time>
      </trkpt>
      <trkpt lat="49.1653" lon="1.95195">
        <ele>107.1</ele>
        <time>2022-11-19T09:13:10Z</time>
      </trkpt>
      <trkpt lat="49.16527" lon="1.95182">
        <ele>107</ele>
        <time>2022-11-19T09:13:16Z</time>
      </trkpt>
      <trkpt lat="49.16523" lon="1.9517">
        <ele>106.8</ele>
        <time>2022-11-19T09:13:21Z</time>
      </trkpt>
      <trkpt lat="49.16518" lon="1.95155">
        <ele>106.6</ele>
        <time>2022-11-19T09:13:27Z</time>
      </trkpt>
      <trkpt lat="49.16514" lon="1.95142">
        <ele>106.5</ele>
        <time>2022-11-19T09:13:32Z</time>
      </trkpt>
      <trkpt lat="49.1651" lon="1.95131">
        <ele>106.3</ele>
        <time>2022-11-19T09:13:37Z</time>
      </trkpt>
      <trkpt lat="49.16506" lon="1.95119">
        <ele>106.2</ele>
        <time>2022-11-19T09:13:43Z</time>
      </trkpt>
      <trkpt lat="49.16503" lon="1.95109">
        <ele>106</ele>
        <time>2022-11-19T09:13:48Z</time>
      </trkpt>
      <trkpt lat="49.165" lon="1.95097">
        <ele>105.5</ele>
        <time>2022-11-19T09:13:54Z</time>
      </trkpt>
      <trkpt lat="49.16498" lon="1.95088">
        <ele>105.2</ele>
        <time>2022-11-19T09:13:59Z</time>
      </trkpt>
      <trkpt lat="49.16496" lon="1.95077">
        <ele>105</ele>
        <time>2022-11-19T09:14:05Z</time>
      </trkpt>
      <trkpt lat="49.16492" lon="1.95062">
        <ele>105</ele>
        <time>2022-11-19T09:14:11Z</time>
      </trkpt>
      <trkpt lat="49.16487" lon="1.9505">
        <ele>104.9</ele>
        <time>2022-11-19T09:14:17Z</time>
      </trkpt>
      <trkpt lat="49.16484" lon="1.95039">
        <ele>104.7</ele>
        <time>2022-11-19T09:14:22Z</time>
      </trkpt>
      <trkpt lat="49.16481" lon="1.95028">
        <ele>104.3</ele>
        <time>2022-11-19T09:14:27Z</time>
      </trkpt>
      <trkpt lat="49.16477" lon="1.95013">
        <ele>104.2</ele>
        <time>2022-11-19T09:14:33Z</time>
      </trkpt>
      <trkpt lat="49.16476" lon="1.95001">
        <ele>104.1</ele>
        <time>2022-11-19T09:14:39Z</time>
      </trkpt>
      <trkpt lat="49.16474" lon="1.94989">
        <ele>104.1</ele>
        <time>2022-11-19T09:14:45Z</time>
      </trkpt>
      <trkpt lat="49.16473" lon="1.94978">
        <ele>104</ele>
        <time>2022-11-19T09:14:50Z</time>
      </trkpt>
      <trkpt lat="49.16472" lon="1.94963">
        <ele>104</ele>
        <time>2022-11-19T09:14:56Z</time>
      </trkpt>
      <trkpt lat="49.16471" lon="1.94953">
        <ele>104</ele>
        <time>2022-11-19T09:15:01Z</time>
      </trkpt>
      <trkpt lat="49.16469" lon="1.94941">
        <ele>103.8</ele>
        <time>2022-11-19T09:15:07Z</time>
      </trkpt>
      <trkpt lat="49.16467" lon="1.94931">
        <ele>103.4</ele>
        <time>2022-11-19T09:15:12Z</time>
      </trkpt>
      <trkpt lat="49.16462" lon="1.94919">
        <ele>103.1</ele>
        <time>2022-11-19T09:15:17Z</time>
      </trkpt>
      <trkpt lat="49.16459" lon="1.94909">
        <ele>103</ele>
        <time>2022-11-19T09:15:22Z</time>
      </trkpt>
      <trkpt lat="49.16456" lon="1.94896">
        <ele>103</ele>
        <time>2022-11-19T09:15:28Z</time>
      </trkpt>
      <trkpt lat="49.16453" lon="1.94887">
        <ele>102.9</ele>
        <time>2022-11-19T09:15:33Z</time>
      </trkpt>
      <trkpt lat="49.16449" lon="1.94875">
        <ele>102.5</ele>
        <time>2022-11-19T09:15:38Z</time>
      </trkpt>
      <trkpt lat="49.16446" lon="1.94862">
        <ele>102</ele>
        <time>2022-11-19T09:15:44Z</time>
      </trkpt>
      <trkpt lat="49.16443" lon="1.94848">
        <ele>102</ele>
        <time>2022-11-19T09:15:50Z</time>
      </trkpt>
      <trkpt lat="49.16439" lon="1.94838">
        <ele>101.8</ele>
        <time>2022-11-19T09:15:55Z</time>
      </trkpt>
      <trkpt lat="49.16437" lon="1.94828">
        <ele>101.6</ele>
        <time>2022-11-19T09:16:00Z</time>
      </trkpt>
      <trkpt lat="49.16432" lon="1.94814">
        <ele>101.2</ele>
        <time>2022-11-19T09:16:06Z</time>
      </trkpt>
      <trkpt lat="49.16428" lon="1.94803">
        <ele>100.9</ele>
        <time>2022-11-19T09:16:11Z</time>
      </trkpt>
      <trkpt lat="49.16425" lon="1.94793">
        <ele>100.7</ele>
        <time>2022-11-19T09:16:16Z</time>
      </trkpt>
      <trkpt lat="49.1642" lon="1.94781">
        <ele>100.2</ele>
        <time>2022-11-19T09:16:22Z</time>
      </trkpt>
      <trkpt lat="49.16416" lon="1.94769">
        <ele>99.7</ele>
        <time>2022-11-19T09:16:28Z</time>
      </trkpt>
      <trkpt lat="49.16416" lon="1.94755">
        <ele>99.1</ele>
        <time>2022-11-19T09:16:33Z</time>
      </trkpt>
      <trkpt lat="49.16416" lon="1.94743">
        <ele>98.7</ele>
        <time>2022-11-19T09:16:38Z</time>
      </trkpt>
      <trkpt lat="49.16415" lon="1.9473">
        <ele>98.3</ele>
        <time>2022-11-19T09:16:44Z</time>
      </trkpt>
      <trkpt lat="49.16416" lon="1.94719">
        <ele>98</ele>
        <time>2022-11-19T09:16:50Z</time>
      </trkpt>
      <trkpt lat="49.16415" lon="1.94709">
        <ele>98</ele>
        <time>2022-11-19T09:16:55Z</time>
      </trkpt>
      <trkpt lat="49.16417" lon="1.94698">
        <ele>98</ele>
        <time>2022-11-19T09:17:00Z</time>
      </trkpt>
      <trkpt lat="49.16423" lon="1.94689">
        <ele>98</ele>
        <time>2022-11-19T09:17:06Z</time>
      </trkpt>
      <trkpt lat="49.16428" lon="1.94678">
        <ele>97.8</ele>
        <time>2022-11-19T09:17:12Z</time>
      </trkpt>
      <trkpt lat="49.16433" lon="1.94667">
        <ele>97.6</ele>
        <time>2022-11-19T09:17:18Z</time>
      </trkpt>
      <trkpt lat="49.16438" lon="1.94656">
        <ele>97.8</ele>
        <time>2022-11-19T09:17:24Z</time>
      </trkpt>
      <trkpt lat="49.16441" lon="1.94644">
        <ele>97.9</ele>
        <time>2022-11-19T09:17:30Z</time>
      </trkpt>
      <trkpt lat="49.16444" lon="1.94634">
        <ele>98</ele>
        <time>2022-11-19T09:17:35Z</time>
      </trkpt>
      <trkpt lat="49.16447" lon="1.94622">
        <ele>98.1</ele>
        <time>2022-11-19T09:17:41Z</time>
      </trkpt>
      <trkpt lat="49.16451" lon="1.94609">
        <ele>98.2</ele>
        <time>2022-11-19T09:17:46Z</time>
      </trkpt>
      <trkpt lat="49.16456" lon="1.94596">
        <ele>97.9</ele>
        <time>2022-11-19T09:17:52Z</time>
      </trkpt>
      <trkpt lat="49.1646" lon="1.94585">
        <ele>97.6</ele>
        <time>2022-11-19T09:17:57Z</time>
      </trkpt>
      <trkpt lat="49.16465" lon="1.94574">
        <ele>97.4</ele>
        <time>2022-11-19T09:18:02Z</time>
      </trkpt>
      <trkpt lat="49.16469" lon="1.94563">
        <ele>97.2</ele>
        <time>2022-11-19T09:18:07Z</time>
      </trkpt>
      <trkpt lat="49.16473" lon="1.94553">
        <ele>96.9</ele>
        <time>2022-11-19T09:18:12Z</time>
      </trkpt>
      <trkpt lat="49.16477" lon="1.94541">
        <ele>96.6</ele>
        <time>2022-11-19T09:18:18Z</time>
      </trkpt>
      <trkpt lat="49.1648" lon="1.94531">
        <ele>96.4</ele>
        <time>2022-11-19T09:18:23Z</time>
      </trkpt>
      <trkpt lat="49.16485" lon="1.94519">
        <ele>96.1</ele>
        <time>2022-11-19T09:18:29Z</time>
      </trkpt>
      <trkpt lat="49.16488" lon="1.94509">
        <ele>95.9</ele>
        <time>2022-11-19T09:18:34Z</time>
      </trkpt>
      <trkpt lat="49.16492" lon="1.94497">
        <ele>95.6</ele>
        <time>2022-11-19T09:18:40Z</time>
      </trkpt>
      <trkpt lat="49.16496" lon="1.94486">
        <ele>95.4</ele>
        <time>2022-11-19T09:18:46Z</time>
      </trkpt>
      <trkpt lat="49.16501" lon="1.94476">
        <ele>95.2</ele>
        <time>2022-11-19T09:18:51Z</time>
      </trkpt>
      <trkpt lat="49.16505" lon="1.94464">
        <ele>94.9</ele>
        <time>2022-11-19T09:18:57Z</time>
      </trkpt>
      <trkpt lat="49.16508" lon="1.94454">
        <ele>94.6</ele>
        <time>2022-11-19T09:19:02Z</time>
      </trkpt>
      <trkpt lat="49.16512" lon="1.94443">
        <ele>94.4</ele>
        <time>2022-11-19T09:19:07Z</time>
      </trkpt>
      <trkpt lat="49.16516" lon="1.94429">
        <ele>94.6</ele>
        <time>2022-11-19T09:19:13Z</time>
      </trkpt>
      <trkpt lat="49.1652" lon="1.94418">
        <ele>94.7</ele>
        <time>2022-11-19T09:19:18Z</time>
      </trkpt>
      <trkpt lat="49.16525" lon="1.94404">
        <ele>94.4</ele>
        <time>2022-11-19T09:19:24Z</time>
      </trkpt>
      <trkpt lat="49.16528" lon="1.94394">
        <ele>94.2</ele>
        <time>2022-11-19T09:19:29Z</time>
      </trkpt>
      <trkpt lat="49.16531" lon="1.94383">
        <ele>94</ele>
        <time>2022-11-19T09:19:35Z</time>
      </trkpt>
      <trkpt lat="49.16534" lon="1.94374">
        <ele>93.9</ele>
        <time>2022-11-19T09:19:40Z</time>
      </trkpt>
      <trkpt lat="49.16539" lon="1.94365">
        <ele>93.6</ele>
        <time>2022-11-19T09:19:46Z</time>
      </trkpt>
      <trkpt lat="49.16543" lon="1.94356">
        <ele>93.4</ele>
        <time>2022-11-19T09:19:51Z</time>
      </trkpt>
      <trkpt lat="49.16547" lon="1.94347">
        <ele>93.2</ele>
        <time>2022-11-19T09:19:56Z</time>
      </trkpt>
      <trkpt lat="49.16548" lon="1.94335">
        <ele>93</ele>
        <time>2022-11-19T09:20:02Z</time>
      </trkpt>
      <trkpt lat="49.16545" lon="1.94323">
        <ele>92.9</ele>
        <time>2022-11-19T09:20:07Z</time>
      </trkpt>
      <trkpt lat="49.1654" lon="1.94309">
        <ele>92.5</ele>
        <time>2022-11-19T09:20:12Z</time>
      </trkpt>
      <trkpt lat="49.16534" lon="1.94295">
        <ele>92.2</ele>
        <time>2022-11-19T09:20:18Z</time>
      </trkpt>
      <trkpt lat="49.16529" lon="1.94285">
        <ele>92</ele>
        <time>2022-11-19T09:20:23Z</time>
      </trkpt>
      <trkpt lat="49.16524" lon="1.94273">
        <ele>91.9</ele>
        <time>2022-11-19T09:20:29Z</time>
      </trkpt>
      <trkpt lat="49.16524" lon="1.9426">
        <ele>91.9</ele>
        <time>2022-11-19T09:20:35Z</time>
      </trkpt>
      <trkpt lat="49.16523" lon="1.94251">
        <ele>91.8</ele>
        <time>2022-11-19T09:20:41Z</time>
      </trkpt>
      <trkpt lat="49.16522" lon="1.94239">
        <ele>91.4</ele>
        <time>2022-11-19T09:20:47Z</time>
      </trkpt>
      <trkpt lat="49.16522" lon="1.94226">
        <ele>90.9</ele>
        <time>2022-11-19T09:20:52Z</time>
      </trkpt>
      <trkpt lat="49.16523" lon="1.94213">
        <ele>90.8</ele>
        <time>2022-11-19T09:20:57Z</time>
      </trkpt>
      <trkpt lat="49.16525" lon="1.94197">
        <ele>90.9</ele>
        <time>2022-11-19T09:21:03Z</time>
      </trkpt>
      <trkpt lat="49.16526" lon="1.94182">
        <ele>90.5</ele>
        <time>2022-11-19T09:21:09Z</time>
      </trkpt>
      <trkpt lat="49.16528" lon="1.94173">
        <ele>90.2</ele>
        <time>2022-11-19T09:21:14Z</time>
      </trkpt>
      <trkpt lat="49.1653" lon="1.94162">
        <ele>90.1</ele>
        <time>2022-11-19T09:21:20Z</time>
      </trkpt>
      <trkpt lat="49.16532" lon="1.94148">
        <ele>90</ele>
        <time>2022-11-19T09:21:25Z</time>
      </trkpt>
      <trkpt lat="49.16533" lon="1.94136">
        <ele>89.9</ele>
        <time>2022-11-19T09:21:31Z</time>
      </trkpt>
      <trkpt lat="49.16534" lon="1.9413">
        <ele>89.7</ele>
        <time>2022-11-19T09:21:36Z</time>
      </trkpt>
      <trkpt lat="49.16535" lon="1.94117">
        <ele>89.4</ele>
        <time>2022-11-19T09:21:42Z</time>
      </trkpt>
      <trkpt lat="49.16537" lon="1.94104">
        <ele>89.2</ele>
        <time>2022-11-19T09:21:47Z</time>
      </trkpt>
      <trkpt lat="49.16536" lon="1.94091">
        <ele>89.1</ele>
        <time>2022-11-19T09:21:52Z</time>
      </trkpt>
      <trkpt lat="49.16528" lon="1.94084">
        <ele>89</ele>
        <time>2022-11-19T09:21:58Z</time>
      </trkpt>
      <trkpt lat="49.16518" lon="1.9408">
        <ele>88.5</ele>
        <time>2022-11-19T09:22:04Z</time>
      </trkpt>
      <trkpt lat="49.16511" lon="1.94077">
        <ele>88.2</ele>
        <time>2022-11-19T09:22:09Z</time>
      </trkpt>
      <trkpt lat="49.16502" lon="1.94074">
        <ele>87.8</ele>
        <time>2022-11-19T09:22:15Z</time>
      </trkpt>
      <trkpt lat="49.16495" lon="1.94072">
        <ele>87.5</ele>
        <time>2022-11-19T09:22:20Z</time>
      </trkpt>
      <trkpt lat="49.16487" lon="1.9407">
        <ele>87.3</ele>
        <time>2022-11-19T09:22:26Z</time>
      </trkpt>
      <trkpt lat="49.16479" lon="1.94068">
        <ele>87.1</ele>
        <time>2022-11-19T09:22:31Z</time>
      </trkpt>
      <trkpt lat="49.16472" lon="1.94066">
        <ele>87</ele>
        <time>2022-11-19T09:22:36Z</time>
      </trkpt>
      <trkpt lat="49.16463" lon="1.94062">
        <ele>86.9</ele>
        <time>2022-11-19T09:22:42Z</time>
      </trkpt>
      <trkpt lat="49.16451" lon="1.94059">
        <ele>86.9</ele>
        <time>2022-11-19T09:22:48Z</time>
      </trkpt>
      <trkpt lat="49.16443" lon="1.94056">
        <ele>87</ele>
        <time>2022-11-19T09:22:53Z</time>
      </trkpt>
      <trkpt lat="49.16436" lon="1.9405">
        <ele>86.7</ele>
        <time>2022-11-19T09:22:58Z</time>
      </trkpt>
      <trkpt lat="49.16428" lon="1.94042">
        <ele>86.6</ele>
        <time>2022-11-19T09:23:04Z</time>
      </trkpt>
      <trkpt lat="49.16422" lon="1.94037">
        <ele>86.7</ele>
        <time>2022-11-19T09:23:10Z</time>
      </trkpt>
      <trkpt lat="49.16415" lon="1.94029">
        <ele>87.1</ele>
        <time>2022-11-19T09:23:16Z</time>
      </trkpt>
      <trkpt lat="49.1641" lon="1.94022">
        <ele>87.1</ele>
        <time>2022-11-19T09:23:21Z</time>
      </trkpt>
      <trkpt lat="49.16406" lon="1.94009">
        <ele>87</ele>
        <time>2022-11-19T09:23:27Z</time>
      </trkpt>
      <trkpt lat="49.16406" lon="1.93998">
        <ele>86.7</ele>
        <time>2022-11-19T09:23:33Z</time>
      </trkpt>
      <trkpt lat="49.16405" lon="1.93986">
        <ele>86.3</ele>
        <time>2022-11-19T09:23:39Z</time>
      </trkpt>
      <trkpt lat="49.16403" lon="1.9397">
        <ele>85.9</ele>
        <time>2022-11-19T09:23:45Z</time>
      </trkpt>
      <trkpt lat="49.16398" lon="1.93957">
        <ele>85.8</ele>
        <time>2022-11-19T09:23:51Z</time>
      </trkpt>
      <trkpt lat="49.16393" lon="1.93947">
        <ele>85.8</ele>
        <time>2022-11-19T09:23:56Z</time>
      </trkpt>
      <trkpt lat="49.16389" lon="1.93938">
        <ele>85.5</ele>
        <time>2022-11-19T09:24:02Z</time>
      </trkpt>
      <trkpt lat="49.16385" lon="1.9393">
        <ele>85</ele>
        <time>2022-11-19T09:24:07Z</time>
      </trkpt>
      <trkpt lat="49.16377" lon="1.93921">
        <ele>84.7</ele>
        <time>2022-11-19T09:24:13Z</time>
      </trkpt>
      <trkpt lat="49.16371" lon="1.93916">
        <ele>84.5</ele>
        <time>2022-11-19T09:24:18Z</time>
      </trkpt>
      <trkpt lat="49.16363" lon="1.9391">
        <ele>84</ele>
        <time>2022-11-19T09:24:24Z</time>
      </trkpt>
      <trkpt lat="49.16355" lon="1.93903">
        <ele>82.9</ele>
        <time>2022-11-19T09:24:30Z</time>
      </trkpt>
      <trkpt lat="49.16346" lon="1.939">
        <ele>82.3</ele>
        <time>2022-11-19T09:24:36Z</time>
      </trkpt>
      <trkpt lat="49.16336" lon="1.93899">
        <ele>82.2</ele>
        <time>2022-11-19T09:24:42Z</time>
      </trkpt>
      <trkpt lat="49.16328" lon="1.93899">
        <ele>81.6</ele>
        <time>2022-11-19T09:24:48Z</time>
      </trkpt>
      <trkpt lat="49.16319" lon="1.93903">
        <ele>81.3</ele>
        <time>2022-11-19T09:24:54Z</time>
      </trkpt>
      <trkpt lat="49.16311" lon="1.93904">
        <ele>80.7</ele>
        <time>2022-11-19T09:24:59Z</time>
      </trkpt>
      <trkpt lat="49.16304" lon="1.93907">
        <ele>80.4</ele>
        <time>2022-11-19T09:25:05Z</time>
      </trkpt>
      <trkpt lat="49.16296" lon="1.93909">
        <ele>79.7</ele>
        <time>2022-11-19T09:25:11Z</time>
      </trkpt>
      <trkpt lat="49.16287" lon="1.93912">
        <ele>79.2</ele>
        <time>2022-11-19T09:25:17Z</time>
      </trkpt>
      <trkpt lat="49.16277" lon="1.9392">
        <ele>79.2</ele>
        <time>2022-11-19T09:25:23Z</time>
      </trkpt>
      <trkpt lat="49.16271" lon="1.93924">
        <ele>78.2</ele>
        <time>2022-11-19T09:25:28Z</time>
      </trkpt>
      <trkpt lat="49.16263" lon="1.93931">
        <ele>77.5</ele>
        <time>2022-11-19T09:25:34Z</time>
      </trkpt>
      <trkpt lat="49.16257" lon="1.9394">
        <ele>77.6</ele>
        <time>2022-11-19T09:25:39Z</time>
      </trkpt>
      <trkpt lat="49.16252" lon="1.93951">
        <ele>78.4</ele>
        <time>2022-11-19T09:25:45Z</time>
      </trkpt>
      <trkpt lat="49.16248" lon="1.93961">
        <ele>78.8</ele>
        <time>2022-11-19T09:25:50Z</time>
      </trkpt>
      <trkpt lat="49.16242" lon="1.93969">
        <ele>78.2</ele>
        <time>2022-11-19T09:25:56Z</time>
      </trkpt>
      <trkpt lat="49.16236" lon="1.93979">
        <ele>78.1</ele>
        <time>2022-11-19T09:26:01Z</time>
      </trkpt>
      <trkpt lat="49.16229" lon="1.93985">
        <ele>77.8</ele>
        <time>2022-11-19T09:26:06Z</time>
      </trkpt>
      <trkpt lat="49.16222" lon="1.93987">
        <ele>76.7</ele>
        <time>2022-11-19T09:26:11Z</time>
      </trkpt>
      <trkpt lat="49.16213" lon="1.93988">
        <ele>76.1</ele>
        <time>2022-11-19T09:26:17Z</time>
      </trkpt>
      <trkpt lat="49.16202" lon="1.93986">
        <ele>74.7</ele>
        <time>2022-11-19T09:26:23Z</time>
      </trkpt>
      <trkpt lat="49.16192" lon="1.93987">
        <ele>73.9</ele>
        <time>2022-11-19T09:26:29Z</time>
      </trkpt>
      <trkpt lat="49.16185" lon="1.93986">
        <ele>73.5</ele>
        <time>2022-11-19T09:26:35Z</time>
      </trkpt>
      <trkpt lat="49.16174" lon="1.93984">
        <ele>72.7</ele>
        <time>2022-11-19T09:26:41Z</time>
      </trkpt>
      <trkpt lat="49.16166" lon="1.93984">
        <ele>72.2</ele>
        <time>2022-11-19T09:26:46Z</time>
      </trkpt>
      <trkpt lat="49.16155" lon="1.93986">
        <ele>71.3</ele>
        <time>2022-11-19T09:26:52Z</time>
      </trkpt>
      <trkpt lat="49.16145" lon="1.93994">
        <ele>71</ele>
        <time>2022-11-19T09:26:58Z</time>
      </trkpt>
      <trkpt lat="49.16135" lon="1.93999">
        <ele>70.6</ele>
        <time>2022-11-19T09:27:04Z</time>
      </trkpt>
      <trkpt lat="49.16127" lon="1.94">
        <ele>70.2</ele>
        <time>2022-11-19T09:27:09Z</time>
      </trkpt>
      <trkpt lat="49.16119" lon="1.94002">
        <ele>69.9</ele>
        <time>2022-11-19T09:27:14Z</time>
      </trkpt>
      <trkpt lat="49.16111" lon="1.94001">
        <ele>69.2</ele>
        <time>2022-11-19T09:27:20Z</time>
      </trkpt>
      <trkpt lat="49.16103" lon="1.93999">
        <ele>68.9</ele>
        <time>2022-11-19T09:27:25Z</time>
      </trkpt>
      <trkpt lat="49.16095" lon="1.93995">
        <ele>68.6</ele>
        <time>2022-11-19T09:27:30Z</time>
      </trkpt>
      <trkpt lat="49.16089" lon="1.93991">
        <ele>68.3</ele>
        <time>2022-11-19T09:27:36Z</time>
      </trkpt>
      <trkpt lat="49.16082" lon="1.93987">
        <ele>68.1</ele>
        <time>2022-11-19T09:27:42Z</time>
      </trkpt>
      <trkpt lat="49.16075" lon="1.93981">
        <ele>67.6</ele>
        <time>2022-11-19T09:27:48Z</time>
      </trkpt>
      <trkpt lat="49.16069" lon="1.93972">
        <ele>67</ele>
        <time>2022-11-19T09:27:54Z</time>
      </trkpt>
      <trkpt lat="49.16063" lon="1.93963">
        <ele>66.6</ele>
        <time>2022-11-19T09:27:59Z</time>
      </trkpt>
      <trkpt lat="49.16056" lon="1.93954">
        <ele>66.3</ele>
        <time>2022-11-19T09:28:05Z</time>
      </trkpt>
      <trkpt lat="49.16047" lon="1.93949">
        <ele>66.2</ele>
        <time>2022-11-19T09:28:11Z</time>
      </trkpt>
      <trkpt lat="49.16039" lon="1.9395">
        <ele>66.2</ele>
        <time>2022-11-19T09:28:17Z</time>
      </trkpt>
      <trkpt lat="49.16033" lon="1.93944">
        <ele>66</ele>
        <time>2022-11-19T09:28:23Z</time>
      </trkpt>
      <trkpt lat="49.16026" lon="1.93944">
        <ele>66</ele>
        <time>2022-11-19T09:28:28Z</time>
      </trkpt>
      <trkpt lat="49.1602" lon="1.9395">
        <ele>66.2</ele>
        <time>2022-11-19T09:28:34Z</time>
      </trkpt>
      <trkpt lat="49.16021" lon="1.93951">
        <ele>66.2</ele>
        <time>2022-11-19T09:28:39Z</time>
      </trkpt>
      <trkpt lat="49.16021" lon="1.93954">
        <ele>66.4</ele>
        <time>2022-11-19T09:28:45Z</time>
      </trkpt>
      <trkpt lat="49.1602" lon="1.93955">
        <ele>66.4</ele>
        <time>2022-11-19T09:28:51Z</time>
      </trkpt>
      <trkpt lat="49.1602" lon="1.93955">
        <ele>66.4</ele>
        <time>2022-11-19T09:28:57Z</time>
      </trkpt>
      <trkpt lat="49.1602" lon="1.93955">
        <ele>66.4</ele>
        <time>2022-11-19T09:29:03Z</time>
      </trkpt>
      <trkpt lat="49.1602" lon="1.93955">
        <ele>66.4</ele>
        <time>2022-11-19T09:29:09Z</time>
      </trkpt>
      <trkpt lat="49.1602" lon="1.93956">
        <ele>66.4</ele>
        <time>2022-11-19T09:29:15Z</time>
      </trkpt>
      <trkpt lat="49.16019" lon="1.93956">
        <ele>66.4</ele>
        <time>2022-11-19T09:29:20Z</time>
      </trkpt>
      <trkpt lat="49.16018" lon="1.93957">
        <ele>66.4</ele>
        <time>2022-11-19T09:29:26Z</time>
      </trkpt>
      <trkpt lat="49.16018" lon="1.93957">
        <ele>66.4</ele>
        <time>2022-11-19T09:29:32Z</time>
      </trkpt>
      <trkpt lat="49.16017" lon="1.93956">
        <ele>66.4</ele>
        <time>2022-11-19T09:29:38Z</time>
      </trkpt>
      <trkpt lat="49.16015" lon="1.93958">
        <ele>66.5</ele>
        <time>2022-11-19T09:29:43Z</time>
      </trkpt>
      <trkpt lat="49.16012" lon="1.93963">
        <ele>66.7</ele>
        <time>2022-11-19T09:29:49Z</time>
      </trkpt>
      <trkpt lat="49.16007" lon="1.93967">
        <ele>66.8</ele>
        <time>2022-11-19T09:29:55Z</time>
      </trkpt>
      <trkpt lat="49.16002" lon="1.93971">
        <ele>67</ele>
        <time>2022-11-19T09:30:00Z</time>
      </trkpt>
      <trkpt lat="49.15992" lon="1.93979">
        <ele>69.6</ele>
        <time>2022-11-19T09:30:06Z</time>
      </trkpt>
      <trkpt lat="49.15984" lon="1.93983">
        <ele>71.8</ele>
        <time>2022-11-19T09:30:11Z</time>
      </trkpt>
      <trkpt lat="49.15979" lon="1.93981">
        <ele>72.4</ele>
        <time>2022-11-19T09:30:16Z</time>
      </trkpt>
      <trkpt lat="49.15971" lon="1.93976">
        <ele>73</ele>
        <time>2022-11-19T09:30:22Z</time>
      </trkpt>
      <trkpt lat="49.15964" lon="1.93973">
        <ele>74</ele>
        <time>2022-11-19T09:30:27Z</time>
      </trkpt>
      <trkpt lat="49.15957" lon="1.93972">
        <ele>75.3</ele>
        <time>2022-11-19T09:30:32Z</time>
      </trkpt>
      <trkpt lat="49.15948" lon="1.93968">
        <ele>76.6</ele>
        <time>2022-11-19T09:30:38Z</time>
      </trkpt>
      <trkpt lat="49.1594" lon="1.9396">
        <ele>77.6</ele>
        <time>2022-11-19T09:30:43Z</time>
      </trkpt>
      <trkpt lat="49.1593" lon="1.93951">
        <ele>79</ele>
        <time>2022-11-19T09:30:49Z</time>
      </trkpt>
      <trkpt lat="49.15923" lon="1.93944">
        <ele>80.1</ele>
        <time>2022-11-19T09:30:55Z</time>
      </trkpt>
      <trkpt lat="49.15916" lon="1.93934">
        <ele>80.7</ele>
        <time>2022-11-19T09:31:01Z</time>
      </trkpt>
      <trkpt lat="49.1591" lon="1.93928">
        <ele>80.3</ele>
        <time>2022-11-19T09:31:06Z</time>
      </trkpt>
      <trkpt lat="49.15903" lon="1.93919">
        <ele>79.5</ele>
        <time>2022-11-19T09:31:12Z</time>
      </trkpt>
      <trkpt lat="49.15898" lon="1.93909">
        <ele>78.3</ele>
        <time>2022-11-19T09:31:17Z</time>
      </trkpt>
      <trkpt lat="49.15891" lon="1.93898">
        <ele>77.1</ele>
        <time>2022-11-19T09:31:23Z</time>
      </trkpt>
      <trkpt lat="49.15884" lon="1.93888">
        <ele>75.7</ele>
        <time>2022-11-19T09:31:29Z</time>
      </trkpt>
      <trkpt lat="49.15885" lon="1.93875">
        <ele>74.2</ele>
        <time>2022-11-19T09:31:35Z</time>
      </trkpt>
      <trkpt lat="49.15885" lon="1.93865">
        <ele>73.2</ele>
        <time>2022-11-19T09:31:40Z</time>
      </trkpt>
      <trkpt lat="49.15878" lon="1.93869">
        <ele>73.1</ele>
        <time>2022-11-19T09:31:46Z</time>
      </trkpt>
      <trkpt lat="49.15872" lon="1.93871">
        <ele>73</ele>
        <time>2022-11-19T09:31:51Z</time>
      </trkpt>
      <trkpt lat="49.15868" lon="1.93871">
        <ele>72.8</ele>
        <time>2022-11-19T09:31:57Z</time>
      </trkpt>
      <trkpt lat="49.15863" lon="1.93865">
        <ele>71.7</ele>
        <time>2022-11-19T09:32:03Z</time>
      </trkpt>
      <trkpt lat="49.15858" lon="1.9386">
        <ele>70.8</ele>
        <time>2022-11-19T09:32:09Z</time>
      </trkpt>
      <trkpt lat="49.15853" lon="1.93855">
        <ele>70</ele>
        <time>2022-11-19T09:32:14Z</time>
      </trkpt>
      <trkpt lat="49.15843" lon="1.93847">
        <ele>68.7</ele>
        <time>2022-11-19T09:32:20Z</time>
      </trkpt>
      <trkpt lat="49.15838" lon="1.93841">
        <ele>67.9</ele>
        <time>2022-11-19T09:32:25Z</time>
      </trkpt>
      <trkpt lat="49.1583" lon="1.93833">
        <ele>67.2</ele>
        <time>2022-11-19T09:32:31Z</time>
      </trkpt>
      <trkpt lat="49.15824" lon="1.93824">
        <ele>66.8</ele>
        <time>2022-11-19T09:32:37Z</time>
      </trkpt>
      <trkpt lat="49.15822" lon="1.93809">
        <ele>65.3</ele>
        <time>2022-11-19T09:32:43Z</time>
      </trkpt>
      <trkpt lat="49.15824" lon="1.93795">
        <ele>64.5</ele>
        <time>2022-11-19T09:32:48Z</time>
      </trkpt>
      <trkpt lat="49.15829" lon="1.93787">
        <ele>64.2</ele>
        <time>2022-11-19T09:32:53Z</time>
      </trkpt>
      <trkpt lat="49.15835" lon="1.93779">
        <ele>64</ele>
        <time>2022-11-19T09:32:59Z</time>
      </trkpt>
      <trkpt lat="49.15842" lon="1.93771">
        <ele>63.5</ele>
        <time>2022-11-19T09:33:05Z</time>
      </trkpt>
      <trkpt lat="49.15847" lon="1.93763">
        <ele>63.2</ele>
        <time>2022-11-19T09:33:10Z</time>
      </trkpt>
      <trkpt lat="49.15853" lon="1.93755">
        <ele>63.1</ele>
        <time>2022-11-19T09:33:16Z</time>
      </trkpt>
      <trkpt lat="49.1586" lon="1.93748">
        <ele>63</ele>
        <time>2022-11-19T09:33:21Z</time>
      </trkpt>
      <trkpt lat="49.15868" lon="1.93733">
        <ele>63</ele>
        <time>2022-11-19T09:33:27Z</time>
      </trkpt>
      <trkpt lat="49.15872" lon="1.93727">
        <ele>63</ele>
        <time>2022-11-19T09:33:32Z</time>
      </trkpt>
      <trkpt lat="49.15877" lon="1.93718">
        <ele>63</ele>
        <time>2022-11-19T09:33:37Z</time>
      </trkpt>
      <trkpt lat="49.15884" lon="1.9371">
        <ele>63</ele>
        <time>2022-11-19T09:33:43Z</time>
      </trkpt>
      <trkpt lat="49.15893" lon="1.93703">
        <ele>63</ele>
        <time>2022-11-19T09:33:48Z</time>
      </trkpt>
      <trkpt lat="49.15896" lon="1.93686">
        <ele>62.8</ele>
        <time>2022-11-19T09:33:54Z</time>
      </trkpt>
      <trkpt lat="49.15895" lon="1.93673">
        <ele>62.4</ele>
        <time>2022-11-19T09:34:00Z</time>
      </trkpt>
      <trkpt lat="49.1589" lon="1.93664">
        <ele>62.3</ele>
        <time>2022-11-19T09:34:05Z</time>
      </trkpt>
      <trkpt lat="49.15887" lon="1.93653">
        <ele>63</ele>
        <time>2022-11-19T09:34:10Z</time>
      </trkpt>
      <trkpt lat="49.15887" lon="1.93645">
        <ele>63.6</ele>
        <time>2022-11-19T09:34:15Z</time>
      </trkpt>
      <trkpt lat="49.15883" lon="1.93633">
        <ele>63.6</ele>
        <time>2022-11-19T09:34:21Z</time>
      </trkpt>
      <trkpt lat="49.15872" lon="1.93628">
        <ele>63.2</ele>
        <time>2022-11-19T09:34:27Z</time>
      </trkpt>
      <trkpt lat="49.15862" lon="1.93625">
        <ele>63</ele>
        <time>2022-11-19T09:34:32Z</time>
      </trkpt>
      <trkpt lat="49.15848" lon="1.93628">
        <ele>62.9</ele>
        <time>2022-11-19T09:34:38Z</time>
      </trkpt>
      <trkpt lat="49.15841" lon="1.93629">
        <ele>62.8</ele>
        <time>2022-11-19T09:34:43Z</time>
      </trkpt>
      <trkpt lat="49.15835" lon="1.93631">
        <ele>62.8</ele>
        <time>2022-11-19T09:34:48Z</time>
      </trkpt>
      <trkpt lat="49.15826" lon="1.93634">
        <ele>62.8</ele>
        <time>2022-11-19T09:34:54Z</time>
      </trkpt>
      <trkpt lat="49.15819" lon="1.93635">
        <ele>62.9</ele>
        <time>2022-11-19T09:34:59Z</time>
      </trkpt>
      <trkpt lat="49.15811" lon="1.93637">
        <ele>62.9</ele>
        <time>2022-11-19T09:35:04Z</time>
      </trkpt>
      <trkpt lat="49.15801" lon="1.9364">
        <ele>62.9</ele>
        <time>2022-11-19T09:35:09Z</time>
      </trkpt>
      <trkpt lat="49.15791" lon="1.93642">
        <ele>62.5</ele>
        <time>2022-11-19T09:35:15Z</time>
      </trkpt>
      <trkpt lat="49.1578" lon="1.93642">
        <ele>62.2</ele>
        <time>2022-11-19T09:35:21Z</time>
      </trkpt>
      <trkpt lat="49.15771" lon="1.93648">
        <ele>62.1</ele>
        <time>2022-11-19T09:35:27Z</time>
      </trkpt>
      <trkpt lat="49.15759" lon="1.9365">
        <ele>61.7</ele>
        <time>2022-11-19T09:35:33Z</time>
      </trkpt>
      <trkpt lat="49.15751" lon="1.93653">
        <ele>61.6</ele>
        <time>2022-11-19T09:35:38Z</time>
      </trkpt>
      <trkpt lat="49.15741" lon="1.93661">
        <ele>61.8</ele>
        <time>2022-11-19T09:35:44Z</time>
      </trkpt>
      <trkpt lat="49.15732" lon="1.93664">
        <ele>61.9</ele>
        <time>2022-11-19T09:35:50Z</time>
      </trkpt>
      <trkpt lat="49.15723" lon="1.93668">
        <ele>62</ele>
        <time>2022-11-19T09:35:55Z</time>
      </trkpt>
      <trkpt lat="49.15714" lon="1.93672">
        <ele>61.8</ele>
        <time>2022-11-19T09:36:00Z</time>
      </trkpt>
      <trkpt lat="49.15705" lon="1.93676">
        <ele>61.6</ele>
        <time>2022-11-19T09:36:06Z</time>
      </trkpt>
      <trkpt lat="49.15695" lon="1.93682">
        <ele>61.5</ele>
        <time>2022-11-19T09:36:12Z</time>
      </trkpt>
      <trkpt lat="49.15686" lon="1.93688">
        <ele>61.8</ele>
        <time>2022-11-19T09:36:17Z</time>
      </trkpt>
      <trkpt lat="49.15677" lon="1.93692">
        <ele>61.9</ele>
        <time>2022-11-19T09:36:23Z</time>
      </trkpt>
      <trkpt lat="49.15668" lon="1.93695">
        <ele>62</ele>
        <time>2022-11-19T09:36:29Z</time>
      </trkpt>
      <trkpt lat="49.15659" lon="1.937">
        <ele>61.8</ele>
        <time>2022-11-19T09:36:34Z</time>
      </trkpt>
      <trkpt lat="49.15651" lon="1.93707">
        <ele>61.7</ele>
        <time>2022-11-19T09:36:39Z</time>
      </trkpt>
      <trkpt lat="49.15644" lon="1.93714">
        <ele>61.8</ele>
        <time>2022-11-19T09:36:45Z</time>
      </trkpt>
      <trkpt lat="49.15634" lon="1.93721">
        <ele>61.8</ele>
        <time>2022-11-19T09:36:51Z</time>
      </trkpt>
      <trkpt lat="49.15623" lon="1.93728">
        <ele>61.4</ele>
        <time>2022-11-19T09:36:57Z</time>
      </trkpt>
      <trkpt lat="49.15615" lon="1.93734">
        <ele>61.4</ele>
        <time>2022-11-19T09:37:02Z</time>
      </trkpt>
      <trkpt lat="49.15607" lon="1.93739">
        <ele>61.5</ele>
        <time>2022-11-19T09:37:07Z</time>
      </trkpt>
      <trkpt lat="49.15599" lon="1.93749">
        <ele>61.5</ele>
        <time>2022-11-19T09:37:13Z</time>
      </trkpt>
      <trkpt lat="49.15591" lon="1.93757">
        <ele>61.4</ele>
        <time>2022-11-19T09:37:19Z</time>
      </trkpt>
      <trkpt lat="49.15584" lon="1.93762">
        <ele>61.4</ele>
        <time>2022-11-19T09:37:24Z</time>
      </trkpt>
      <trkpt lat="49.15575" lon="1.93766">
        <ele>61.4</ele>
        <time>2022-11-19T09:37:30Z</time>
      </trkpt>
      <trkpt lat="49.15566" lon="1.9377">
        <ele>61.3</ele>
        <time>2022-11-19T09:37:35Z</time>
      </trkpt>
      <trkpt lat="49.15558" lon="1.93779">
        <ele>61.1</ele>
        <time>2022-11-19T09:37:40Z</time>
      </trkpt>
      <trkpt lat="49.15551" lon="1.93789">
        <ele>61.2</ele>
        <time>2022-11-19T09:37:46Z</time>
      </trkpt>
      <trkpt lat="49.15543" lon="1.93797">
        <ele>61.2</ele>
        <time>2022-11-19T09:37:51Z</time>
      </trkpt>
      <trkpt lat="49.15536" lon="1.93805">
        <ele>61.3</ele>
        <time>2022-11-19T09:37:57Z</time>
      </trkpt>
      <trkpt lat="49.15528" lon="1.93816">
        <ele>61</ele>
        <time>2022-11-19T09:38:03Z</time>
      </trkpt>
      <trkpt lat="49.15521" lon="1.93824">
        <ele>60.8</ele>
        <time>2022-11-19T09:38:08Z</time>
      </trkpt>
      <trkpt lat="49.15514" lon="1.93831">
        <ele>60.5</ele>
        <time>2022-11-19T09:38:13Z</time>
      </trkpt>
      <trkpt lat="49.15506" lon="1.93836">
        <ele>60.3</ele>
        <time>2022-11-19T09:38:19Z</time>
      </trkpt>
      <trkpt lat="49.15499" lon="1.93842">
        <ele>60.3</ele>
        <time>2022-11-19T09:38:25Z</time>
      </trkpt>
      <trkpt lat="49.15491" lon="1.93854">
        <ele>60.5</ele>
        <time>2022-11-19T09:38:30Z</time>
      </trkpt>
      <trkpt lat="49.15481" lon="1.93862">
        <ele>60.3</ele>
        <time>2022-11-19T09:38:36Z</time>
      </trkpt>
      <trkpt lat="49.15472" lon="1.93868">
        <ele>60.2</ele>
        <time>2022-11-19T09:38:42Z</time>
      </trkpt>
      <trkpt lat="49.15466" lon="1.93874">
        <ele>60.4</ele>
        <time>2022-11-19T09:38:47Z</time>
      </trkpt>
      <trkpt lat="49.15458" lon="1.93879">
        <ele>60.3</ele>
        <time>2022-11-19T09:38:53Z</time>
      </trkpt>
      <trkpt lat="49.15452" lon="1.93885">
        <ele>60.2</ele>
        <time>2022-11-19T09:38:58Z</time>
      </trkpt>
      <trkpt lat="49.15442" lon="1.93894">
        <ele>60.2</ele>
        <time>2022-11-19T09:39:04Z</time>
      </trkpt>
      <trkpt lat="49.15432" lon="1.93901">
        <ele>60.2</ele>
        <time>2022-11-19T09:39:10Z</time>
      </trkpt>
      <trkpt lat="49.15424" lon="1.93907">
        <ele>60.2</ele>
        <time>2022-11-19T09:39:16Z</time>
      </trkpt>
      <trkpt lat="49.15418" lon="1.9391">
        <ele>60</ele>
        <time>2022-11-19T09:39:21Z</time>
      </trkpt>
      <trkpt lat="49.15409" lon="1.93916">
        <ele>60</ele>
        <time>2022-11-19T09:39:27Z</time>
      </trkpt>
      <trkpt lat="49.15401" lon="1.93923">
        <ele>60.1</ele>
        <time>2022-11-19T09:39:32Z</time>
      </trkpt>
      <trkpt lat="49.15393" lon="1.9393">
        <ele>60.4</ele>
        <time>2022-11-19T09:39:37Z</time>
      </trkpt>
      <trkpt lat="49.15384" lon="1.93939">
        <ele>60.7</ele>
        <time>2022-11-19T09:39:43Z</time>
      </trkpt>
      <trkpt lat="49.15376" lon="1.93942">
        <ele>60.5</ele>
        <time>2022-11-19T09:39:48Z</time>
      </trkpt>
      <trkpt lat="49.15367" lon="1.93945">
        <ele>60.2</ele>
        <time>2022-11-19T09:39:54Z</time>
      </trkpt>
      <trkpt lat="49.1536" lon="1.9395">
        <ele>60.2</ele>
        <time>2022-11-19T09:39:59Z</time>
      </trkpt>
      <trkpt lat="49.15349" lon="1.93955">
        <ele>60.2</ele>
        <time>2022-11-19T09:40:05Z</time>
      </trkpt>
      <trkpt lat="49.15342" lon="1.93957">
        <ele>60.1</ele>
        <time>2022-11-19T09:40:10Z</time>
      </trkpt>
      <trkpt lat="49.15334" lon="1.93962">
        <ele>60</ele>
        <time>2022-11-19T09:40:16Z</time>
      </trkpt>
      <trkpt lat="49.15326" lon="1.93964">
        <ele>60</ele>
        <time>2022-11-19T09:40:21Z</time>
      </trkpt>
      <trkpt lat="49.15322" lon="1.93967">
        <ele>60</ele>
        <time>2022-11-19T09:40:26Z</time>
      </trkpt>
      <trkpt lat="49.15318" lon="1.9396">
        <ele>60</ele>
        <time>2022-11-19T09:40:32Z</time>
      </trkpt>
      <trkpt lat="49.15315" lon="1.93951">
        <ele>60</ele>
        <time>2022-11-19T09:40:38Z</time>
      </trkpt>
      <trkpt lat="49.1531" lon="1.93945">
        <ele>60</ele>
        <time>2022-11-19T09:40:44Z</time>
      </trkpt>
      <trkpt lat="49.15307" lon="1.93928">
        <ele>60</ele>
        <time>2022-11-19T09:40:50Z</time>
      </trkpt>
      <trkpt lat="49.15303" lon="1.93912">
        <ele>60.3</ele>
        <time>2022-11-19T09:40:56Z</time>
      </trkpt>
      <trkpt lat="49.15299" lon="1.93898">
        <ele>60.9</ele>
        <time>2022-11-19T09:41:02Z</time>
      </trkpt>
      <trkpt lat="49.15296" lon="1.9389">
        <ele>61.3</ele>
        <time>2022-11-19T09:41:07Z</time>
      </trkpt>
      <trkpt lat="49.15296" lon="1.93876">
        <ele>62.1</ele>
        <time>2022-11-19T09:41:13Z</time>
      </trkpt>
      <trkpt lat="49.15293" lon="1.93866">
        <ele>62.7</ele>
        <time>2022-11-19T09:41:18Z</time>
      </trkpt>
      <trkpt lat="49.15289" lon="1.93856">
        <ele>63.2</ele>
        <time>2022-11-19T09:41:24Z</time>
      </trkpt>
      <trkpt lat="49.15284" lon="1.93846">
        <ele>63.8</ele>
        <time>2022-11-19T09:41:29Z</time>
      </trkpt>
      <trkpt lat="49.1528" lon="1.93838">
        <ele>64.6</ele>
        <time>2022-11-19T09:41:35Z</time>
      </trkpt>
      <trkpt lat="49.15279" lon="1.93836">
        <ele>64.8</ele>
        <time>2022-11-19T09:41:41Z</time>
      </trkpt>
      <trkpt lat="49.15279" lon="1.93835">
        <ele>64.8</ele>
        <time>2022-11-19T09:41:47Z</time>
      </trkpt>
      <trkpt lat="49.15281" lon="1.93835">
        <ele>64.7</ele>
        <time>2022-11-19T09:41:52Z</time>
      </trkpt>
      <trkpt lat="49.15282" lon="1.93835">
        <ele>64.6</ele>
        <time>2022-11-19T09:41:58Z</time>
      </trkpt>
      <trkpt lat="49.15283" lon="1.93837">
        <ele>64.4</ele>
        <time>2022-11-19T09:42:04Z</time>
      </trkpt>
      <trkpt lat="49.15281" lon="1.93839">
        <ele>64.4</ele>
        <time>2022-11-19T09:42:10Z</time>
      </trkpt>
      <trkpt lat="49.15281" lon="1.93839">
        <ele>64.4</ele>
        <time>2022-11-19T09:42:16Z</time>
      </trkpt>
      <trkpt lat="49.15281" lon="1.93839">
        <ele>64.4</ele>
        <time>2022-11-19T09:42:22Z</time>
      </trkpt>
      <trkpt lat="49.1528" lon="1.93839">
        <ele>64.4</ele>
        <time>2022-11-19T09:42:28Z</time>
      </trkpt>
      <trkpt lat="49.1528" lon="1.9384">
        <ele>64.4</ele>
        <time>2022-11-19T09:42:33Z</time>
      </trkpt>
      <trkpt lat="49.15279" lon="1.93839">
        <ele>64.5</ele>
        <time>2022-11-19T09:42:39Z</time>
      </trkpt>
      <trkpt lat="49.15278" lon="1.93836">
        <ele>64.8</ele>
        <time>2022-11-19T09:42:44Z</time>
      </trkpt>
      <trkpt lat="49.1528" lon="1.93836">
        <ele>64.7</ele>
        <time>2022-11-19T09:42:50Z</time>
      </trkpt>
      <trkpt lat="49.1528" lon="1.93836">
        <ele>64.7</ele>
        <time>2022-11-19T09:42:55Z</time>
      </trkpt>
      <trkpt lat="49.15279" lon="1.93836">
        <ele>64.7</ele>
        <time>2022-11-19T09:43:01Z</time>
      </trkpt>
      <trkpt lat="49.15279" lon="1.93836">
        <ele>64.8</ele>
        <time>2022-11-19T09:43:07Z</time>
      </trkpt>
      <trkpt lat="49.15281" lon="1.93831">
        <ele>65</ele>
        <time>2022-11-19T09:43:13Z</time>
      </trkpt>
      <trkpt lat="49.15287" lon="1.93823">
        <ele>65.2</ele>
        <time>2022-11-19T09:43:18Z</time>
      </trkpt>
      <trkpt lat="49.15292" lon="1.93814">
        <ele>65.4</ele>
        <time>2022-11-19T09:43:24Z</time>
      </trkpt>
      <trkpt lat="49.15296" lon="1.93806">
        <ele>65.3</ele>
        <time>2022-11-19T09:43:29Z</time>
      </trkpt>
      <trkpt lat="49.15301" lon="1.93795">
        <ele>65.2</ele>
        <time>2022-11-19T09:43:35Z</time>
      </trkpt>
      <trkpt lat="49.15309" lon="1.93784">
        <ele>64.5</ele>
        <time>2022-11-19T09:43:41Z</time>
      </trkpt>
      <trkpt lat="49.15314" lon="1.93774">
        <ele>64.6</ele>
        <time>2022-11-19T09:43:46Z</time>
      </trkpt>
      <trkpt lat="49.15319" lon="1.93764">
        <ele>65.3</ele>
        <time>2022-11-19T09:43:51Z</time>
      </trkpt>
      <trkpt lat="49.15324" lon="1.93754">
        <ele>65.5</ele>
        <time>2022-11-19T09:43:56Z</time>
      </trkpt>
      <trkpt lat="49.15331" lon="1.93743">
        <ele>65.1</ele>
        <time>2022-11-19T09:44:02Z</time>
      </trkpt>
      <trkpt lat="49.15336" lon="1.93731">
        <ele>65.1</ele>
        <time>2022-11-19T09:44:08Z</time>
      </trkpt>
      <trkpt lat="49.1534" lon="1.93722">
        <ele>65.1</ele>
        <time>2022-11-19T09:44:13Z</time>
      </trkpt>
      <trkpt lat="49.15343" lon="1.93711">
        <ele>65.6</ele>
        <time>2022-11-19T09:44:19Z</time>
      </trkpt>
      <trkpt lat="49.1535" lon="1.93698">
        <ele>65.7</ele>
        <time>2022-11-19T09:44:25Z</time>
      </trkpt>
      <trkpt lat="49.15355" lon="1.93688">
        <ele>65.7</ele>
        <time>2022-11-19T09:44:30Z</time>
      </trkpt>
      <trkpt lat="49.15361" lon="1.93676">
        <ele>65.4</ele>
        <time>2022-11-19T09:44:35Z</time>
      </trkpt>
      <trkpt lat="49.15364" lon="1.93665">
        <ele>65.8</ele>
        <time>2022-11-19T09:44:40Z</time>
      </trkpt>
      <trkpt lat="49.15369" lon="1.93655">
        <ele>66.6</ele>
        <time>2022-11-19T09:44:46Z</time>
      </trkpt>
      <trkpt lat="49.15376" lon="1.93646">
        <ele>66.6</ele>
        <time>2022-11-19T09:44:52Z</time>
      </trkpt>
      <trkpt lat="49.15382" lon="1.93636">
        <ele>66.8</ele>
        <time>2022-11-19T09:44:58Z</time>
      </trkpt>
      <trkpt lat="49.15386" lon="1.93629">
        <ele>67</ele>
        <time>2022-11-19T09:45:03Z</time>
      </trkpt>
      <trkpt lat="49.15394" lon="1.9362">
        <ele>67</ele>
        <time>2022-11-19T09:45:09Z</time>
      </trkpt>
      <trkpt lat="49.15401" lon="1.93608">
        <ele>67.3</ele>
        <time>2022-11-19T09:45:15Z</time>
      </trkpt>
      <trkpt lat="49.15407" lon="1.93597">
        <ele>68</ele>
        <time>2022-11-19T09:45:21Z</time>
      </trkpt>
      <trkpt lat="49.15414" lon="1.93587">
        <ele>68</ele>
        <time>2022-11-19T09:45:27Z</time>
      </trkpt>
      <trkpt lat="49.15421" lon="1.9358">
        <ele>67.8</ele>
        <time>2022-11-19T09:45:32Z</time>
      </trkpt>
      <trkpt lat="49.15428" lon="1.93573">
        <ele>67.7</ele>
        <time>2022-11-19T09:45:37Z</time>
      </trkpt>
      <trkpt lat="49.15434" lon="1.93566">
        <ele>67.2</ele>
        <time>2022-11-19T09:45:43Z</time>
      </trkpt>
      <trkpt lat="49.1544" lon="1.93555">
        <ele>67</ele>
        <time>2022-11-19T09:45:49Z</time>
      </trkpt>
      <trkpt lat="49.15447" lon="1.93548">
        <ele>66.9</ele>
        <time>2022-11-19T09:45:54Z</time>
      </trkpt>
      <trkpt lat="49.15454" lon="1.93539">
        <ele>67.3</ele>
        <time>2022-11-19T09:46:00Z</time>
      </trkpt>
      <trkpt lat="49.15461" lon="1.93531">
        <ele>67.3</ele>
        <time>2022-11-19T09:46:06Z</time>
      </trkpt>
      <trkpt lat="49.15469" lon="1.93523">
        <ele>67.2</ele>
        <time>2022-11-19T09:46:12Z</time>
      </trkpt>
      <trkpt lat="49.15475" lon="1.93517">
        <ele>67.3</ele>
        <time>2022-11-19T09:46:17Z</time>
      </trkpt>
      <trkpt lat="49.15482" lon="1.93509">
        <ele>67.7</ele>
        <time>2022-11-19T09:46:23Z</time>
      </trkpt>
      <trkpt lat="49.1549" lon="1.93503">
        <ele>67.8</ele>
        <time>2022-11-19T09:46:28Z</time>
      </trkpt>
      <trkpt lat="49.15498" lon="1.93494">
        <ele>68.1</ele>
        <time>2022-11-19T09:46:34Z</time>
      </trkpt>
      <trkpt lat="49.15505" lon="1.93486">
        <ele>68.5</ele>
        <time>2022-11-19T09:46:40Z</time>
      </trkpt>
      <trkpt lat="49.15512" lon="1.93479">
        <ele>68.9</ele>
        <time>2022-11-19T09:46:46Z</time>
      </trkpt>
      <trkpt lat="49.15521" lon="1.93471">
        <ele>68.9</ele>
        <time>2022-11-19T09:46:52Z</time>
      </trkpt>
      <trkpt lat="49.15527" lon="1.9347">
        <ele>68.6</ele>
        <time>2022-11-19T09:46:57Z</time>
      </trkpt>
      <trkpt lat="49.15536" lon="1.93467">
        <ele>68.3</ele>
        <time>2022-11-19T09:47:03Z</time>
      </trkpt>
      <trkpt lat="49.15546" lon="1.93463">
        <ele>68.1</ele>
        <time>2022-11-19T09:47:09Z</time>
      </trkpt>
      <trkpt lat="49.15553" lon="1.9346">
        <ele>67.9</ele>
        <time>2022-11-19T09:47:15Z</time>
      </trkpt>
      <trkpt lat="49.15562" lon="1.93457">
        <ele>68.1</ele>
        <time>2022-11-19T09:47:20Z</time>
      </trkpt>
      <trkpt lat="49.15573" lon="1.93453">
        <ele>68.3</ele>
        <time>2022-11-19T09:47:25Z</time>
      </trkpt>
      <trkpt lat="49.15586" lon="1.93451">
        <ele>68.3</ele>
        <time>2022-11-19T09:47:31Z</time>
      </trkpt>
      <trkpt lat="49.15597" lon="1.93448">
        <ele>68.5</ele>
        <time>2022-11-19T09:47:36Z</time>
      </trkpt>
      <trkpt lat="49.15606" lon="1.93446">
        <ele>68.7</ele>
        <time>2022-11-19T09:47:41Z</time>
      </trkpt>
      <trkpt lat="49.15615" lon="1.93445">
        <ele>68.8</ele>
        <time>2022-11-19T09:47:47Z</time>
      </trkpt>
      <trkpt lat="49.1562" lon="1.93445">
        <ele>68.6</ele>
        <time>2022-11-19T09:47:52Z</time>
      </trkpt>
      <trkpt lat="49.15628" lon="1.93444">
        <ele>68.5</ele>
        <time>2022-11-19T09:47:58Z</time>
      </trkpt>
      <trkpt lat="49.15639" lon="1.93443">
        <ele>68.2</ele>
        <time>2022-11-19T09:48:04Z</time>
      </trkpt>
      <trkpt lat="49.15648" lon="1.93443">
        <ele>68.2</ele>
        <time>2022-11-19T09:48:09Z</time>
      </trkpt>
      <trkpt lat="49.15658" lon="1.93443">
        <ele>68.1</ele>
        <time>2022-11-19T09:48:15Z</time>
      </trkpt>
      <trkpt lat="49.15666" lon="1.93443">
        <ele>68.1</ele>
        <time>2022-11-19T09:48:20Z</time>
      </trkpt>
      <trkpt lat="49.15677" lon="1.93443">
        <ele>68.2</ele>
        <time>2022-11-19T09:48:26Z</time>
      </trkpt>
      <trkpt lat="49.15686" lon="1.93442">
        <ele>68.3</ele>
        <time>2022-11-19T09:48:31Z</time>
      </trkpt>
      <trkpt lat="49.15695" lon="1.9344">
        <ele>68.5</ele>
        <time>2022-11-19T09:48:37Z</time>
      </trkpt>
      <trkpt lat="49.15702" lon="1.9344">
        <ele>68.5</ele>
        <time>2022-11-19T09:48:42Z</time>
      </trkpt>
      <trkpt lat="49.1571" lon="1.93439">
        <ele>68.6</ele>
        <time>2022-11-19T09:48:48Z</time>
      </trkpt>
      <trkpt lat="49.15718" lon="1.93439">
        <ele>68.6</ele>
        <time>2022-11-19T09:48:56Z</time>
      </trkpt>
      <trkpt lat="49.15727" lon="1.93439">
        <ele>68.6</ele>
        <time>2022-11-19T09:49:01Z</time>
      </trkpt>
      <trkpt lat="49.15734" lon="1.93434">
        <ele>69.2</ele>
        <time>2022-11-19T09:49:07Z</time>
      </trkpt>
      <trkpt lat="49.1573" lon="1.93426">
        <ele>70</ele>
        <time>2022-11-19T09:49:13Z</time>
      </trkpt>
      <trkpt lat="49.15722" lon="1.9342">
        <ele>70.6</ele>
        <time>2022-11-19T09:49:19Z</time>
      </trkpt>
      <trkpt lat="49.15715" lon="1.93415">
        <ele>71.2</ele>
        <time>2022-11-19T09:49:24Z</time>
      </trkpt>
      <trkpt lat="49.15707" lon="1.93408">
        <ele>72.1</ele>
        <time>2022-11-19T09:49:30Z</time>
      </trkpt>
      <trkpt lat="49.15701" lon="1.93403">
        <ele>72.9</ele>
        <time>2022-11-19T09:49:35Z</time>
      </trkpt>
      <trkpt lat="49.15692" lon="1.93399">
        <ele>73.7</ele>
        <time>2022-11-19T09:49:41Z</time>
      </trkpt>
      <trkpt lat="49.15684" lon="1.93395">
        <ele>74.6</ele>
        <time>2022-11-19T09:49:47Z</time>
      </trkpt>
      <trkpt lat="49.15675" lon="1.93393">
        <ele>75.7</ele>
        <time>2022-11-19T09:49:53Z</time>
      </trkpt>
      <trkpt lat="49.15668" lon="1.9339">
        <ele>76.7</ele>
        <time>2022-11-19T09:49:58Z</time>
      </trkpt>
      <trkpt lat="49.15659" lon="1.93389">
        <ele>77.2</ele>
        <time>2022-11-19T09:50:04Z</time>
      </trkpt>
      <trkpt lat="49.15653" lon="1.9339">
        <ele>77.2</ele>
        <time>2022-11-19T09:50:09Z</time>
      </trkpt>
      <trkpt lat="49.15645" lon="1.93388">
        <ele>77.9</ele>
        <time>2022-11-19T09:50:15Z</time>
      </trkpt>
      <trkpt lat="49.1564" lon="1.93386">
        <ele>78.7</ele>
        <time>2022-11-19T09:50:20Z</time>
      </trkpt>
      <trkpt lat="49.15632" lon="1.93384">
        <ele>79.7</ele>
        <time>2022-11-19T09:50:26Z</time>
      </trkpt>
      <trkpt lat="49.15626" lon="1.93382">
        <ele>80.3</ele>
        <time>2022-11-19T09:50:31Z</time>
      </trkpt>
      <trkpt lat="49.1562" lon="1.93381">
        <ele>80.8</ele>
        <time>2022-11-19T09:50:37Z</time>
      </trkpt>
      <trkpt lat="49.15613" lon="1.9338">
        <ele>81.3</ele>
        <time>2022-11-19T09:50:42Z</time>
      </trkpt>
      <trkpt lat="49.15604" lon="1.9338">
        <ele>81.9</ele>
        <time>2022-11-19T09:50:48Z</time>
      </trkpt>
      <trkpt lat="49.15596" lon="1.93379">
        <ele>82.5</ele>
        <time>2022-11-19T09:50:53Z</time>
      </trkpt>
      <trkpt lat="49.15589" lon="1.9338">
        <ele>82.8</ele>
        <time>2022-11-19T09:50:59Z</time>
      </trkpt>
      <trkpt lat="49.15581" lon="1.93379">
        <ele>83.8</ele>
        <time>2022-11-19T09:51:05Z</time>
      </trkpt>
      <trkpt lat="49.15575" lon="1.93377">
        <ele>84.9</ele>
        <time>2022-11-19T09:51:10Z</time>
      </trkpt>
      <trkpt lat="49.15567" lon="1.93377">
        <ele>85.7</ele>
        <time>2022-11-19T09:51:16Z</time>
      </trkpt>
      <trkpt lat="49.1556" lon="1.93378">
        <ele>86.3</ele>
        <time>2022-11-19T09:51:21Z</time>
      </trkpt>
      <trkpt lat="49.15552" lon="1.93377">
        <ele>87.1</ele>
        <time>2022-11-19T09:51:26Z</time>
      </trkpt>
      <trkpt lat="49.15545" lon="1.93377">
        <ele>87.7</ele>
        <time>2022-11-19T09:51:32Z</time>
      </trkpt>
      <trkpt lat="49.15538" lon="1.93378">
        <ele>88.2</ele>
        <time>2022-11-19T09:51:37Z</time>
      </trkpt>
      <trkpt lat="49.15529" lon="1.93378">
        <ele>88.9</ele>
        <time>2022-11-19T09:51:43Z</time>
      </trkpt>
      <trkpt lat="49.15521" lon="1.9338">
        <ele>89.2</ele>
        <time>2022-11-19T09:51:49Z</time>
      </trkpt>
      <trkpt lat="49.15513" lon="1.93384">
        <ele>89.4</ele>
        <time>2022-11-19T09:51:54Z</time>
      </trkpt>
      <trkpt lat="49.15507" lon="1.93386">
        <ele>89.6</ele>
        <time>2022-11-19T09:51:59Z</time>
      </trkpt>
      <trkpt lat="49.155" lon="1.93387">
        <ele>90.2</ele>
        <time>2022-11-19T09:52:05Z</time>
      </trkpt>
      <trkpt lat="49.1549" lon="1.93392">
        <ele>91</ele>
        <time>2022-11-19T09:52:11Z</time>
      </trkpt>
      <trkpt lat="49.15482" lon="1.93397">
        <ele>91.7</ele>
        <time>2022-11-19T09:52:17Z</time>
      </trkpt>
      <trkpt lat="49.15473" lon="1.93403">
        <ele>92.8</ele>
        <time>2022-11-19T09:52:23Z</time>
      </trkpt>
      <trkpt lat="49.15464" lon="1.93412">
        <ele>92.9</ele>
        <time>2022-11-19T09:52:29Z</time>
      </trkpt>
      <trkpt lat="49.15455" lon="1.93421">
        <ele>92.7</ele>
        <time>2022-11-19T09:52:35Z</time>
      </trkpt>
      <trkpt lat="49.15447" lon="1.93431">
        <ele>92.6</ele>
        <time>2022-11-19T09:52:41Z</time>
      </trkpt>
      <trkpt lat="49.1544" lon="1.9344">
        <ele>92.5</ele>
        <time>2022-11-19T09:52:46Z</time>
      </trkpt>
      <trkpt lat="49.15434" lon="1.9345">
        <ele>91.6</ele>
        <time>2022-11-19T09:52:51Z</time>
      </trkpt>
      <trkpt lat="49.15428" lon="1.9346">
        <ele>90.7</ele>
        <time>2022-11-19T09:52:57Z</time>
      </trkpt>
      <trkpt lat="49.15423" lon="1.93469">
        <ele>90.5</ele>
        <time>2022-11-19T09:53:03Z</time>
      </trkpt>
      <trkpt lat="49.15418" lon="1.93474">
        <ele>90.6</ele>
        <time>2022-11-19T09:53:08Z</time>
      </trkpt>
      <trkpt lat="49.15412" lon="1.9348">
        <ele>90.1</ele>
        <time>2022-11-19T09:53:13Z</time>
      </trkpt>
      <trkpt lat="49.15404" lon="1.93486">
        <ele>89.9</ele>
        <time>2022-11-19T09:53:19Z</time>
      </trkpt>
      <trkpt lat="49.15397" lon="1.9349">
        <ele>90</ele>
        <time>2022-11-19T09:53:24Z</time>
      </trkpt>
      <trkpt lat="49.15389" lon="1.93494">
        <ele>90.4</ele>
        <time>2022-11-19T09:53:29Z</time>
      </trkpt>
      <trkpt lat="49.15381" lon="1.93496">
        <ele>90.6</ele>
        <time>2022-11-19T09:53:35Z</time>
      </trkpt>
      <trkpt lat="49.15372" lon="1.93497">
        <ele>90.8</ele>
        <time>2022-11-19T09:53:41Z</time>
      </trkpt>
      <trkpt lat="49.15363" lon="1.93498">
        <ele>91.1</ele>
        <time>2022-11-19T09:53:46Z</time>
      </trkpt>
      <trkpt lat="49.15353" lon="1.93499">
        <ele>91.4</ele>
        <time>2022-11-19T09:53:52Z</time>
      </trkpt>
      <trkpt lat="49.15345" lon="1.93501">
        <ele>91.5</ele>
        <time>2022-11-19T09:53:57Z</time>
      </trkpt>
      <trkpt lat="49.15336" lon="1.93501">
        <ele>91.8</ele>
        <time>2022-11-19T09:54:03Z</time>
      </trkpt>
      <trkpt lat="49.15329" lon="1.93501">
        <ele>92</ele>
        <time>2022-11-19T09:54:09Z</time>
      </trkpt>
      <trkpt lat="49.15322" lon="1.93501">
        <ele>92</ele>
        <time>2022-11-19T09:54:14Z</time>
      </trkpt>
      <trkpt lat="49.15313" lon="1.93502">
        <ele>92</ele>
        <time>2022-11-19T09:54:20Z</time>
      </trkpt>
      <trkpt lat="49.15306" lon="1.93503">
        <ele>92</ele>
        <time>2022-11-19T09:54:25Z</time>
      </trkpt>
      <trkpt lat="49.15297" lon="1.93504">
        <ele>92</ele>
        <time>2022-11-19T09:54:31Z</time>
      </trkpt>
      <trkpt lat="49.15289" lon="1.93505">
        <ele>91.9</ele>
        <time>2022-11-19T09:54:36Z</time>
      </trkpt>
      <trkpt lat="49.15279" lon="1.93508">
        <ele>91.7</ele>
        <time>2022-11-19T09:54:42Z</time>
      </trkpt>
      <trkpt lat="49.15271" lon="1.9351">
        <ele>91.5</ele>
        <time>2022-11-19T09:54:48Z</time>
      </trkpt>
      <trkpt lat="49.15264" lon="1.93511">
        <ele>91.3</ele>
        <time>2022-11-19T09:54:53Z</time>
      </trkpt>
      <trkpt lat="49.15257" lon="1.93515">
        <ele>91.1</ele>
        <time>2022-11-19T09:54:59Z</time>
      </trkpt>
      <trkpt lat="49.15249" lon="1.93519">
        <ele>91</ele>
        <time>2022-11-19T09:55:04Z</time>
      </trkpt>
      <trkpt lat="49.15242" lon="1.93523">
        <ele>91</ele>
        <time>2022-11-19T09:55:09Z</time>
      </trkpt>
      <trkpt lat="49.15234" lon="1.93529">
        <ele>91</ele>
        <time>2022-11-19T09:55:15Z</time>
      </trkpt>
      <trkpt lat="49.15227" lon="1.93532">
        <ele>90.8</ele>
        <time>2022-11-19T09:55:20Z</time>
      </trkpt>
      <trkpt lat="49.1522" lon="1.93536">
        <ele>90.7</ele>
        <time>2022-11-19T09:55:26Z</time>
      </trkpt>
      <trkpt lat="49.15213" lon="1.9354">
        <ele>90.7</ele>
        <time>2022-11-19T09:55:32Z</time>
      </trkpt>
      <trkpt lat="49.15204" lon="1.93545">
        <ele>90.8</ele>
        <time>2022-11-19T09:55:38Z</time>
      </trkpt>
      <trkpt lat="49.15196" lon="1.93549">
        <ele>91</ele>
        <time>2022-11-19T09:55:44Z</time>
      </trkpt>
      <trkpt lat="49.1519" lon="1.93555">
        <ele>91.2</ele>
        <time>2022-11-19T09:55:49Z</time>
      </trkpt>
      <trkpt lat="49.15181" lon="1.9356">
        <ele>91.3</ele>
        <time>2022-11-19T09:55:55Z</time>
      </trkpt>
      <trkpt lat="49.15173" lon="1.93563">
        <ele>91.5</ele>
        <time>2022-11-19T09:56:00Z</time>
      </trkpt>
      <trkpt lat="49.15167" lon="1.93566">
        <ele>91.6</ele>
        <time>2022-11-19T09:56:06Z</time>
      </trkpt>
      <trkpt lat="49.15159" lon="1.9357">
        <ele>91.5</ele>
        <time>2022-11-19T09:56:12Z</time>
      </trkpt>
      <trkpt lat="49.15152" lon="1.93573">
        <ele>91.4</ele>
        <time>2022-11-19T09:56:17Z</time>
      </trkpt>
      <trkpt lat="49.15144" lon="1.93575">
        <ele>91.3</ele>
        <time>2022-11-19T09:56:23Z</time>
      </trkpt>
      <trkpt lat="49.15138" lon="1.93577">
        <ele>91.2</ele>
        <time>2022-11-19T09:56:28Z</time>
      </trkpt>
      <trkpt lat="49.15131" lon="1.93576">
        <ele>90.8</ele>
        <time>2022-11-19T09:56:33Z</time>
      </trkpt>
      <trkpt lat="49.15124" lon="1.93576">
        <ele>90.3</ele>
        <time>2022-11-19T09:56:39Z</time>
      </trkpt>
      <trkpt lat="49.15115" lon="1.9358">
        <ele>89.5</ele>
        <time>2022-11-19T09:56:45Z</time>
      </trkpt>
      <trkpt lat="49.15108" lon="1.93582">
        <ele>88.7</ele>
        <time>2022-11-19T09:56:50Z</time>
      </trkpt>
      <trkpt lat="49.15101" lon="1.93581">
        <ele>87.8</ele>
        <time>2022-11-19T09:56:55Z</time>
      </trkpt>
      <trkpt lat="49.15093" lon="1.93582">
        <ele>86.5</ele>
        <time>2022-11-19T09:57:00Z</time>
      </trkpt>
      <trkpt lat="49.15085" lon="1.93582">
        <ele>85.5</ele>
        <time>2022-11-19T09:57:05Z</time>
      </trkpt>
      <trkpt lat="49.15075" lon="1.9358">
        <ele>84</ele>
        <time>2022-11-19T09:57:11Z</time>
      </trkpt>
      <trkpt lat="49.15069" lon="1.93577">
        <ele>83.3</ele>
        <time>2022-11-19T09:57:16Z</time>
      </trkpt>
      <trkpt lat="49.15061" lon="1.93574">
        <ele>82.6</ele>
        <time>2022-11-19T09:57:22Z</time>
      </trkpt>
      <trkpt lat="49.15054" lon="1.9357">
        <ele>82.1</ele>
        <time>2022-11-19T09:57:27Z</time>
      </trkpt>
      <trkpt lat="49.15046" lon="1.93566">
        <ele>81.6</ele>
        <time>2022-11-19T09:57:33Z</time>
      </trkpt>
      <trkpt lat="49.15037" lon="1.93562">
        <ele>81.3</ele>
        <time>2022-11-19T09:57:38Z</time>
      </trkpt>
      <trkpt lat="49.15026" lon="1.93557">
        <ele>80.6</ele>
        <time>2022-11-19T09:57:44Z</time>
      </trkpt>
      <trkpt lat="49.15018" lon="1.93547">
        <ele>81.2</ele>
        <time>2022-11-19T09:57:50Z</time>
      </trkpt>
      <trkpt lat="49.15011" lon="1.93541">
        <ele>81.2</ele>
        <time>2022-11-19T09:57:56Z</time>
      </trkpt>
      <trkpt lat="49.15003" lon="1.93537">
        <ele>80.9</ele>
        <time>2022-11-19T09:58:02Z</time>
      </trkpt>
      <trkpt lat="49.14994" lon="1.93532">
        <ele>80.5</ele>
        <time>2022-11-19T09:58:07Z</time>
      </trkpt>
      <trkpt lat="49.14987" lon="1.93531">
        <ele>79.9</ele>
        <time>2022-11-19T09:58:12Z</time>
      </trkpt>
      <trkpt lat="49.14978" lon="1.93528">
        <ele>79.7</ele>
        <time>2022-11-19T09:58:18Z</time>
      </trkpt>
      <trkpt lat="49.14971" lon="1.93525">
        <ele>79.3</ele>
        <time>2022-11-19T09:58:23Z</time>
      </trkpt>
      <trkpt lat="49.14964" lon="1.93522">
        <ele>79.3</ele>
        <time>2022-11-19T09:58:29Z</time>
      </trkpt>
      <trkpt lat="49.14957" lon="1.93516">
        <ele>79.5</ele>
        <time>2022-11-19T09:58:35Z</time>
      </trkpt>
      <trkpt lat="49.14947" lon="1.93512">
        <ele>79.1</ele>
        <time>2022-11-19T09:58:41Z</time>
      </trkpt>
      <trkpt lat="49.14939" lon="1.93507">
        <ele>79.3</ele>
        <time>2022-11-19T09:58:47Z</time>
      </trkpt>
      <trkpt lat="49.14931" lon="1.93506">
        <ele>78.9</ele>
        <time>2022-11-19T09:58:52Z</time>
      </trkpt>
      <trkpt lat="49.14922" lon="1.93501">
        <ele>79.2</ele>
        <time>2022-11-19T09:58:58Z</time>
      </trkpt>
      <trkpt lat="49.14915" lon="1.93497">
        <ele>79.5</ele>
        <time>2022-11-19T09:59:04Z</time>
      </trkpt>
      <trkpt lat="49.14909" lon="1.93498">
        <ele>79.4</ele>
        <time>2022-11-19T09:59:10Z</time>
      </trkpt>
      <trkpt lat="49.14902" lon="1.93497">
        <ele>79.5</ele>
        <time>2022-11-19T09:59:15Z</time>
      </trkpt>
      <trkpt lat="49.14894" lon="1.935">
        <ele>78.9</ele>
        <time>2022-11-19T09:59:20Z</time>
      </trkpt>
      <trkpt lat="49.14886" lon="1.93504">
        <ele>77.9</ele>
        <time>2022-11-19T09:59:26Z</time>
      </trkpt>
      <trkpt lat="49.14878" lon="1.93508">
        <ele>76.5</ele>
        <time>2022-11-19T09:59:32Z</time>
      </trkpt>
      <trkpt lat="49.14867" lon="1.93513">
        <ele>75</ele>
        <time>2022-11-19T09:59:38Z</time>
      </trkpt>
      <trkpt lat="49.1486" lon="1.93511">
        <ele>75.2</ele>
        <time>2022-11-19T09:59:44Z</time>
      </trkpt>
      <trkpt lat="49.14853" lon="1.93512">
        <ele>75</ele>
        <time>2022-11-19T09:59:50Z</time>
      </trkpt>
      <trkpt lat="49.14846" lon="1.93513">
        <ele>74.7</ele>
        <time>2022-11-19T09:59:55Z</time>
      </trkpt>
      <trkpt lat="49.14838" lon="1.93517">
        <ele>73.7</ele>
        <time>2022-11-19T10:00:00Z</time>
      </trkpt>
      <trkpt lat="49.14827" lon="1.9352">
        <ele>73.4</ele>
        <time>2022-11-19T10:00:06Z</time>
      </trkpt>
      <trkpt lat="49.14821" lon="1.93522">
        <ele>72.9</ele>
        <time>2022-11-19T10:00:11Z</time>
      </trkpt>
      <trkpt lat="49.14815" lon="1.93524">
        <ele>72.6</ele>
        <time>2022-11-19T10:00:17Z</time>
      </trkpt>
      <trkpt lat="49.14809" lon="1.93527">
        <ele>72.2</ele>
        <time>2022-11-19T10:00:22Z</time>
      </trkpt>
      <trkpt lat="49.14802" lon="1.93532">
        <ele>71.4</ele>
        <time>2022-11-19T10:00:28Z</time>
      </trkpt>
      <trkpt lat="49.14794" lon="1.93538">
        <ele>70.7</ele>
        <time>2022-11-19T10:00:34Z</time>
      </trkpt>
      <trkpt lat="49.14786" lon="1.93542">
        <ele>70.4</ele>
        <time>2022-11-19T10:00:39Z</time>
      </trkpt>
      <trkpt lat="49.14781" lon="1.93548">
        <ele>69.6</ele>
        <time>2022-11-19T10:00:44Z</time>
      </trkpt>
      <trkpt lat="49.14775" lon="1.93554">
        <ele>68.5</ele>
        <time>2022-11-19T10:00:50Z</time>
      </trkpt>
      <trkpt lat="49.14769" lon="1.9356">
        <ele>67.7</ele>
        <time>2022-11-19T10:00:55Z</time>
      </trkpt>
      <trkpt lat="49.14762" lon="1.93567">
        <ele>66.7</ele>
        <time>2022-11-19T10:01:01Z</time>
      </trkpt>
      <trkpt lat="49.14755" lon="1.93574">
        <ele>65.7</ele>
        <time>2022-11-19T10:01:07Z</time>
      </trkpt>
      <trkpt lat="49.14753" lon="1.93579">
        <ele>64.8</ele>
        <time>2022-11-19T10:01:12Z</time>
      </trkpt>
      <trkpt lat="49.14758" lon="1.9358">
        <ele>64.2</ele>
        <time>2022-11-19T10:01:17Z</time>
      </trkpt>
      <trkpt lat="49.14768" lon="1.93577">
        <ele>64.1</ele>
        <time>2022-11-19T10:01:23Z</time>
      </trkpt>
      <trkpt lat="49.14778" lon="1.93575">
        <ele>63.8</ele>
        <time>2022-11-19T10:01:29Z</time>
      </trkpt>
      <trkpt lat="49.14785" lon="1.93571">
        <ele>63.9</ele>
        <time>2022-11-19T10:01:34Z</time>
      </trkpt>
      <trkpt lat="49.14794" lon="1.93568">
        <ele>63.9</ele>
        <time>2022-11-19T10:01:39Z</time>
      </trkpt>
      <trkpt lat="49.14806" lon="1.9356">
        <ele>64.1</ele>
        <time>2022-11-19T10:01:45Z</time>
      </trkpt>
      <trkpt lat="49.14817" lon="1.93555">
        <ele>64.6</ele>
        <time>2022-11-19T10:01:52Z</time>
      </trkpt>
      <trkpt lat="49.14822" lon="1.93552">
        <ele>65.2</ele>
        <time>2022-11-19T10:01:58Z</time>
      </trkpt>
      <trkpt lat="49.14824" lon="1.93551">
        <ele>65.5</ele>
        <time>2022-11-19T10:02:03Z</time>
      </trkpt>
      <trkpt lat="49.14827" lon="1.93558">
        <ele>63.9</ele>
        <time>2022-11-19T10:02:09Z</time>
      </trkpt>
      <trkpt lat="49.14834" lon="1.93567">
        <ele>62.3</ele>
        <time>2022-11-19T10:02:15Z</time>
      </trkpt>
      <trkpt lat="49.14839" lon="1.93576">
        <ele>61</ele>
        <time>2022-11-19T10:02:20Z</time>
      </trkpt>
      <trkpt lat="49.14844" lon="1.93585">
        <ele>59.9</ele>
        <time>2022-11-19T10:02:26Z</time>
      </trkpt>
      <trkpt lat="49.14844" lon="1.93591">
        <ele>59.6</ele>
        <time>2022-11-19T10:02:31Z</time>
      </trkpt>
      <trkpt lat="49.14842" lon="1.93599">
        <ele>59</ele>
        <time>2022-11-19T10:02:37Z</time>
      </trkpt>
      <trkpt lat="49.14838" lon="1.936">
        <ele>58.9</ele>
        <time>2022-11-19T10:02:43Z</time>
      </trkpt>
      <trkpt lat="49.14834" lon="1.93598">
        <ele>59</ele>
        <time>2022-11-19T10:02:48Z</time>
      </trkpt>
      <trkpt lat="49.14828" lon="1.93596">
        <ele>59.1</ele>
        <time>2022-11-19T10:02:53Z</time>
      </trkpt>
      <trkpt lat="49.14822" lon="1.93593">
        <ele>59.3</ele>
        <time>2022-11-19T10:02:59Z</time>
      </trkpt>
      <trkpt lat="49.1482" lon="1.9359">
        <ele>59.5</ele>
        <time>2022-11-19T10:03:04Z</time>
      </trkpt>
      <trkpt lat="49.1482" lon="1.93589">
        <ele>59.6</ele>
        <time>2022-11-19T10:03:10Z</time>
      </trkpt>
      <trkpt lat="49.14818" lon="1.93587">
        <ele>59.8</ele>
        <time>2022-11-19T10:03:16Z</time>
      </trkpt>
      <trkpt lat="49.14813" lon="1.93583">
        <ele>60.1</ele>
        <time>2022-11-19T10:03:21Z</time>
      </trkpt>
      <trkpt lat="49.14807" lon="1.93578">
        <ele>60.9</ele>
        <time>2022-11-19T10:03:27Z</time>
      </trkpt>
      <trkpt lat="49.14801" lon="1.93582">
        <ele>60.6</ele>
        <time>2022-11-19T10:03:32Z</time>
      </trkpt>
      <trkpt lat="49.14794" lon="1.9359">
        <ele>60.3</ele>
        <time>2022-11-19T10:03:37Z</time>
      </trkpt>
      <trkpt lat="49.14786" lon="1.93596">
        <ele>60.1</ele>
        <time>2022-11-19T10:03:42Z</time>
      </trkpt>
      <trkpt lat="49.14777" lon="1.93602">
        <ele>60</ele>
        <time>2022-11-19T10:03:48Z</time>
      </trkpt>
      <trkpt lat="49.14768" lon="1.93604">
        <ele>60.2</ele>
        <time>2022-11-19T10:03:54Z</time>
      </trkpt>
      <trkpt lat="49.14761" lon="1.93603">
        <ele>60.7</ele>
        <time>2022-11-19T10:03:59Z</time>
      </trkpt>
      <trkpt lat="49.14755" lon="1.93603">
        <ele>61</ele>
        <time>2022-11-19T10:04:05Z</time>
      </trkpt>
      <trkpt lat="49.14748" lon="1.93605">
        <ele>60.9</ele>
        <time>2022-11-19T10:04:10Z</time>
      </trkpt>
      <trkpt lat="49.14743" lon="1.93607">
        <ele>60.6</ele>
        <time>2022-11-19T10:04:15Z</time>
      </trkpt>
      <trkpt lat="49.14736" lon="1.93609">
        <ele>60.3</ele>
        <time>2022-11-19T10:04:21Z</time>
      </trkpt>
      <trkpt lat="49.1473" lon="1.93611">
        <ele>60</ele>
        <time>2022-11-19T10:04:27Z</time>
      </trkpt>
      <trkpt lat="49.14724" lon="1.93612">
        <ele>59.9</ele>
        <time>2022-11-19T10:04:33Z</time>
      </trkpt>
      <trkpt lat="49.14718" lon="1.93614">
        <ele>59.8</ele>
        <time>2022-11-19T10:04:38Z</time>
      </trkpt>
      <trkpt lat="49.1471" lon="1.93614">
        <ele>59.8</ele>
        <time>2022-11-19T10:04:44Z</time>
      </trkpt>
      <trkpt lat="49.14705" lon="1.93615">
        <ele>59.7</ele>
        <time>2022-11-19T10:04:49Z</time>
      </trkpt>
      <trkpt lat="49.14699" lon="1.93618">
        <ele>59.5</ele>
        <time>2022-11-19T10:04:54Z</time>
      </trkpt>
      <trkpt lat="49.14691" lon="1.9362">
        <ele>59.4</ele>
        <time>2022-11-19T10:05:00Z</time>
      </trkpt>
      <trkpt lat="49.14683" lon="1.93621">
        <ele>59.4</ele>
        <time>2022-11-19T10:05:06Z</time>
      </trkpt>
      <trkpt lat="49.14676" lon="1.93619">
        <ele>59.6</ele>
        <time>2022-11-19T10:05:12Z</time>
      </trkpt>
      <trkpt lat="49.14671" lon="1.93625">
        <ele>59.4</ele>
        <time>2022-11-19T10:05:18Z</time>
      </trkpt>
      <trkpt lat="49.14668" lon="1.93638">
        <ele>59</ele>
        <time>2022-11-19T10:05:24Z</time>
      </trkpt>
      <trkpt lat="49.14667" lon="1.93648">
        <ele>58.6</ele>
        <time>2022-11-19T10:05:30Z</time>
      </trkpt>
      <trkpt lat="49.14666" lon="1.93657">
        <ele>58.3</ele>
        <time>2022-11-19T10:05:35Z</time>
      </trkpt>
      <trkpt lat="49.14666" lon="1.9367">
        <ele>58</ele>
        <time>2022-11-19T10:05:41Z</time>
      </trkpt>
      <trkpt lat="49.14665" lon="1.93678">
        <ele>58</ele>
        <time>2022-11-19T10:05:46Z</time>
      </trkpt>
      <trkpt lat="49.14664" lon="1.9368">
        <ele>58</ele>
        <time>2022-11-19T10:05:52Z</time>
      </trkpt>
      <trkpt lat="49.14664" lon="1.93679">
        <ele>58</ele>
        <time>2022-11-19T10:05:58Z</time>
      </trkpt>
      <trkpt lat="49.14664" lon="1.93678">
        <ele>58</ele>
        <time>2022-11-19T10:06:04Z</time>
      </trkpt>
      <trkpt lat="49.14664" lon="1.93677">
        <ele>58</ele>
        <time>2022-11-19T10:06:10Z</time>
      </trkpt>
      <trkpt lat="49.14663" lon="1.93674">
        <ele>58</ele>
        <time>2022-11-19T10:06:16Z</time>
      </trkpt>
      <trkpt lat="49.14662" lon="1.93667">
        <ele>58</ele>
        <time>2022-11-19T10:06:22Z</time>
      </trkpt>
      <trkpt lat="49.14662" lon="1.93658">
        <ele>58.3</ele>
        <time>2022-11-19T10:06:28Z</time>
      </trkpt>
      <trkpt lat="49.14661" lon="1.93647">
        <ele>58.7</ele>
        <time>2022-11-19T10:06:33Z</time>
      </trkpt>
      <trkpt lat="49.1466" lon="1.93634">
        <ele>59.2</ele>
        <time>2022-11-19T10:06:39Z</time>
      </trkpt>
      <trkpt lat="49.14659" lon="1.9363">
        <ele>59.3</ele>
        <time>2022-11-19T10:06:45Z</time>
      </trkpt>
      <trkpt lat="49.14658" lon="1.93628">
        <ele>59.4</ele>
        <time>2022-11-19T10:06:51Z</time>
      </trkpt>
      <trkpt lat="49.14657" lon="1.93628">
        <ele>59.4</ele>
        <time>2022-11-19T10:06:56Z</time>
      </trkpt>
      <trkpt lat="49.14657" lon="1.93629">
        <ele>59.3</ele>
        <time>2022-11-19T10:07:02Z</time>
      </trkpt>
      <trkpt lat="49.14657" lon="1.9363">
        <ele>59.3</ele>
        <time>2022-11-19T10:07:07Z</time>
      </trkpt>
      <trkpt lat="49.14657" lon="1.93627">
        <ele>59.4</ele>
        <time>2022-11-19T10:07:13Z</time>
      </trkpt>
      <trkpt lat="49.14655" lon="1.93617">
        <ele>59.8</ele>
        <time>2022-11-19T10:07:18Z</time>
      </trkpt>
      <trkpt lat="49.14654" lon="1.93605">
        <ele>60.6</ele>
        <time>2022-11-19T10:07:24Z</time>
      </trkpt>
      <trkpt lat="49.14653" lon="1.93598">
        <ele>61.2</ele>
        <time>2022-11-19T10:07:29Z</time>
      </trkpt>
      <trkpt lat="49.14649" lon="1.93596">
        <ele>61.4</ele>
        <time>2022-11-19T10:07:34Z</time>
      </trkpt>
      <trkpt lat="49.14642" lon="1.93591">
        <ele>62.1</ele>
        <time>2022-11-19T10:07:40Z</time>
      </trkpt>
      <trkpt lat="49.14633" lon="1.93586">
        <ele>62.5</ele>
        <time>2022-11-19T10:07:46Z</time>
      </trkpt>
      <trkpt lat="49.14622" lon="1.93586">
        <ele>62</ele>
        <time>2022-11-19T10:07:52Z</time>
      </trkpt>
      <trkpt lat="49.14615" lon="1.93585">
        <ele>62</ele>
        <time>2022-11-19T10:07:57Z</time>
      </trkpt>
      <trkpt lat="49.14611" lon="1.93575">
        <ele>63.2</ele>
        <time>2022-11-19T10:08:03Z</time>
      </trkpt>
      <trkpt lat="49.14607" lon="1.9357">
        <ele>63.5</ele>
        <time>2022-11-19T10:08:08Z</time>
      </trkpt>
      <trkpt lat="49.14599" lon="1.93565">
        <ele>63.5</ele>
        <time>2022-11-19T10:08:14Z</time>
      </trkpt>
      <trkpt lat="49.14589" lon="1.93559">
        <ele>63.2</ele>
        <time>2022-11-19T10:08:20Z</time>
      </trkpt>
      <trkpt lat="49.1458" lon="1.93554">
        <ele>63</ele>
        <time>2022-11-19T10:08:26Z</time>
      </trkpt>
      <trkpt lat="49.14573" lon="1.93551">
        <ele>62.9</ele>
        <time>2022-11-19T10:08:31Z</time>
      </trkpt>
      <trkpt lat="49.14564" lon="1.93544">
        <ele>63.1</ele>
        <time>2022-11-19T10:08:37Z</time>
      </trkpt>
      <trkpt lat="49.14557" lon="1.93537">
        <ele>63.1</ele>
        <time>2022-11-19T10:08:42Z</time>
      </trkpt>
      <trkpt lat="49.1455" lon="1.9353">
        <ele>63.4</ele>
        <time>2022-11-19T10:08:48Z</time>
      </trkpt>
      <trkpt lat="49.14541" lon="1.93523">
        <ele>63.4</ele>
        <time>2022-11-19T10:08:54Z</time>
      </trkpt>
      <trkpt lat="49.14538" lon="1.93512">
        <ele>63.9</ele>
        <time>2022-11-19T10:08:59Z</time>
      </trkpt>
      <trkpt lat="49.14534" lon="1.93501">
        <ele>64.1</ele>
        <time>2022-11-19T10:09:04Z</time>
      </trkpt>
      <trkpt lat="49.14531" lon="1.93489">
        <ele>64.4</ele>
        <time>2022-11-19T10:09:10Z</time>
      </trkpt>
      <trkpt lat="49.14526" lon="1.9348">
        <ele>64.3</ele>
        <time>2022-11-19T10:09:16Z</time>
      </trkpt>
      <trkpt lat="49.14525" lon="1.93469">
        <ele>64.8</ele>
        <time>2022-11-19T10:09:21Z</time>
      </trkpt>
      <trkpt lat="49.14525" lon="1.93457">
        <ele>65.1</ele>
        <time>2022-11-19T10:09:27Z</time>
      </trkpt>
      <trkpt lat="49.14524" lon="1.93448">
        <ele>65.3</ele>
        <time>2022-11-19T10:09:32Z</time>
      </trkpt>
      <trkpt lat="49.14528" lon="1.93437">
        <ele>66.1</ele>
        <time>2022-11-19T10:09:38Z</time>
      </trkpt>
      <trkpt lat="49.14531" lon="1.93424">
        <ele>66.8</ele>
        <time>2022-11-19T10:09:44Z</time>
      </trkpt>
      <trkpt lat="49.14534" lon="1.93414">
        <ele>67.5</ele>
        <time>2022-11-19T10:09:49Z</time>
      </trkpt>
      <trkpt lat="49.14538" lon="1.93402">
        <ele>68</ele>
        <time>2022-11-19T10:09:55Z</time>
      </trkpt>
      <trkpt lat="49.1454" lon="1.93393">
        <ele>68.1</ele>
        <time>2022-11-19T10:10:00Z</time>
      </trkpt>
      <trkpt lat="49.14541" lon="1.93379">
        <ele>67.5</ele>
        <time>2022-11-19T10:10:06Z</time>
      </trkpt>
      <trkpt lat="49.14544" lon="1.93368">
        <ele>67.6</ele>
        <time>2022-11-19T10:10:12Z</time>
      </trkpt>
      <trkpt lat="49.14544" lon="1.93358">
        <ele>66.7</ele>
        <time>2022-11-19T10:10:17Z</time>
      </trkpt>
      <trkpt lat="49.14546" lon="1.93348">
        <ele>66.2</ele>
        <time>2022-11-19T10:10:22Z</time>
      </trkpt>
      <trkpt lat="49.14549" lon="1.93336">
        <ele>66</ele>
        <time>2022-11-19T10:10:28Z</time>
      </trkpt>
      <trkpt lat="49.14553" lon="1.93323">
        <ele>65.6</ele>
        <time>2022-11-19T10:10:33Z</time>
      </trkpt>
      <trkpt lat="49.14558" lon="1.93313">
        <ele>66.1</ele>
        <time>2022-11-19T10:10:38Z</time>
      </trkpt>
      <trkpt lat="49.1456" lon="1.93301">
        <ele>66</ele>
        <time>2022-11-19T10:10:43Z</time>
      </trkpt>
      <trkpt lat="49.14564" lon="1.9329">
        <ele>66</ele>
        <time>2022-11-19T10:10:49Z</time>
      </trkpt>
      <trkpt lat="49.14568" lon="1.9328">
        <ele>66.4</ele>
        <time>2022-11-19T10:10:55Z</time>
      </trkpt>
      <trkpt lat="49.14569" lon="1.93271">
        <ele>66</ele>
        <time>2022-11-19T10:11:00Z</time>
      </trkpt>
      <trkpt lat="49.14574" lon="1.93257">
        <ele>66.7</ele>
        <time>2022-11-19T10:11:06Z</time>
      </trkpt>
      <trkpt lat="49.14579" lon="1.93245">
        <ele>66.8</ele>
        <time>2022-11-19T10:11:11Z</time>
      </trkpt>
      <trkpt lat="49.14586" lon="1.93233">
        <ele>66.9</ele>
        <time>2022-11-19T10:11:17Z</time>
      </trkpt>
      <trkpt lat="49.1459" lon="1.93224">
        <ele>66.9</ele>
        <time>2022-11-19T10:11:23Z</time>
      </trkpt>
      <trkpt lat="49.14594" lon="1.93212">
        <ele>66.6</ele>
        <time>2022-11-19T10:11:29Z</time>
      </trkpt>
      <trkpt lat="49.14599" lon="1.93196">
        <ele>66</ele>
        <time>2022-11-19T10:11:35Z</time>
      </trkpt>
      <trkpt lat="49.14604" lon="1.93186">
        <ele>66.1</ele>
        <time>2022-11-19T10:11:40Z</time>
      </trkpt>
      <trkpt lat="49.14608" lon="1.93176">
        <ele>66.1</ele>
        <time>2022-11-19T10:11:46Z</time>
      </trkpt>
      <trkpt lat="49.14612" lon="1.93168">
        <ele>66.3</ele>
        <time>2022-11-19T10:11:51Z</time>
      </trkpt>
      <trkpt lat="49.14613" lon="1.93157">
        <ele>66.2</ele>
        <time>2022-11-19T10:11:57Z</time>
      </trkpt>
      <trkpt lat="49.14616" lon="1.93146">
        <ele>66.5</ele>
        <time>2022-11-19T10:12:03Z</time>
      </trkpt>
      <trkpt lat="49.14618" lon="1.93137">
        <ele>66.8</ele>
        <time>2022-11-19T10:12:08Z</time>
      </trkpt>
      <trkpt lat="49.14621" lon="1.93125">
        <ele>67.4</ele>
        <time>2022-11-19T10:12:14Z</time>
      </trkpt>
      <trkpt lat="49.14624" lon="1.93112">
        <ele>67.7</ele>
        <time>2022-11-19T10:12:20Z</time>
      </trkpt>
      <trkpt lat="49.14629" lon="1.93098">
        <ele>68.7</ele>
        <time>2022-11-19T10:12:26Z</time>
      </trkpt>
      <trkpt lat="49.14631" lon="1.93088">
        <ele>69</ele>
        <time>2022-11-19T10:12:31Z</time>
      </trkpt>
      <trkpt lat="49.14635" lon="1.93077">
        <ele>69.9</ele>
        <time>2022-11-19T10:12:36Z</time>
      </trkpt>
      <trkpt lat="49.14637" lon="1.93062">
        <ele>69.9</ele>
        <time>2022-11-19T10:12:42Z</time>
      </trkpt>
      <trkpt lat="49.14639" lon="1.9305">
        <ele>69.7</ele>
        <time>2022-11-19T10:12:47Z</time>
      </trkpt>
      <trkpt lat="49.1464" lon="1.93035">
        <ele>69.6</ele>
        <time>2022-11-19T10:12:53Z</time>
      </trkpt>
      <trkpt lat="49.14641" lon="1.93025">
        <ele>69.6</ele>
        <time>2022-11-19T10:12:58Z</time>
      </trkpt>
      <trkpt lat="49.1464" lon="1.93014">
        <ele>69.3</ele>
        <time>2022-11-19T10:13:03Z</time>
      </trkpt>
      <trkpt lat="49.1464" lon="1.93001">
        <ele>69.4</ele>
        <time>2022-11-19T10:13:08Z</time>
      </trkpt>
      <trkpt lat="49.14641" lon="1.92988">
        <ele>69.5</ele>
        <time>2022-11-19T10:13:14Z</time>
      </trkpt>
      <trkpt lat="49.1464" lon="1.92976">
        <ele>69.3</ele>
        <time>2022-11-19T10:13:19Z</time>
      </trkpt>
      <trkpt lat="49.1464" lon="1.92961">
        <ele>69.2</ele>
        <time>2022-11-19T10:13:25Z</time>
      </trkpt>
      <trkpt lat="49.14638" lon="1.92951">
        <ele>68.9</ele>
        <time>2022-11-19T10:13:30Z</time>
      </trkpt>
      <trkpt lat="49.14642" lon="1.92936">
        <ele>69.4</ele>
        <time>2022-11-19T10:13:36Z</time>
      </trkpt>
      <trkpt lat="49.14642" lon="1.92924">
        <ele>69.1</ele>
        <time>2022-11-19T10:13:41Z</time>
      </trkpt>
      <trkpt lat="49.1464" lon="1.92912">
        <ele>68.2</ele>
        <time>2022-11-19T10:13:46Z</time>
      </trkpt>
      <trkpt lat="49.1464" lon="1.92901">
        <ele>67.8</ele>
        <time>2022-11-19T10:13:51Z</time>
      </trkpt>
      <trkpt lat="49.14638" lon="1.9289">
        <ele>67</ele>
        <time>2022-11-19T10:13:57Z</time>
      </trkpt>
      <trkpt lat="49.14639" lon="1.92878">
        <ele>67</ele>
        <time>2022-11-19T10:14:03Z</time>
      </trkpt>
      <trkpt lat="49.14636" lon="1.92872">
        <ele>66.6</ele>
        <time>2022-11-19T10:14:08Z</time>
      </trkpt>
      <trkpt lat="49.14636" lon="1.92864">
        <ele>66.6</ele>
        <time>2022-11-19T10:14:13Z</time>
      </trkpt>
      <trkpt lat="49.14635" lon="1.92849">
        <ele>66.8</ele>
        <time>2022-11-19T10:14:19Z</time>
      </trkpt>
      <trkpt lat="49.14633" lon="1.92837">
        <ele>66.9</ele>
        <time>2022-11-19T10:14:25Z</time>
      </trkpt>
      <trkpt lat="49.14633" lon="1.92827">
        <ele>67.1</ele>
        <time>2022-11-19T10:14:30Z</time>
      </trkpt>
      <trkpt lat="49.14634" lon="1.92813">
        <ele>67.7</ele>
        <time>2022-11-19T10:14:36Z</time>
      </trkpt>
      <trkpt lat="49.14636" lon="1.92801">
        <ele>68.3</ele>
        <time>2022-11-19T10:14:41Z</time>
      </trkpt>
      <trkpt lat="49.14633" lon="1.92783">
        <ele>67.9</ele>
        <time>2022-11-19T10:14:47Z</time>
      </trkpt>
      <trkpt lat="49.1463" lon="1.92766">
        <ele>67.6</ele>
        <time>2022-11-19T10:14:52Z</time>
      </trkpt>
      <trkpt lat="49.14631" lon="1.9275">
        <ele>67.9</ele>
        <time>2022-11-19T10:14:58Z</time>
      </trkpt>
      <trkpt lat="49.1463" lon="1.92738">
        <ele>67.7</ele>
        <time>2022-11-19T10:15:04Z</time>
      </trkpt>
      <trkpt lat="49.1463" lon="1.92723">
        <ele>67.7</ele>
        <time>2022-11-19T10:15:10Z</time>
      </trkpt>
      <trkpt lat="49.14631" lon="1.92711">
        <ele>68</ele>
        <time>2022-11-19T10:15:15Z</time>
      </trkpt>
      <trkpt lat="49.14633" lon="1.92698">
        <ele>68.4</ele>
        <time>2022-11-19T10:15:21Z</time>
      </trkpt>
      <trkpt lat="49.14637" lon="1.92687">
        <ele>69.1</ele>
        <time>2022-11-19T10:15:26Z</time>
      </trkpt>
      <trkpt lat="49.14639" lon="1.92674">
        <ele>69.7</ele>
        <time>2022-11-19T10:15:31Z</time>
      </trkpt>
      <trkpt lat="49.14639" lon="1.92659">
        <ele>70</ele>
        <time>2022-11-19T10:15:37Z</time>
      </trkpt>
      <trkpt lat="49.14641" lon="1.92645">
        <ele>70.6</ele>
        <time>2022-11-19T10:15:43Z</time>
      </trkpt>
      <trkpt lat="49.14642" lon="1.92636">
        <ele>70.8</ele>
        <time>2022-11-19T10:15:48Z</time>
      </trkpt>
      <trkpt lat="49.14642" lon="1.92617">
        <ele>70.9</ele>
        <time>2022-11-19T10:15:54Z</time>
      </trkpt>
      <trkpt lat="49.14643" lon="1.92599">
        <ele>70.8</ele>
        <time>2022-11-19T10:16:00Z</time>
      </trkpt>
      <trkpt lat="49.14645" lon="1.92586">
        <ele>71</ele>
        <time>2022-11-19T10:16:06Z</time>
      </trkpt>
      <trkpt lat="49.14645" lon="1.92575">
        <ele>71.2</ele>
        <time>2022-11-19T10:16:11Z</time>
      </trkpt>
      <trkpt lat="49.14646" lon="1.92562">
        <ele>71.7</ele>
        <time>2022-11-19T10:16:17Z</time>
      </trkpt>
      <trkpt lat="49.14647" lon="1.92552">
        <ele>72</ele>
        <time>2022-11-19T10:16:22Z</time>
      </trkpt>
      <trkpt lat="49.14647" lon="1.92537">
        <ele>72.6</ele>
        <time>2022-11-19T10:16:28Z</time>
      </trkpt>
      <trkpt lat="49.14647" lon="1.92525">
        <ele>72.8</ele>
        <time>2022-11-19T10:16:33Z</time>
      </trkpt>
      <trkpt lat="49.1465" lon="1.92512">
        <ele>73.8</ele>
        <time>2022-11-19T10:16:38Z</time>
      </trkpt>
      <trkpt lat="49.14655" lon="1.92504">
        <ele>74.8</ele>
        <time>2022-11-19T10:16:43Z</time>
      </trkpt>
      <trkpt lat="49.14655" lon="1.92491">
        <ele>74.8</ele>
        <time>2022-11-19T10:16:49Z</time>
      </trkpt>
      <trkpt lat="49.14658" lon="1.92479">
        <ele>74.9</ele>
        <time>2022-11-19T10:16:55Z</time>
      </trkpt>
      <trkpt lat="49.14662" lon="1.92468">
        <ele>75.4</ele>
        <time>2022-11-19T10:17:01Z</time>
      </trkpt>
      <trkpt lat="49.14663" lon="1.92457">
        <ele>75.6</ele>
        <time>2022-11-19T10:17:06Z</time>
      </trkpt>
      <trkpt lat="49.14665" lon="1.92445">
        <ele>75.8</ele>
        <time>2022-11-19T10:17:11Z</time>
      </trkpt>
      <trkpt lat="49.14668" lon="1.92431">
        <ele>77.8</ele>
        <time>2022-11-19T10:17:17Z</time>
      </trkpt>
      <trkpt lat="49.14671" lon="1.9242">
        <ele>79.7</ele>
        <time>2022-11-19T10:17:22Z</time>
      </trkpt>
      <trkpt lat="49.14675" lon="1.92409">
        <ele>81.3</ele>
        <time>2022-11-19T10:17:28Z</time>
      </trkpt>
      <trkpt lat="49.14676" lon="1.92401">
        <ele>82.4</ele>
        <time>2022-11-19T10:17:33Z</time>
      </trkpt>
      <trkpt lat="49.14678" lon="1.92389">
        <ele>83.6</ele>
        <time>2022-11-19T10:17:39Z</time>
      </trkpt>
      <trkpt lat="49.14683" lon="1.92374">
        <ele>85.9</ele>
        <time>2022-11-19T10:17:45Z</time>
      </trkpt>
      <trkpt lat="49.14684" lon="1.9236">
        <ele>87.3</ele>
        <time>2022-11-19T10:17:51Z</time>
      </trkpt>
      <trkpt lat="49.14685" lon="1.9235">
        <ele>87.9</ele>
        <time>2022-11-19T10:17:56Z</time>
      </trkpt>
      <trkpt lat="49.14686" lon="1.92338">
        <ele>88.5</ele>
        <time>2022-11-19T10:18:02Z</time>
      </trkpt>
      <trkpt lat="49.14686" lon="1.92329">
        <ele>88.8</ele>
        <time>2022-11-19T10:18:08Z</time>
      </trkpt>
      <trkpt lat="49.14688" lon="1.92316">
        <ele>88.9</ele>
        <time>2022-11-19T10:18:13Z</time>
      </trkpt>
      <trkpt lat="49.14689" lon="1.92304">
        <ele>89</ele>
        <time>2022-11-19T10:18:19Z</time>
      </trkpt>
      <trkpt lat="49.14688" lon="1.92291">
        <ele>89</ele>
        <time>2022-11-19T10:18:24Z</time>
      </trkpt>
      <trkpt lat="49.14691" lon="1.92275">
        <ele>88.9</ele>
        <time>2022-11-19T10:18:30Z</time>
      </trkpt>
      <trkpt lat="49.14694" lon="1.92263">
        <ele>88.5</ele>
        <time>2022-11-19T10:18:35Z</time>
      </trkpt>
      <trkpt lat="49.14697" lon="1.9225">
        <ele>88.1</ele>
        <time>2022-11-19T10:18:41Z</time>
      </trkpt>
      <trkpt lat="49.14697" lon="1.92239">
        <ele>87.7</ele>
        <time>2022-11-19T10:18:46Z</time>
      </trkpt>
      <trkpt lat="49.14699" lon="1.92222">
        <ele>87.3</ele>
        <time>2022-11-19T10:18:52Z</time>
      </trkpt>
      <trkpt lat="49.14702" lon="1.92207">
        <ele>86.7</ele>
        <time>2022-11-19T10:18:58Z</time>
      </trkpt>
      <trkpt lat="49.14703" lon="1.92196">
        <ele>86.3</ele>
        <time>2022-11-19T10:19:03Z</time>
      </trkpt>
      <trkpt lat="49.14705" lon="1.92185">
        <ele>86</ele>
        <time>2022-11-19T10:19:09Z</time>
      </trkpt>
      <trkpt lat="49.14706" lon="1.92171">
        <ele>85.4</ele>
        <time>2022-11-19T10:19:15Z</time>
      </trkpt>
      <trkpt lat="49.14707" lon="1.92156">
        <ele>85.1</ele>
        <time>2022-11-19T10:19:21Z</time>
      </trkpt>
      <trkpt lat="49.1471" lon="1.92144">
        <ele>85.4</ele>
        <time>2022-11-19T10:19:27Z</time>
      </trkpt>
      <trkpt lat="49.14715" lon="1.92132">
        <ele>85.8</ele>
        <time>2022-11-19T10:19:32Z</time>
      </trkpt>
      <trkpt lat="49.14718" lon="1.9212">
        <ele>85.9</ele>
        <time>2022-11-19T10:19:38Z</time>
      </trkpt>
      <trkpt lat="49.14722" lon="1.92111">
        <ele>86</ele>
        <time>2022-11-19T10:19:43Z</time>
      </trkpt>
      <trkpt lat="49.14728" lon="1.92101">
        <ele>86.8</ele>
        <time>2022-11-19T10:19:49Z</time>
      </trkpt>
      <trkpt lat="49.14731" lon="1.92091">
        <ele>87.2</ele>
        <time>2022-11-19T10:19:55Z</time>
      </trkpt>
      <trkpt lat="49.14735" lon="1.92082">
        <ele>87.3</ele>
        <time>2022-11-19T10:20:01Z</time>
      </trkpt>
      <trkpt lat="49.14742" lon="1.92074">
        <ele>87.6</ele>
        <time>2022-11-19T10:20:06Z</time>
      </trkpt>
      <trkpt lat="49.1475" lon="1.92066">
        <ele>87.7</ele>
        <time>2022-11-19T10:20:13Z</time>
      </trkpt>
      <trkpt lat="49.14758" lon="1.92059">
        <ele>87.8</ele>
        <time>2022-11-19T10:20:18Z</time>
      </trkpt>
      <trkpt lat="49.14763" lon="1.92052">
        <ele>87.9</ele>
        <time>2022-11-19T10:20:23Z</time>
      </trkpt>
      <trkpt lat="49.14772" lon="1.92049">
        <ele>88.5</ele>
        <time>2022-11-19T10:20:29Z</time>
      </trkpt>
      <trkpt lat="49.14775" lon="1.92049">
        <ele>88.8</ele>
        <time>2022-11-19T10:20:35Z</time>
      </trkpt>
      <trkpt lat="49.14776" lon="1.9205">
        <ele>88.9</ele>
        <time>2022-11-19T10:20:41Z</time>
      </trkpt>
      <trkpt lat="49.14776" lon="1.92053">
        <ele>88.9</ele>
        <time>2022-11-19T10:20:46Z</time>
      </trkpt>
      <trkpt lat="49.14776" lon="1.92055">
        <ele>88.9</ele>
        <time>2022-11-19T10:20:51Z</time>
      </trkpt>
      <trkpt lat="49.14778" lon="1.92065">
        <ele>89.4</ele>
        <time>2022-11-19T10:20:57Z</time>
      </trkpt>
      <trkpt lat="49.14779" lon="1.92073">
        <ele>89.7</ele>
        <time>2022-11-19T10:21:03Z</time>
      </trkpt>
      <trkpt lat="49.14781" lon="1.92071">
        <ele>89.7</ele>
        <time>2022-11-19T10:21:08Z</time>
      </trkpt>
      <trkpt lat="49.14782" lon="1.92072">
        <ele>89.7</ele>
        <time>2022-11-19T10:21:14Z</time>
      </trkpt>
      <trkpt lat="49.14782" lon="1.92071">
        <ele>89.7</ele>
        <time>2022-11-19T10:21:19Z</time>
      </trkpt>
      <trkpt lat="49.14782" lon="1.9207">
        <ele>89.7</ele>
        <time>2022-11-19T10:21:25Z</time>
      </trkpt>
      <trkpt lat="49.14782" lon="1.92069">
        <ele>89.7</ele>
        <time>2022-11-19T10:21:31Z</time>
      </trkpt>
      <trkpt lat="49.14784" lon="1.92062">
        <ele>89.5</ele>
        <time>2022-11-19T10:21:37Z</time>
      </trkpt>
      <trkpt lat="49.14782" lon="1.92055">
        <ele>89.1</ele>
        <time>2022-11-19T10:21:42Z</time>
      </trkpt>
      <trkpt lat="49.14779" lon="1.9205">
        <ele>89</ele>
        <time>2022-11-19T10:21:47Z</time>
      </trkpt>
      <trkpt lat="49.14779" lon="1.9205">
        <ele>89</ele>
        <time>2022-11-19T10:21:52Z</time>
      </trkpt>
      <trkpt lat="49.14778" lon="1.9205">
        <ele>89</ele>
        <time>2022-11-19T10:21:58Z</time>
      </trkpt>
      <trkpt lat="49.14777" lon="1.9205">
        <ele>89</ele>
        <time>2022-11-19T10:22:04Z</time>
      </trkpt>
      <trkpt lat="49.14777" lon="1.92049">
        <ele>88.9</ele>
        <time>2022-11-19T10:22:09Z</time>
      </trkpt>
      <trkpt lat="49.14778" lon="1.92047">
        <ele>89</ele>
        <time>2022-11-19T10:22:15Z</time>
      </trkpt>
      <trkpt lat="49.14778" lon="1.92046">
        <ele>89</ele>
        <time>2022-11-19T10:22:20Z</time>
      </trkpt>
      <trkpt lat="49.14777" lon="1.92046">
        <ele>89</ele>
        <time>2022-11-19T10:22:26Z</time>
      </trkpt>
      <trkpt lat="49.14776" lon="1.92041">
        <ele>88.8</ele>
        <time>2022-11-19T10:22:31Z</time>
      </trkpt>
      <trkpt lat="49.14777" lon="1.92034">
        <ele>88.9</ele>
        <time>2022-11-19T10:22:37Z</time>
      </trkpt>
      <trkpt lat="49.14777" lon="1.92026">
        <ele>88.9</ele>
        <time>2022-11-19T10:22:42Z</time>
      </trkpt>
      <trkpt lat="49.14776" lon="1.92016">
        <ele>88.8</ele>
        <time>2022-11-19T10:22:48Z</time>
      </trkpt>
      <trkpt lat="49.14771" lon="1.92002">
        <ele>88.5</ele>
        <time>2022-11-19T10:22:54Z</time>
      </trkpt>
      <trkpt lat="49.1477" lon="1.91992">
        <ele>88.8</ele>
        <time>2022-11-19T10:22:59Z</time>
      </trkpt>
      <trkpt lat="49.14768" lon="1.91981">
        <ele>89.2</ele>
        <time>2022-11-19T10:23:05Z</time>
      </trkpt>
      <trkpt lat="49.14767" lon="1.9197">
        <ele>89.6</ele>
        <time>2022-11-19T10:23:10Z</time>
      </trkpt>
      <trkpt lat="49.14765" lon="1.91959">
        <ele>89.7</ele>
        <time>2022-11-19T10:23:15Z</time>
      </trkpt>
      <trkpt lat="49.14763" lon="1.91947">
        <ele>89.9</ele>
        <time>2022-11-19T10:23:20Z</time>
      </trkpt>
      <trkpt lat="49.14761" lon="1.91934">
        <ele>90.2</ele>
        <time>2022-11-19T10:23:26Z</time>
      </trkpt>
      <trkpt lat="49.14758" lon="1.91924">
        <ele>90.2</ele>
        <time>2022-11-19T10:23:31Z</time>
      </trkpt>
      <trkpt lat="49.14756" lon="1.91911">
        <ele>90.4</ele>
        <time>2022-11-19T10:23:37Z</time>
      </trkpt>
      <trkpt lat="49.14753" lon="1.91898">
        <ele>90.8</ele>
        <time>2022-11-19T10:23:43Z</time>
      </trkpt>
      <trkpt lat="49.14749" lon="1.91888">
        <ele>91.1</ele>
        <time>2022-11-19T10:23:49Z</time>
      </trkpt>
      <trkpt lat="49.14745" lon="1.91881">
        <ele>91.4</ele>
        <time>2022-11-19T10:23:54Z</time>
      </trkpt>
      <trkpt lat="49.14739" lon="1.91871">
        <ele>92</ele>
        <time>2022-11-19T10:24:00Z</time>
      </trkpt>
      <trkpt lat="49.14733" lon="1.9186">
        <ele>92.6</ele>
        <time>2022-11-19T10:24:06Z</time>
      </trkpt>
      <trkpt lat="49.14728" lon="1.9185">
        <ele>92.9</ele>
        <time>2022-11-19T10:24:11Z</time>
      </trkpt>
      <trkpt lat="49.14721" lon="1.91839">
        <ele>93</ele>
        <time>2022-11-19T10:24:17Z</time>
      </trkpt>
      <trkpt lat="49.14718" lon="1.91828">
        <ele>93.3</ele>
        <time>2022-11-19T10:24:23Z</time>
      </trkpt>
      <trkpt lat="49.14714" lon="1.9182">
        <ele>93.6</ele>
        <time>2022-11-19T10:24:28Z</time>
      </trkpt>
      <trkpt lat="49.14708" lon="1.91814">
        <ele>93.8</ele>
        <time>2022-11-19T10:24:33Z</time>
      </trkpt>
      <trkpt lat="49.14703" lon="1.91806">
        <ele>94</ele>
        <time>2022-11-19T10:24:38Z</time>
      </trkpt>
      <trkpt lat="49.14696" lon="1.91794">
        <ele>94</ele>
        <time>2022-11-19T10:24:44Z</time>
      </trkpt>
      <trkpt lat="49.14689" lon="1.91782">
        <ele>94.2</ele>
        <time>2022-11-19T10:24:50Z</time>
      </trkpt>
      <trkpt lat="49.14683" lon="1.91774">
        <ele>94.5</ele>
        <time>2022-11-19T10:24:55Z</time>
      </trkpt>
      <trkpt lat="49.14682" lon="1.91768">
        <ele>94.7</ele>
        <time>2022-11-19T10:25:00Z</time>
      </trkpt>
      <trkpt lat="49.14679" lon="1.91755">
        <ele>94.9</ele>
        <time>2022-11-19T10:25:06Z</time>
      </trkpt>
      <trkpt lat="49.14678" lon="1.91742">
        <ele>95</ele>
        <time>2022-11-19T10:25:11Z</time>
      </trkpt>
      <trkpt lat="49.1468" lon="1.91732">
        <ele>95</ele>
        <time>2022-11-19T10:25:16Z</time>
      </trkpt>
      <trkpt lat="49.14683" lon="1.91717">
        <ele>95</ele>
        <time>2022-11-19T10:25:22Z</time>
      </trkpt>
      <trkpt lat="49.14684" lon="1.91708">
        <ele>95</ele>
        <time>2022-11-19T10:25:27Z</time>
      </trkpt>
      <trkpt lat="49.14687" lon="1.91696">
        <ele>95</ele>
        <time>2022-11-19T10:25:33Z</time>
      </trkpt>
      <trkpt lat="49.14688" lon="1.91686">
        <ele>95.3</ele>
        <time>2022-11-19T10:25:38Z</time>
      </trkpt>
      <trkpt lat="49.1469" lon="1.91672">
        <ele>95.8</ele>
        <time>2022-11-19T10:25:44Z</time>
      </trkpt>
      <trkpt lat="49.14691" lon="1.91661">
        <ele>96</ele>
        <time>2022-11-19T10:25:49Z</time>
      </trkpt>
      <trkpt lat="49.14693" lon="1.91649">
        <ele>96</ele>
        <time>2022-11-19T10:25:55Z</time>
      </trkpt>
      <trkpt lat="49.14695" lon="1.91636">
        <ele>96</ele>
        <time>2022-11-19T10:26:00Z</time>
      </trkpt>
      <trkpt lat="49.14695" lon="1.91621">
        <ele>96</ele>
        <time>2022-11-19T10:26:06Z</time>
      </trkpt>
      <trkpt lat="49.14695" lon="1.91606">
        <ele>96</ele>
        <time>2022-11-19T10:26:12Z</time>
      </trkpt>
      <trkpt lat="49.14696" lon="1.91593">
        <ele>96</ele>
        <time>2022-11-19T10:26:17Z</time>
      </trkpt>
      <trkpt lat="49.14698" lon="1.91581">
        <ele>96</ele>
        <time>2022-11-19T10:26:23Z</time>
      </trkpt>
      <trkpt lat="49.14699" lon="1.91568">
        <ele>96</ele>
        <time>2022-11-19T10:26:28Z</time>
      </trkpt>
      <trkpt lat="49.14699" lon="1.91556">
        <ele>96</ele>
        <time>2022-11-19T10:26:34Z</time>
      </trkpt>
      <trkpt lat="49.14699" lon="1.91546">
        <ele>96</ele>
        <time>2022-11-19T10:26:39Z</time>
      </trkpt>
      <trkpt lat="49.147" lon="1.91537">
        <ele>96</ele>
        <time>2022-11-19T10:26:44Z</time>
      </trkpt>
      <trkpt lat="49.14702" lon="1.91523">
        <ele>96</ele>
        <time>2022-11-19T10:26:50Z</time>
      </trkpt>
      <trkpt lat="49.14703" lon="1.91512">
        <ele>96</ele>
        <time>2022-11-19T10:26:55Z</time>
      </trkpt>
      <trkpt lat="49.14703" lon="1.91501">
        <ele>96</ele>
        <time>2022-11-19T10:27:00Z</time>
      </trkpt>
      <trkpt lat="49.14703" lon="1.91487">
        <ele>96</ele>
        <time>2022-11-19T10:27:06Z</time>
      </trkpt>
      <trkpt lat="49.14704" lon="1.91474">
        <ele>96</ele>
        <time>2022-11-19T10:27:11Z</time>
      </trkpt>
      <trkpt lat="49.14704" lon="1.91458">
        <ele>96</ele>
        <time>2022-11-19T10:27:17Z</time>
      </trkpt>
      <trkpt lat="49.14705" lon="1.91445">
        <ele>96</ele>
        <time>2022-11-19T10:27:22Z</time>
      </trkpt>
      <trkpt lat="49.14705" lon="1.91434">
        <ele>96</ele>
        <time>2022-11-19T10:27:27Z</time>
      </trkpt>
      <trkpt lat="49.14705" lon="1.9142">
        <ele>96</ele>
        <time>2022-11-19T10:27:33Z</time>
      </trkpt>
      <trkpt lat="49.14704" lon="1.91407">
        <ele>96.2</ele>
        <time>2022-11-19T10:27:39Z</time>
      </trkpt>
      <trkpt lat="49.14702" lon="1.91396">
        <ele>96.5</ele>
        <time>2022-11-19T10:27:45Z</time>
      </trkpt>
      <trkpt lat="49.14703" lon="1.91384">
        <ele>96.7</ele>
        <time>2022-11-19T10:27:51Z</time>
      </trkpt>
      <trkpt lat="49.14703" lon="1.9137">
        <ele>96.9</ele>
        <time>2022-11-19T10:27:57Z</time>
      </trkpt>
      <trkpt lat="49.14705" lon="1.91357">
        <ele>97</ele>
        <time>2022-11-19T10:28:03Z</time>
      </trkpt>
      <trkpt lat="49.14705" lon="1.91344">
        <ele>97</ele>
        <time>2022-11-19T10:28:09Z</time>
      </trkpt>
      <trkpt lat="49.14704" lon="1.91332">
        <ele>97</ele>
        <time>2022-11-19T10:28:14Z</time>
      </trkpt>
      <trkpt lat="49.14703" lon="1.91321">
        <ele>97</ele>
        <time>2022-11-19T10:28:19Z</time>
      </trkpt>
      <trkpt lat="49.14702" lon="1.91311">
        <ele>97</ele>
        <time>2022-11-19T10:28:24Z</time>
      </trkpt>
      <trkpt lat="49.14701" lon="1.91297">
        <ele>97</ele>
        <time>2022-11-19T10:28:30Z</time>
      </trkpt>
      <trkpt lat="49.14699" lon="1.91285">
        <ele>97</ele>
        <time>2022-11-19T10:28:35Z</time>
      </trkpt>
      <trkpt lat="49.14697" lon="1.9127">
        <ele>97</ele>
        <time>2022-11-19T10:28:41Z</time>
      </trkpt>
      <trkpt lat="49.14695" lon="1.91252">
        <ele>97</ele>
        <time>2022-11-19T10:28:47Z</time>
      </trkpt>
      <trkpt lat="49.14695" lon="1.91237">
        <ele>97.5</ele>
        <time>2022-11-19T10:28:53Z</time>
      </trkpt>
      <trkpt lat="49.14695" lon="1.91225">
        <ele>97.9</ele>
        <time>2022-11-19T10:28:58Z</time>
      </trkpt>
      <trkpt lat="49.14694" lon="1.91212">
        <ele>98</ele>
        <time>2022-11-19T10:29:04Z</time>
      </trkpt>
      <trkpt lat="49.14693" lon="1.91201">
        <ele>98</ele>
        <time>2022-11-19T10:29:09Z</time>
      </trkpt>
      <trkpt lat="49.14693" lon="1.9119">
        <ele>98</ele>
        <time>2022-11-19T10:29:15Z</time>
      </trkpt>
      <trkpt lat="49.14693" lon="1.9118">
        <ele>98</ele>
        <time>2022-11-19T10:29:20Z</time>
      </trkpt>
      <trkpt lat="49.14694" lon="1.91167">
        <ele>98</ele>
        <time>2022-11-19T10:29:26Z</time>
      </trkpt>
      <trkpt lat="49.14694" lon="1.91155">
        <ele>98</ele>
        <time>2022-11-19T10:29:32Z</time>
      </trkpt>
      <trkpt lat="49.14695" lon="1.91145">
        <ele>98</ele>
        <time>2022-11-19T10:29:37Z</time>
      </trkpt>
      <trkpt lat="49.14696" lon="1.91132">
        <ele>98</ele>
        <time>2022-11-19T10:29:43Z</time>
      </trkpt>
      <trkpt lat="49.14697" lon="1.9112">
        <ele>98</ele>
        <time>2022-11-19T10:29:48Z</time>
      </trkpt>
      <trkpt lat="49.147" lon="1.91103">
        <ele>98</ele>
        <time>2022-11-19T10:29:54Z</time>
      </trkpt>
      <trkpt lat="49.147" lon="1.91087">
        <ele>98</ele>
        <time>2022-11-19T10:30:00Z</time>
      </trkpt>
      <trkpt lat="49.14701" lon="1.91072">
        <ele>98</ele>
        <time>2022-11-19T10:30:06Z</time>
      </trkpt>
      <trkpt lat="49.14701" lon="1.91058">
        <ele>98</ele>
        <time>2022-11-19T10:30:12Z</time>
      </trkpt>
      <trkpt lat="49.14702" lon="1.91046">
        <ele>98</ele>
        <time>2022-11-19T10:30:17Z</time>
      </trkpt>
      <trkpt lat="49.14704" lon="1.9103">
        <ele>98</ele>
        <time>2022-11-19T10:30:23Z</time>
      </trkpt>
      <trkpt lat="49.14705" lon="1.91018">
        <ele>98</ele>
        <time>2022-11-19T10:30:29Z</time>
      </trkpt>
      <trkpt lat="49.14707" lon="1.91006">
        <ele>98</ele>
        <time>2022-11-19T10:30:35Z</time>
      </trkpt>
      <trkpt lat="49.14708" lon="1.90998">
        <ele>98</ele>
        <time>2022-11-19T10:30:40Z</time>
      </trkpt>
      <trkpt lat="49.1471" lon="1.90987">
        <ele>98.3</ele>
        <time>2022-11-19T10:30:45Z</time>
      </trkpt>
      <trkpt lat="49.1471" lon="1.90976">
        <ele>98.5</ele>
        <time>2022-11-19T10:30:50Z</time>
      </trkpt>
      <trkpt lat="49.14711" lon="1.90965">
        <ele>98.6</ele>
        <time>2022-11-19T10:30:55Z</time>
      </trkpt>
      <trkpt lat="49.14714" lon="1.90951">
        <ele>98.7</ele>
        <time>2022-11-19T10:31:01Z</time>
      </trkpt>
      <trkpt lat="49.14715" lon="1.90939">
        <ele>98.8</ele>
        <time>2022-11-19T10:31:06Z</time>
      </trkpt>
      <trkpt lat="49.14716" lon="1.90927">
        <ele>98.9</ele>
        <time>2022-11-19T10:31:11Z</time>
      </trkpt>
      <trkpt lat="49.14717" lon="1.90911">
        <ele>99</ele>
        <time>2022-11-19T10:31:17Z</time>
      </trkpt>
      <trkpt lat="49.14717" lon="1.90897">
        <ele>99</ele>
        <time>2022-11-19T10:31:22Z</time>
      </trkpt>
      <trkpt lat="49.14718" lon="1.90882">
        <ele>99</ele>
        <time>2022-11-19T10:31:28Z</time>
      </trkpt>
      <trkpt lat="49.14718" lon="1.9087">
        <ele>99</ele>
        <time>2022-11-19T10:31:33Z</time>
      </trkpt>
      <trkpt lat="49.14719" lon="1.90855">
        <ele>99</ele>
        <time>2022-11-19T10:31:39Z</time>
      </trkpt>
      <trkpt lat="49.1472" lon="1.90843">
        <ele>99</ele>
        <time>2022-11-19T10:31:45Z</time>
      </trkpt>
      <trkpt lat="49.14721" lon="1.90829">
        <ele>99</ele>
        <time>2022-11-19T10:31:51Z</time>
      </trkpt>
      <trkpt lat="49.14723" lon="1.90818">
        <ele>99</ele>
        <time>2022-11-19T10:31:56Z</time>
      </trkpt>
      <trkpt lat="49.14724" lon="1.90808">
        <ele>99.1</ele>
        <time>2022-11-19T10:32:02Z</time>
      </trkpt>
      <trkpt lat="49.14726" lon="1.908">
        <ele>99.3</ele>
        <time>2022-11-19T10:32:07Z</time>
      </trkpt>
      <trkpt lat="49.14727" lon="1.90786">
        <ele>99.7</ele>
        <time>2022-11-19T10:32:13Z</time>
      </trkpt>
      <trkpt lat="49.14728" lon="1.90772">
        <ele>100</ele>
        <time>2022-11-19T10:32:18Z</time>
      </trkpt>
      <trkpt lat="49.14727" lon="1.90758">
        <ele>100</ele>
        <time>2022-11-19T10:32:23Z</time>
      </trkpt>
      <trkpt lat="49.14727" lon="1.90744">
        <ele>100</ele>
        <time>2022-11-19T10:32:28Z</time>
      </trkpt>
      <trkpt lat="49.14727" lon="1.90731">
        <ele>100</ele>
        <time>2022-11-19T10:32:34Z</time>
      </trkpt>
      <trkpt lat="49.14727" lon="1.90718">
        <ele>100</ele>
        <time>2022-11-19T10:32:40Z</time>
      </trkpt>
      <trkpt lat="49.14727" lon="1.90708">
        <ele>100.1</ele>
        <time>2022-11-19T10:32:45Z</time>
      </trkpt>
      <trkpt lat="49.14728" lon="1.90697">
        <ele>100.2</ele>
        <time>2022-11-19T10:32:50Z</time>
      </trkpt>
      <trkpt lat="49.14725" lon="1.90685">
        <ele>100.1</ele>
        <time>2022-11-19T10:32:55Z</time>
      </trkpt>
      <trkpt lat="49.14722" lon="1.90672">
        <ele>100</ele>
        <time>2022-11-19T10:33:01Z</time>
      </trkpt>
      <trkpt lat="49.14721" lon="1.9066">
        <ele>100</ele>
        <time>2022-11-19T10:33:06Z</time>
      </trkpt>
      <trkpt lat="49.1472" lon="1.90647">
        <ele>100.1</ele>
        <time>2022-11-19T10:33:12Z</time>
      </trkpt>
      <trkpt lat="49.14716" lon="1.90633">
        <ele>100.4</ele>
        <time>2022-11-19T10:33:18Z</time>
      </trkpt>
      <trkpt lat="49.14714" lon="1.90623">
        <ele>100.7</ele>
        <time>2022-11-19T10:33:23Z</time>
      </trkpt>
      <trkpt lat="49.14711" lon="1.9061">
        <ele>101</ele>
        <time>2022-11-19T10:33:29Z</time>
      </trkpt>
      <trkpt lat="49.14708" lon="1.90597">
        <ele>101</ele>
        <time>2022-11-19T10:33:35Z</time>
      </trkpt>
      <trkpt lat="49.14704" lon="1.90586">
        <ele>101</ele>
        <time>2022-11-19T10:33:41Z</time>
      </trkpt>
      <trkpt lat="49.14701" lon="1.90573">
        <ele>101</ele>
        <time>2022-11-19T10:33:47Z</time>
      </trkpt>
      <trkpt lat="49.14698" lon="1.90562">
        <ele>101</ele>
        <time>2022-11-19T10:33:53Z</time>
      </trkpt>
      <trkpt lat="49.14695" lon="1.90549">
        <ele>101.2</ele>
        <time>2022-11-19T10:33:59Z</time>
      </trkpt>
      <trkpt lat="49.14692" lon="1.90538">
        <ele>101.7</ele>
        <time>2022-11-19T10:34:04Z</time>
      </trkpt>
      <trkpt lat="49.14688" lon="1.90525">
        <ele>102</ele>
        <time>2022-11-19T10:34:10Z</time>
      </trkpt>
      <trkpt lat="49.14684" lon="1.90509">
        <ele>102</ele>
        <time>2022-11-19T10:34:16Z</time>
      </trkpt>
      <trkpt lat="49.14679" lon="1.90497">
        <ele>102.1</ele>
        <time>2022-11-19T10:34:21Z</time>
      </trkpt>
      <trkpt lat="49.14675" lon="1.90483">
        <ele>102.6</ele>
        <time>2022-11-19T10:34:27Z</time>
      </trkpt>
      <trkpt lat="49.14673" lon="1.90473">
        <ele>103</ele>
        <time>2022-11-19T10:34:32Z</time>
      </trkpt>
      <trkpt lat="49.14671" lon="1.9046">
        <ele>103</ele>
        <time>2022-11-19T10:34:37Z</time>
      </trkpt>
      <trkpt lat="49.14669" lon="1.90446">
        <ele>103</ele>
        <time>2022-11-19T10:34:43Z</time>
      </trkpt>
      <trkpt lat="49.14664" lon="1.90431">
        <ele>103.1</ele>
        <time>2022-11-19T10:34:49Z</time>
      </trkpt>
      <trkpt lat="49.1466" lon="1.9042">
        <ele>103.2</ele>
        <time>2022-11-19T10:34:55Z</time>
      </trkpt>
      <trkpt lat="49.14655" lon="1.90409">
        <ele>103.6</ele>
        <time>2022-11-19T10:35:01Z</time>
      </trkpt>
      <trkpt lat="49.1465" lon="1.90397">
        <ele>103.9</ele>
        <time>2022-11-19T10:35:06Z</time>
      </trkpt>
      <trkpt lat="49.14646" lon="1.90386">
        <ele>104</ele>
        <time>2022-11-19T10:35:12Z</time>
      </trkpt>
      <trkpt lat="49.14643" lon="1.90377">
        <ele>104.1</ele>
        <time>2022-11-19T10:35:17Z</time>
      </trkpt>
      <trkpt lat="49.14641" lon="1.90369">
        <ele>104.1</ele>
        <time>2022-11-19T10:35:22Z</time>
      </trkpt>
      <trkpt lat="49.14638" lon="1.90359">
        <ele>104</ele>
        <time>2022-11-19T10:35:27Z</time>
      </trkpt>
      <trkpt lat="49.14634" lon="1.90347">
        <ele>104</ele>
        <time>2022-11-19T10:35:33Z</time>
      </trkpt>
      <trkpt lat="49.1463" lon="1.90337">
        <ele>104</ele>
        <time>2022-11-19T10:35:39Z</time>
      </trkpt>
      <trkpt lat="49.14624" lon="1.90324">
        <ele>104.2</ele>
        <time>2022-11-19T10:35:45Z</time>
      </trkpt>
      <trkpt lat="49.1462" lon="1.90309">
        <ele>104.3</ele>
        <time>2022-11-19T10:35:51Z</time>
      </trkpt>
      <trkpt lat="49.14616" lon="1.90299">
        <ele>104.4</ele>
        <time>2022-11-19T10:35:56Z</time>
      </trkpt>
      <trkpt lat="49.14613" lon="1.90288">
        <ele>104.7</ele>
        <time>2022-11-19T10:36:02Z</time>
      </trkpt>
      <trkpt lat="49.14609" lon="1.90278">
        <ele>105</ele>
        <time>2022-11-19T10:36:07Z</time>
      </trkpt>
      <trkpt lat="49.14605" lon="1.90265">
        <ele>105</ele>
        <time>2022-11-19T10:36:13Z</time>
      </trkpt>
      <trkpt lat="49.14601" lon="1.90255">
        <ele>105</ele>
        <time>2022-11-19T10:36:18Z</time>
      </trkpt>
      <trkpt lat="49.14597" lon="1.90242">
        <ele>105</ele>
        <time>2022-11-19T10:36:24Z</time>
      </trkpt>
      <trkpt lat="49.14595" lon="1.90233">
        <ele>105</ele>
        <time>2022-11-19T10:36:30Z</time>
      </trkpt>
      <trkpt lat="49.1459" lon="1.90223">
        <ele>105</ele>
        <time>2022-11-19T10:36:35Z</time>
      </trkpt>
      <trkpt lat="49.14587" lon="1.90214">
        <ele>105</ele>
        <time>2022-11-19T10:36:40Z</time>
      </trkpt>
      <trkpt lat="49.14585" lon="1.90207">
        <ele>105</ele>
        <time>2022-11-19T10:36:45Z</time>
      </trkpt>
      <trkpt lat="49.1458" lon="1.90195">
        <ele>105</ele>
        <time>2022-11-19T10:36:51Z</time>
      </trkpt>
      <trkpt lat="49.14572" lon="1.90181">
        <ele>105</ele>
        <time>2022-11-19T10:36:57Z</time>
      </trkpt>
      <trkpt lat="49.14561" lon="1.90174">
        <ele>105</ele>
        <time>2022-11-19T10:37:05Z</time>
      </trkpt>
      <trkpt lat="49.14555" lon="1.90173">
        <ele>105</ele>
        <time>2022-11-19T10:37:10Z</time>
      </trkpt>
      <trkpt lat="49.14547" lon="1.90178">
        <ele>105.2</ele>
        <time>2022-11-19T10:37:16Z</time>
      </trkpt>
      <trkpt lat="49.14543" lon="1.90186">
        <ele>105.1</ele>
        <time>2022-11-19T10:37:21Z</time>
      </trkpt>
      <trkpt lat="49.14538" lon="1.90199">
        <ele>104.9</ele>
        <time>2022-11-19T10:37:27Z</time>
      </trkpt>
      <trkpt lat="49.14535" lon="1.90208">
        <ele>104.6</ele>
        <time>2022-11-19T10:37:32Z</time>
      </trkpt>
      <trkpt lat="49.1453" lon="1.90219">
        <ele>104.2</ele>
        <time>2022-11-19T10:37:38Z</time>
      </trkpt>
      <trkpt lat="49.14527" lon="1.9023">
        <ele>104</ele>
        <time>2022-11-19T10:37:43Z</time>
      </trkpt>
      <trkpt lat="49.14528" lon="1.90244">
        <ele>104</ele>
        <time>2022-11-19T10:37:49Z</time>
      </trkpt>
      <trkpt lat="49.14529" lon="1.90258">
        <ele>103.7</ele>
        <time>2022-11-19T10:37:55Z</time>
      </trkpt>
      <trkpt lat="49.1453" lon="1.90271">
        <ele>103.4</ele>
        <time>2022-11-19T10:38:00Z</time>
      </trkpt>
      <trkpt lat="49.14531" lon="1.90285">
        <ele>103.2</ele>
        <time>2022-11-19T10:38:06Z</time>
      </trkpt>
      <trkpt lat="49.14531" lon="1.90297">
        <ele>103.2</ele>
        <time>2022-11-19T10:38:11Z</time>
      </trkpt>
      <trkpt lat="49.14531" lon="1.9031">
        <ele>103.1</ele>
        <time>2022-11-19T10:38:17Z</time>
      </trkpt>
      <trkpt lat="49.1453" lon="1.90323">
        <ele>103.1</ele>
        <time>2022-11-19T10:38:22Z</time>
      </trkpt>
      <trkpt lat="49.14529" lon="1.90335">
        <ele>103</ele>
        <time>2022-11-19T10:38:27Z</time>
      </trkpt>
      <trkpt lat="49.14526" lon="1.90348">
        <ele>102.5</ele>
        <time>2022-11-19T10:38:33Z</time>
      </trkpt>
      <trkpt lat="49.14521" lon="1.90358">
        <ele>102.1</ele>
        <time>2022-11-19T10:38:38Z</time>
      </trkpt>
      <trkpt lat="49.14515" lon="1.90371">
        <ele>102</ele>
        <time>2022-11-19T10:38:44Z</time>
      </trkpt>
      <trkpt lat="49.14512" lon="1.90381">
        <ele>102</ele>
        <time>2022-11-19T10:38:49Z</time>
      </trkpt>
      <trkpt lat="49.1451" lon="1.90394">
        <ele>102</ele>
        <time>2022-11-19T10:38:55Z</time>
      </trkpt>
      <trkpt lat="49.14509" lon="1.90405">
        <ele>102</ele>
        <time>2022-11-19T10:39:00Z</time>
      </trkpt>
      <trkpt lat="49.14511" lon="1.90417">
        <ele>102</ele>
        <time>2022-11-19T10:39:06Z</time>
      </trkpt>
      <trkpt lat="49.14513" lon="1.9043">
        <ele>102</ele>
        <time>2022-11-19T10:39:12Z</time>
      </trkpt>
      <trkpt lat="49.14508" lon="1.90441">
        <ele>102</ele>
        <time>2022-11-19T10:39:18Z</time>
      </trkpt>
      <trkpt lat="49.14503" lon="1.90452">
        <ele>101.7</ele>
        <time>2022-11-19T10:39:23Z</time>
      </trkpt>
      <trkpt lat="49.14501" lon="1.90464">
        <ele>101.3</ele>
        <time>2022-11-19T10:39:29Z</time>
      </trkpt>
      <trkpt lat="49.14499" lon="1.90473">
        <ele>101</ele>
        <time>2022-11-19T10:39:34Z</time>
      </trkpt>
      <trkpt lat="49.14496" lon="1.90486">
        <ele>101</ele>
        <time>2022-11-19T10:39:40Z</time>
      </trkpt>
      <trkpt lat="49.14492" lon="1.90498">
        <ele>101</ele>
        <time>2022-11-19T10:39:46Z</time>
      </trkpt>
      <trkpt lat="49.14487" lon="1.90513">
        <ele>100.8</ele>
        <time>2022-11-19T10:39:52Z</time>
      </trkpt>
      <trkpt lat="49.14482" lon="1.90524">
        <ele>100.4</ele>
        <time>2022-11-19T10:39:57Z</time>
      </trkpt>
      <trkpt lat="49.14475" lon="1.90535">
        <ele>100.1</ele>
        <time>2022-11-19T10:40:03Z</time>
      </trkpt>
      <trkpt lat="49.14473" lon="1.90544">
        <ele>100</ele>
        <time>2022-11-19T10:40:08Z</time>
      </trkpt>
      <trkpt lat="49.1447" lon="1.90555">
        <ele>100</ele>
        <time>2022-11-19T10:40:14Z</time>
      </trkpt>
      <trkpt lat="49.14466" lon="1.90564">
        <ele>100</ele>
        <time>2022-11-19T10:40:19Z</time>
      </trkpt>
      <trkpt lat="49.14463" lon="1.90574">
        <ele>100</ele>
        <time>2022-11-19T10:40:25Z</time>
      </trkpt>
      <trkpt lat="49.1446" lon="1.90584">
        <ele>100</ele>
        <time>2022-11-19T10:40:30Z</time>
      </trkpt>
      <trkpt lat="49.14456" lon="1.90599">
        <ele>100</ele>
        <time>2022-11-19T10:40:36Z</time>
      </trkpt>
      <trkpt lat="49.14452" lon="1.90611">
        <ele>100</ele>
        <time>2022-11-19T10:40:41Z</time>
      </trkpt>
      <trkpt lat="49.14448" lon="1.90625">
        <ele>99.6</ele>
        <time>2022-11-19T10:40:47Z</time>
      </trkpt>
      <trkpt lat="49.14444" lon="1.90637">
        <ele>99.1</ele>
        <time>2022-11-19T10:40:53Z</time>
      </trkpt>
      <trkpt lat="49.14442" lon="1.90644">
        <ele>99</ele>
        <time>2022-11-19T10:40:58Z</time>
      </trkpt>
      <trkpt lat="49.14439" lon="1.90654">
        <ele>99</ele>
        <time>2022-11-19T10:41:04Z</time>
      </trkpt>
      <trkpt lat="49.14434" lon="1.90667">
        <ele>99</ele>
        <time>2022-11-19T10:41:10Z</time>
      </trkpt>
      <trkpt lat="49.1443" lon="1.9068">
        <ele>99</ele>
        <time>2022-11-19T10:41:15Z</time>
      </trkpt>
      <trkpt lat="49.14426" lon="1.90692">
        <ele>99</ele>
        <time>2022-11-19T10:41:21Z</time>
      </trkpt>
      <trkpt lat="49.14424" lon="1.90704">
        <ele>99</ele>
        <time>2022-11-19T10:41:27Z</time>
      </trkpt>
      <trkpt lat="49.14422" lon="1.90712">
        <ele>99</ele>
        <time>2022-11-19T10:41:33Z</time>
      </trkpt>
      <trkpt lat="49.1442" lon="1.90722">
        <ele>99</ele>
        <time>2022-11-19T10:41:39Z</time>
      </trkpt>
      <trkpt lat="49.14417" lon="1.90736">
        <ele>98.5</ele>
        <time>2022-11-19T10:41:45Z</time>
      </trkpt>
      <trkpt lat="49.14413" lon="1.90751">
        <ele>98</ele>
        <time>2022-11-19T10:41:51Z</time>
      </trkpt>
      <trkpt lat="49.14411" lon="1.90763">
        <ele>98</ele>
        <time>2022-11-19T10:41:56Z</time>
      </trkpt>
      <trkpt lat="49.14408" lon="1.90775">
        <ele>98</ele>
        <time>2022-11-19T10:42:01Z</time>
      </trkpt>
      <trkpt lat="49.14405" lon="1.9079">
        <ele>98</ele>
        <time>2022-11-19T10:42:07Z</time>
      </trkpt>
      <trkpt lat="49.14402" lon="1.90803">
        <ele>98</ele>
        <time>2022-11-19T10:42:12Z</time>
      </trkpt>
      <trkpt lat="49.14399" lon="1.90813">
        <ele>97.8</ele>
        <time>2022-11-19T10:42:17Z</time>
      </trkpt>
      <trkpt lat="49.14397" lon="1.90823">
        <ele>97.6</ele>
        <time>2022-11-19T10:42:22Z</time>
      </trkpt>
      <trkpt lat="49.14395" lon="1.90833">
        <ele>97.2</ele>
        <time>2022-11-19T10:42:27Z</time>
      </trkpt>
      <trkpt lat="49.14392" lon="1.90844">
        <ele>97.1</ele>
        <time>2022-11-19T10:42:33Z</time>
      </trkpt>
      <trkpt lat="49.1439" lon="1.90855">
        <ele>97</ele>
        <time>2022-11-19T10:42:38Z</time>
      </trkpt>
      <trkpt lat="49.14386" lon="1.90867">
        <ele>97</ele>
        <time>2022-11-19T10:42:44Z</time>
      </trkpt>
      <trkpt lat="49.14385" lon="1.90876">
        <ele>97</ele>
        <time>2022-11-19T10:42:49Z</time>
      </trkpt>
      <trkpt lat="49.14382" lon="1.90889">
        <ele>97</ele>
        <time>2022-11-19T10:42:55Z</time>
      </trkpt>
      <trkpt lat="49.1438" lon="1.90899">
        <ele>97</ele>
        <time>2022-11-19T10:43:00Z</time>
      </trkpt>
      <trkpt lat="49.14379" lon="1.90913">
        <ele>97</ele>
        <time>2022-11-19T10:43:06Z</time>
      </trkpt>
      <trkpt lat="49.14376" lon="1.90928">
        <ele>96.8</ele>
        <time>2022-11-19T10:43:12Z</time>
      </trkpt>
      <trkpt lat="49.14373" lon="1.90943">
        <ele>96.5</ele>
        <time>2022-11-19T10:43:18Z</time>
      </trkpt>
      <trkpt lat="49.14371" lon="1.90956">
        <ele>96.2</ele>
        <time>2022-11-19T10:43:24Z</time>
      </trkpt>
      <trkpt lat="49.14367" lon="1.90968">
        <ele>96</ele>
        <time>2022-11-19T10:43:29Z</time>
      </trkpt>
      <trkpt lat="49.14364" lon="1.90978">
        <ele>95.8</ele>
        <time>2022-11-19T10:43:34Z</time>
      </trkpt>
      <trkpt lat="49.14361" lon="1.90992">
        <ele>95.3</ele>
        <time>2022-11-19T10:43:40Z</time>
      </trkpt>
      <trkpt lat="49.14358" lon="1.91001">
        <ele>95</ele>
        <time>2022-11-19T10:43:45Z</time>
      </trkpt>
      <trkpt lat="49.14356" lon="1.91013">
        <ele>95</ele>
        <time>2022-11-19T10:43:51Z</time>
      </trkpt>
      <trkpt lat="49.14353" lon="1.91026">
        <ele>95</ele>
        <time>2022-11-19T10:43:57Z</time>
      </trkpt>
      <trkpt lat="49.1435" lon="1.91037">
        <ele>94.9</ele>
        <time>2022-11-19T10:44:03Z</time>
      </trkpt>
      <trkpt lat="49.14348" lon="1.91047">
        <ele>94.7</ele>
        <time>2022-11-19T10:44:09Z</time>
      </trkpt>
      <trkpt lat="49.14346" lon="1.91058">
        <ele>94.5</ele>
        <time>2022-11-19T10:44:14Z</time>
      </trkpt>
      <trkpt lat="49.14342" lon="1.91072">
        <ele>94.3</ele>
        <time>2022-11-19T10:44:20Z</time>
      </trkpt>
      <trkpt lat="49.14339" lon="1.91082">
        <ele>94.2</ele>
        <time>2022-11-19T10:44:25Z</time>
      </trkpt>
      <trkpt lat="49.14336" lon="1.91095">
        <ele>94.1</ele>
        <time>2022-11-19T10:44:31Z</time>
      </trkpt>
      <trkpt lat="49.14331" lon="1.91105">
        <ele>93.9</ele>
        <time>2022-11-19T10:44:36Z</time>
      </trkpt>
      <trkpt lat="49.14327" lon="1.91117">
        <ele>93.8</ele>
        <time>2022-11-19T10:44:42Z</time>
      </trkpt>
      <trkpt lat="49.14324" lon="1.91126">
        <ele>93.7</ele>
        <time>2022-11-19T10:44:47Z</time>
      </trkpt>
      <trkpt lat="49.14318" lon="1.91136">
        <ele>93.5</ele>
        <time>2022-11-19T10:44:52Z</time>
      </trkpt>
      <trkpt lat="49.14312" lon="1.91146">
        <ele>93.2</ele>
        <time>2022-11-19T10:44:58Z</time>
      </trkpt>
      <trkpt lat="49.14308" lon="1.91152">
        <ele>93.1</ele>
        <time>2022-11-19T10:45:03Z</time>
      </trkpt>
      <trkpt lat="49.14299" lon="1.91163">
        <ele>92.8</ele>
        <time>2022-11-19T10:45:09Z</time>
      </trkpt>
      <trkpt lat="49.14294" lon="1.91169">
        <ele>92.6</ele>
        <time>2022-11-19T10:45:14Z</time>
      </trkpt>
      <trkpt lat="49.14287" lon="1.91176">
        <ele>92.5</ele>
        <time>2022-11-19T10:45:20Z</time>
      </trkpt>
      <trkpt lat="49.14283" lon="1.91184">
        <ele>92.3</ele>
        <time>2022-11-19T10:45:25Z</time>
      </trkpt>
      <trkpt lat="49.14279" lon="1.91197">
        <ele>92.1</ele>
        <time>2022-11-19T10:45:31Z</time>
      </trkpt>
      <trkpt lat="49.14277" lon="1.91209">
        <ele>91.9</ele>
        <time>2022-11-19T10:45:37Z</time>
      </trkpt>
      <trkpt lat="49.14276" lon="1.91219">
        <ele>91.9</ele>
        <time>2022-11-19T10:45:42Z</time>
      </trkpt>
      <trkpt lat="49.14273" lon="1.91231">
        <ele>91.7</ele>
        <time>2022-11-19T10:45:48Z</time>
      </trkpt>
      <trkpt lat="49.14271" lon="1.9124">
        <ele>91.5</ele>
        <time>2022-11-19T10:45:53Z</time>
      </trkpt>
      <trkpt lat="49.14269" lon="1.91251">
        <ele>91.4</ele>
        <time>2022-11-19T10:45:59Z</time>
      </trkpt>
      <trkpt lat="49.14265" lon="1.91263">
        <ele>91.6</ele>
        <time>2022-11-19T10:46:05Z</time>
      </trkpt>
      <trkpt lat="49.14262" lon="1.91274">
        <ele>91.7</ele>
        <time>2022-11-19T10:46:10Z</time>
      </trkpt>
      <trkpt lat="49.14258" lon="1.91289">
        <ele>91.6</ele>
        <time>2022-11-19T10:46:16Z</time>
      </trkpt>
      <trkpt lat="49.14253" lon="1.91303">
        <ele>91.2</ele>
        <time>2022-11-19T10:46:22Z</time>
      </trkpt>
      <trkpt lat="49.14249" lon="1.91318">
        <ele>91</ele>
        <time>2022-11-19T10:46:28Z</time>
      </trkpt>
      <trkpt lat="49.14244" lon="1.91333">
        <ele>90.8</ele>
        <time>2022-11-19T10:46:34Z</time>
      </trkpt>
      <trkpt lat="49.1424" lon="1.91349">
        <ele>90.6</ele>
        <time>2022-11-19T10:46:40Z</time>
      </trkpt>
      <trkpt lat="49.14239" lon="1.91361">
        <ele>90.6</ele>
        <time>2022-11-19T10:46:45Z</time>
      </trkpt>
      <trkpt lat="49.14241" lon="1.91371">
        <ele>90.6</ele>
        <time>2022-11-19T10:46:51Z</time>
      </trkpt>
      <trkpt lat="49.14241" lon="1.91383">
        <ele>90.4</ele>
        <time>2022-11-19T10:46:57Z</time>
      </trkpt>
      <trkpt lat="49.14239" lon="1.91397">
        <ele>90</ele>
        <time>2022-11-19T10:47:03Z</time>
      </trkpt>
      <trkpt lat="49.14237" lon="1.91409">
        <ele>89.7</ele>
        <time>2022-11-19T10:47:08Z</time>
      </trkpt>
      <trkpt lat="49.14235" lon="1.91428">
        <ele>89.5</ele>
        <time>2022-11-19T10:47:14Z</time>
      </trkpt>
      <trkpt lat="49.14235" lon="1.91442">
        <ele>89.5</ele>
        <time>2022-11-19T10:47:19Z</time>
      </trkpt>
      <trkpt lat="49.14233" lon="1.91458">
        <ele>89.4</ele>
        <time>2022-11-19T10:47:25Z</time>
      </trkpt>
      <trkpt lat="49.1423" lon="1.9147">
        <ele>89.3</ele>
        <time>2022-11-19T10:47:31Z</time>
      </trkpt>
      <trkpt lat="49.14225" lon="1.91482">
        <ele>89.4</ele>
        <time>2022-11-19T10:47:37Z</time>
      </trkpt>
      <trkpt lat="49.14219" lon="1.9149">
        <ele>89.3</ele>
        <time>2022-11-19T10:47:43Z</time>
      </trkpt>
      <trkpt lat="49.14216" lon="1.915">
        <ele>89.1</ele>
        <time>2022-11-19T10:47:48Z</time>
      </trkpt>
      <trkpt lat="49.14212" lon="1.91513">
        <ele>89.1</ele>
        <time>2022-11-19T10:47:54Z</time>
      </trkpt>
      <trkpt lat="49.14209" lon="1.91525">
        <ele>89.4</ele>
        <time>2022-11-19T10:48:00Z</time>
      </trkpt>
      <trkpt lat="49.14207" lon="1.91536">
        <ele>89.7</ele>
        <time>2022-11-19T10:48:05Z</time>
      </trkpt>
      <trkpt lat="49.14205" lon="1.91552">
        <ele>90</ele>
        <time>2022-11-19T10:48:11Z</time>
      </trkpt>
      <trkpt lat="49.14204" lon="1.91568">
        <ele>90.4</ele>
        <time>2022-11-19T10:48:18Z</time>
      </trkpt>
      <trkpt lat="49.14205" lon="1.91578">
        <ele>90.6</ele>
        <time>2022-11-19T10:48:23Z</time>
      </trkpt>
      <trkpt lat="49.14203" lon="1.91589">
        <ele>90.9</ele>
        <time>2022-11-19T10:48:28Z</time>
      </trkpt>
      <trkpt lat="49.14201" lon="1.91604">
        <ele>91.2</ele>
        <time>2022-11-19T10:48:34Z</time>
      </trkpt>
      <trkpt lat="49.14198" lon="1.91618">
        <ele>91.4</ele>
        <time>2022-11-19T10:48:40Z</time>
      </trkpt>
      <trkpt lat="49.14196" lon="1.91629">
        <ele>91.7</ele>
        <time>2022-11-19T10:48:45Z</time>
      </trkpt>
      <trkpt lat="49.14193" lon="1.91642">
        <ele>92</ele>
        <time>2022-11-19T10:48:51Z</time>
      </trkpt>
      <trkpt lat="49.14192" lon="1.91653">
        <ele>92.1</ele>
        <time>2022-11-19T10:48:56Z</time>
      </trkpt>
      <trkpt lat="49.14189" lon="1.91664">
        <ele>92.3</ele>
        <time>2022-11-19T10:49:02Z</time>
      </trkpt>
      <trkpt lat="49.14187" lon="1.91674">
        <ele>92.2</ele>
        <time>2022-11-19T10:49:07Z</time>
      </trkpt>
      <trkpt lat="49.14184" lon="1.91685">
        <ele>91.9</ele>
        <time>2022-11-19T10:49:13Z</time>
      </trkpt>
      <trkpt lat="49.14182" lon="1.91696">
        <ele>91.7</ele>
        <time>2022-11-19T10:49:19Z</time>
      </trkpt>
      <trkpt lat="49.14179" lon="1.91706">
        <ele>91.8</ele>
        <time>2022-11-19T10:49:24Z</time>
      </trkpt>
      <trkpt lat="49.14176" lon="1.91716">
        <ele>92</ele>
        <time>2022-11-19T10:49:30Z</time>
      </trkpt>
      <trkpt lat="49.14172" lon="1.91728">
        <ele>92.2</ele>
        <time>2022-11-19T10:49:36Z</time>
      </trkpt>
      <trkpt lat="49.14168" lon="1.91738">
        <ele>92.1</ele>
        <time>2022-11-19T10:49:41Z</time>
      </trkpt>
      <trkpt lat="49.14162" lon="1.91753">
        <ele>91.6</ele>
        <time>2022-11-19T10:49:47Z</time>
      </trkpt>
      <trkpt lat="49.14158" lon="1.91763">
        <ele>91.7</ele>
        <time>2022-11-19T10:49:52Z</time>
      </trkpt>
      <trkpt lat="49.14153" lon="1.91775">
        <ele>91.9</ele>
        <time>2022-11-19T10:49:58Z</time>
      </trkpt>
      <trkpt lat="49.14148" lon="1.9179">
        <ele>92.4</ele>
        <time>2022-11-19T10:50:05Z</time>
      </trkpt>
      <trkpt lat="49.14145" lon="1.918">
        <ele>92.9</ele>
        <time>2022-11-19T10:50:10Z</time>
      </trkpt>
      <trkpt lat="49.1414" lon="1.91812">
        <ele>93.1</ele>
        <time>2022-11-19T10:50:16Z</time>
      </trkpt>
      <trkpt lat="49.14135" lon="1.91822">
        <ele>92.8</ele>
        <time>2022-11-19T10:50:21Z</time>
      </trkpt>
      <trkpt lat="49.1413" lon="1.91837">
        <ele>92.8</ele>
        <time>2022-11-19T10:50:27Z</time>
      </trkpt>
      <trkpt lat="49.14125" lon="1.91848">
        <ele>93</ele>
        <time>2022-11-19T10:50:33Z</time>
      </trkpt>
      <trkpt lat="49.14121" lon="1.9186">
        <ele>93.3</ele>
        <time>2022-11-19T10:50:39Z</time>
      </trkpt>
      <trkpt lat="49.14117" lon="1.91873">
        <ele>93.6</ele>
        <time>2022-11-19T10:50:45Z</time>
      </trkpt>
      <trkpt lat="49.14114" lon="1.91882">
        <ele>93.8</ele>
        <time>2022-11-19T10:50:50Z</time>
      </trkpt>
      <trkpt lat="49.1411" lon="1.91891">
        <ele>93.9</ele>
        <time>2022-11-19T10:50:56Z</time>
      </trkpt>
      <trkpt lat="49.14106" lon="1.91901">
        <ele>93.7</ele>
        <time>2022-11-19T10:51:02Z</time>
      </trkpt>
      <trkpt lat="49.14103" lon="1.91912">
        <ele>93.7</ele>
        <time>2022-11-19T10:51:08Z</time>
      </trkpt>
      <trkpt lat="49.141" lon="1.91922">
        <ele>93.8</ele>
        <time>2022-11-19T10:51:13Z</time>
      </trkpt>
      <trkpt lat="49.14096" lon="1.91934">
        <ele>94.1</ele>
        <time>2022-11-19T10:51:18Z</time>
      </trkpt>
      <trkpt lat="49.14092" lon="1.91947">
        <ele>94.4</ele>
        <time>2022-11-19T10:51:23Z</time>
      </trkpt>
      <trkpt lat="49.14085" lon="1.91961">
        <ele>94.6</ele>
        <time>2022-11-19T10:51:29Z</time>
      </trkpt>
      <trkpt lat="49.14081" lon="1.91973">
        <ele>94.8</ele>
        <time>2022-11-19T10:51:34Z</time>
      </trkpt>
      <trkpt lat="49.14076" lon="1.91985">
        <ele>94.6</ele>
        <time>2022-11-19T10:51:40Z</time>
      </trkpt>
      <trkpt lat="49.14071" lon="1.91997">
        <ele>94.5</ele>
        <time>2022-11-19T10:51:46Z</time>
      </trkpt>
      <trkpt lat="49.14067" lon="1.92008">
        <ele>94.6</ele>
        <time>2022-11-19T10:51:52Z</time>
      </trkpt>
      <trkpt lat="49.14065" lon="1.92017">
        <ele>94.7</ele>
        <time>2022-11-19T10:51:57Z</time>
      </trkpt>
      <trkpt lat="49.14061" lon="1.92028">
        <ele>95</ele>
        <time>2022-11-19T10:52:03Z</time>
      </trkpt>
      <trkpt lat="49.14057" lon="1.92038">
        <ele>95</ele>
        <time>2022-11-19T10:52:08Z</time>
      </trkpt>
      <trkpt lat="49.14054" lon="1.92049">
        <ele>94.9</ele>
        <time>2022-11-19T10:52:14Z</time>
      </trkpt>
      <trkpt lat="49.1405" lon="1.9206">
        <ele>95</ele>
        <time>2022-11-19T10:52:20Z</time>
      </trkpt>
      <trkpt lat="49.14045" lon="1.92074">
        <ele>95.3</ele>
        <time>2022-11-19T10:52:26Z</time>
      </trkpt>
      <trkpt lat="49.1404" lon="1.92087">
        <ele>95.5</ele>
        <time>2022-11-19T10:52:31Z</time>
      </trkpt>
      <trkpt lat="49.14036" lon="1.92099">
        <ele>95.7</ele>
        <time>2022-11-19T10:52:37Z</time>
      </trkpt>
      <trkpt lat="49.14033" lon="1.92109">
        <ele>95.9</ele>
        <time>2022-11-19T10:52:43Z</time>
      </trkpt>
      <trkpt lat="49.14029" lon="1.92118">
        <ele>96</ele>
        <time>2022-11-19T10:52:49Z</time>
      </trkpt>
      <trkpt lat="49.14026" lon="1.92128">
        <ele>95.9</ele>
        <time>2022-11-19T10:52:54Z</time>
      </trkpt>
      <trkpt lat="49.14022" lon="1.92139">
        <ele>95.8</ele>
        <time>2022-11-19T10:52:59Z</time>
      </trkpt>
      <trkpt lat="49.14018" lon="1.9215">
        <ele>95.8</ele>
        <time>2022-11-19T10:53:04Z</time>
      </trkpt>
      <trkpt lat="49.14013" lon="1.92162">
        <ele>95.9</ele>
        <time>2022-11-19T10:53:10Z</time>
      </trkpt>
      <trkpt lat="49.14009" lon="1.92173">
        <ele>96.2</ele>
        <time>2022-11-19T10:53:16Z</time>
      </trkpt>
      <trkpt lat="49.14006" lon="1.92182">
        <ele>96.5</ele>
        <time>2022-11-19T10:53:21Z</time>
      </trkpt>
      <trkpt lat="49.14003" lon="1.9219">
        <ele>96.8</ele>
        <time>2022-11-19T10:53:26Z</time>
      </trkpt>
      <trkpt lat="49.13998" lon="1.92201">
        <ele>96.9</ele>
        <time>2022-11-19T10:53:32Z</time>
      </trkpt>
      <trkpt lat="49.13993" lon="1.9221">
        <ele>96.8</ele>
        <time>2022-11-19T10:53:37Z</time>
      </trkpt>
      <trkpt lat="49.13987" lon="1.92221">
        <ele>96.5</ele>
        <time>2022-11-19T10:53:43Z</time>
      </trkpt>
      <trkpt lat="49.13981" lon="1.92233">
        <ele>96.6</ele>
        <time>2022-11-19T10:53:49Z</time>
      </trkpt>
      <trkpt lat="49.13976" lon="1.92244">
        <ele>96.8</ele>
        <time>2022-11-19T10:53:55Z</time>
      </trkpt>
      <trkpt lat="49.13972" lon="1.92252">
        <ele>97</ele>
        <time>2022-11-19T10:54:00Z</time>
      </trkpt>
      <trkpt lat="49.13967" lon="1.92261">
        <ele>96.8</ele>
        <time>2022-11-19T10:54:06Z</time>
      </trkpt>
      <trkpt lat="49.13962" lon="1.9227">
        <ele>96.6</ele>
        <time>2022-11-19T10:54:11Z</time>
      </trkpt>
      <trkpt lat="49.13957" lon="1.92282">
        <ele>96.5</ele>
        <time>2022-11-19T10:54:16Z</time>
      </trkpt>
      <trkpt lat="49.13951" lon="1.92293">
        <ele>96.7</ele>
        <time>2022-11-19T10:54:22Z</time>
      </trkpt>
      <trkpt lat="49.13947" lon="1.92302">
        <ele>96.9</ele>
        <time>2022-11-19T10:54:28Z</time>
      </trkpt>
      <trkpt lat="49.13944" lon="1.92309">
        <ele>97</ele>
        <time>2022-11-19T10:54:33Z</time>
      </trkpt>
      <trkpt lat="49.1394" lon="1.92319">
        <ele>96.9</ele>
        <time>2022-11-19T10:54:39Z</time>
      </trkpt>
      <trkpt lat="49.13934" lon="1.92332">
        <ele>97</ele>
        <time>2022-11-19T10:54:45Z</time>
      </trkpt>
      <trkpt lat="49.13929" lon="1.92343">
        <ele>97</ele>
        <time>2022-11-19T10:54:50Z</time>
      </trkpt>
      <trkpt lat="49.13925" lon="1.92353">
        <ele>97</ele>
        <time>2022-11-19T10:54:55Z</time>
      </trkpt>
      <trkpt lat="49.1392" lon="1.92362">
        <ele>97</ele>
        <time>2022-11-19T10:55:00Z</time>
      </trkpt>
      <trkpt lat="49.13914" lon="1.92372">
        <ele>97</ele>
        <time>2022-11-19T10:55:06Z</time>
      </trkpt>
      <trkpt lat="49.1391" lon="1.92379">
        <ele>97</ele>
        <time>2022-11-19T10:55:11Z</time>
      </trkpt>
      <trkpt lat="49.13907" lon="1.92386">
        <ele>97</ele>
        <time>2022-11-19T10:55:16Z</time>
      </trkpt>
      <trkpt lat="49.13903" lon="1.92392">
        <ele>97</ele>
        <time>2022-11-19T10:55:21Z</time>
      </trkpt>
      <trkpt lat="49.13898" lon="1.92403">
        <ele>97</ele>
        <time>2022-11-19T10:55:27Z</time>
      </trkpt>
      <trkpt lat="49.13893" lon="1.92412">
        <ele>97</ele>
        <time>2022-11-19T10:55:32Z</time>
      </trkpt>
      <trkpt lat="49.13886" lon="1.9242">
        <ele>97</ele>
        <time>2022-11-19T10:55:38Z</time>
      </trkpt>
      <trkpt lat="49.13879" lon="1.92432">
        <ele>97</ele>
        <time>2022-11-19T10:55:44Z</time>
      </trkpt>
      <trkpt lat="49.13873" lon="1.92441">
        <ele>97</ele>
        <time>2022-11-19T10:55:49Z</time>
      </trkpt>
      <trkpt lat="49.13866" lon="1.92451">
        <ele>97</ele>
        <time>2022-11-19T10:55:55Z</time>
      </trkpt>
      <trkpt lat="49.1386" lon="1.92457">
        <ele>97</ele>
        <time>2022-11-19T10:56:00Z</time>
      </trkpt>
      <trkpt lat="49.13853" lon="1.92464">
        <ele>97</ele>
        <time>2022-11-19T10:56:06Z</time>
      </trkpt>
      <trkpt lat="49.13847" lon="1.9247">
        <ele>97</ele>
        <time>2022-11-19T10:56:11Z</time>
      </trkpt>
      <trkpt lat="49.13841" lon="1.92479">
        <ele>97</ele>
        <time>2022-11-19T10:56:17Z</time>
      </trkpt>
      <trkpt lat="49.13835" lon="1.92488">
        <ele>97</ele>
        <time>2022-11-19T10:56:23Z</time>
      </trkpt>
      <trkpt lat="49.13828" lon="1.92497">
        <ele>97</ele>
        <time>2022-11-19T10:56:29Z</time>
      </trkpt>
      <trkpt lat="49.13819" lon="1.92506">
        <ele>97</ele>
        <time>2022-11-19T10:56:35Z</time>
      </trkpt>
      <trkpt lat="49.13812" lon="1.92514">
        <ele>97</ele>
        <time>2022-11-19T10:56:41Z</time>
      </trkpt>
      <trkpt lat="49.13808" lon="1.9252">
        <ele>97</ele>
        <time>2022-11-19T10:56:46Z</time>
      </trkpt>
      <trkpt lat="49.13804" lon="1.92526">
        <ele>96.9</ele>
        <time>2022-11-19T10:56:51Z</time>
      </trkpt>
      <trkpt lat="49.13799" lon="1.92535">
        <ele>96.8</ele>
        <time>2022-11-19T10:56:57Z</time>
      </trkpt>
      <trkpt lat="49.13792" lon="1.92545">
        <ele>96.8</ele>
        <time>2022-11-19T10:57:03Z</time>
      </trkpt>
      <trkpt lat="49.13785" lon="1.92554">
        <ele>97</ele>
        <time>2022-11-19T10:57:08Z</time>
      </trkpt>
      <trkpt lat="49.13779" lon="1.92566">
        <ele>97</ele>
        <time>2022-11-19T10:57:14Z</time>
      </trkpt>
      <trkpt lat="49.13774" lon="1.92577">
        <ele>96.9</ele>
        <time>2022-11-19T10:57:20Z</time>
      </trkpt>
      <trkpt lat="49.1377" lon="1.92584">
        <ele>96.7</ele>
        <time>2022-11-19T10:57:25Z</time>
      </trkpt>
      <trkpt lat="49.13766" lon="1.92594">
        <ele>96.6</ele>
        <time>2022-11-19T10:57:31Z</time>
      </trkpt>
      <trkpt lat="49.1376" lon="1.92608">
        <ele>96.4</ele>
        <time>2022-11-19T10:57:37Z</time>
      </trkpt>
      <trkpt lat="49.13755" lon="1.9262">
        <ele>96.2</ele>
        <time>2022-11-19T10:57:42Z</time>
      </trkpt>
      <trkpt lat="49.13751" lon="1.92633">
        <ele>96</ele>
        <time>2022-11-19T10:57:48Z</time>
      </trkpt>
      <trkpt lat="49.13748" lon="1.92643">
        <ele>95.9</ele>
        <time>2022-11-19T10:57:54Z</time>
      </trkpt>
      <trkpt lat="49.13745" lon="1.92653">
        <ele>95.9</ele>
        <time>2022-11-19T10:58:00Z</time>
      </trkpt>
      <trkpt lat="49.13743" lon="1.92662">
        <ele>96</ele>
        <time>2022-11-19T10:58:05Z</time>
      </trkpt>
      <trkpt lat="49.13738" lon="1.92675">
        <ele>96</ele>
        <time>2022-11-19T10:58:11Z</time>
      </trkpt>
      <trkpt lat="49.13734" lon="1.92688">
        <ele>96</ele>
        <time>2022-11-19T10:58:17Z</time>
      </trkpt>
      <trkpt lat="49.13732" lon="1.927">
        <ele>96</ele>
        <time>2022-11-19T10:58:23Z</time>
      </trkpt>
      <trkpt lat="49.13728" lon="1.92715">
        <ele>96</ele>
        <time>2022-11-19T10:58:28Z</time>
      </trkpt>
      <trkpt lat="49.13725" lon="1.92726">
        <ele>96</ele>
        <time>2022-11-19T10:58:33Z</time>
      </trkpt>
      <trkpt lat="49.13723" lon="1.92741">
        <ele>96</ele>
        <time>2022-11-19T10:58:39Z</time>
      </trkpt>
      <trkpt lat="49.13722" lon="1.92752">
        <ele>96</ele>
        <time>2022-11-19T10:58:44Z</time>
      </trkpt>
      <trkpt lat="49.1372" lon="1.92766">
        <ele>95.9</ele>
        <time>2022-11-19T10:58:50Z</time>
      </trkpt>
      <trkpt lat="49.13719" lon="1.92778">
        <ele>95.9</ele>
        <time>2022-11-19T10:58:56Z</time>
      </trkpt>
      <trkpt lat="49.13718" lon="1.92788">
        <ele>95.9</ele>
        <time>2022-11-19T10:59:01Z</time>
      </trkpt>
      <trkpt lat="49.13717" lon="1.928">
        <ele>95.8</ele>
        <time>2022-11-19T10:59:06Z</time>
      </trkpt>
      <trkpt lat="49.13715" lon="1.92812">
        <ele>95.8</ele>
        <time>2022-11-19T10:59:12Z</time>
      </trkpt>
      <trkpt lat="49.13715" lon="1.92824">
        <ele>95.8</ele>
        <time>2022-11-19T10:59:17Z</time>
      </trkpt>
      <trkpt lat="49.13715" lon="1.92837">
        <ele>95.7</ele>
        <time>2022-11-19T10:59:22Z</time>
      </trkpt>
      <trkpt lat="49.13713" lon="1.92851">
        <ele>95.7</ele>
        <time>2022-11-19T10:59:28Z</time>
      </trkpt>
      <trkpt lat="49.13715" lon="1.92866">
        <ele>95.8</ele>
        <time>2022-11-19T10:59:34Z</time>
      </trkpt>
      <trkpt lat="49.13716" lon="1.92883">
        <ele>95.8</ele>
        <time>2022-11-19T10:59:40Z</time>
      </trkpt>
      <trkpt lat="49.13715" lon="1.92895">
        <ele>95.7</ele>
        <time>2022-11-19T10:59:45Z</time>
      </trkpt>
      <trkpt lat="49.13715" lon="1.92909">
        <ele>95.7</ele>
        <time>2022-11-19T10:59:50Z</time>
      </trkpt>
      <trkpt lat="49.13716" lon="1.92923">
        <ele>95.8</ele>
        <time>2022-11-19T10:59:56Z</time>
      </trkpt>
      <trkpt lat="49.13715" lon="1.92939">
        <ele>95.7</ele>
        <time>2022-11-19T11:00:02Z</time>
      </trkpt>
      <trkpt lat="49.13717" lon="1.92951">
        <ele>95.6</ele>
        <time>2022-11-19T11:00:07Z</time>
      </trkpt>
      <trkpt lat="49.13718" lon="1.92963">
        <ele>95.3</ele>
        <time>2022-11-19T11:00:13Z</time>
      </trkpt>
      <trkpt lat="49.1372" lon="1.92978">
        <ele>95</ele>
        <time>2022-11-19T11:00:19Z</time>
      </trkpt>
      <trkpt lat="49.13721" lon="1.92988">
        <ele>95</ele>
        <time>2022-11-19T11:00:24Z</time>
      </trkpt>
      <trkpt lat="49.13724" lon="1.92998">
        <ele>95</ele>
        <time>2022-11-19T11:00:29Z</time>
      </trkpt>
      <trkpt lat="49.13726" lon="1.9301">
        <ele>95</ele>
        <time>2022-11-19T11:00:35Z</time>
      </trkpt>
      <trkpt lat="49.13729" lon="1.93026">
        <ele>95</ele>
        <time>2022-11-19T11:00:41Z</time>
      </trkpt>
      <trkpt lat="49.13732" lon="1.9304">
        <ele>94.6</ele>
        <time>2022-11-19T11:00:46Z</time>
      </trkpt>
      <trkpt lat="49.13735" lon="1.93051">
        <ele>94.2</ele>
        <time>2022-11-19T11:00:51Z</time>
      </trkpt>
      <trkpt lat="49.13739" lon="1.93066">
        <ele>94</ele>
        <time>2022-11-19T11:00:57Z</time>
      </trkpt>
      <trkpt lat="49.13742" lon="1.93077">
        <ele>94</ele>
        <time>2022-11-19T11:01:02Z</time>
      </trkpt>
      <trkpt lat="49.13744" lon="1.9309">
        <ele>94</ele>
        <time>2022-11-19T11:01:07Z</time>
      </trkpt>
      <trkpt lat="49.13745" lon="1.93103">
        <ele>94</ele>
        <time>2022-11-19T11:01:13Z</time>
      </trkpt>
      <trkpt lat="49.13744" lon="1.93115">
        <ele>93.9</ele>
        <time>2022-11-19T11:01:19Z</time>
      </trkpt>
      <trkpt lat="49.13745" lon="1.93126">
        <ele>93.5</ele>
        <time>2022-11-19T11:01:24Z</time>
      </trkpt>
      <trkpt lat="49.13746" lon="1.93137">
        <ele>93.1</ele>
        <time>2022-11-19T11:01:29Z</time>
      </trkpt>
      <trkpt lat="49.13746" lon="1.9315">
        <ele>93</ele>
        <time>2022-11-19T11:01:34Z</time>
      </trkpt>
      <trkpt lat="49.13745" lon="1.93164">
        <ele>93</ele>
        <time>2022-11-19T11:01:39Z</time>
      </trkpt>
      <trkpt lat="49.13744" lon="1.93177">
        <ele>93</ele>
        <time>2022-11-19T11:01:44Z</time>
      </trkpt>
      <trkpt lat="49.13743" lon="1.93193">
        <ele>93</ele>
        <time>2022-11-19T11:01:50Z</time>
      </trkpt>
      <trkpt lat="49.13742" lon="1.93204">
        <ele>92.8</ele>
        <time>2022-11-19T11:01:55Z</time>
      </trkpt>
      <trkpt lat="49.1374" lon="1.93217">
        <ele>92.5</ele>
        <time>2022-11-19T11:02:01Z</time>
      </trkpt>
      <trkpt lat="49.13738" lon="1.93227">
        <ele>92.3</ele>
        <time>2022-11-19T11:02:06Z</time>
      </trkpt>
      <trkpt lat="49.13738" lon="1.93242">
        <ele>92.1</ele>
        <time>2022-11-19T11:02:12Z</time>
      </trkpt>
      <trkpt lat="49.13738" lon="1.93254">
        <ele>91.9</ele>
        <time>2022-11-19T11:02:17Z</time>
      </trkpt>
      <trkpt lat="49.13737" lon="1.93265">
        <ele>91.7</ele>
        <time>2022-11-19T11:02:22Z</time>
      </trkpt>
      <trkpt lat="49.13734" lon="1.93279">
        <ele>91.6</ele>
        <time>2022-11-19T11:02:28Z</time>
      </trkpt>
      <trkpt lat="49.13732" lon="1.93293">
        <ele>91.6</ele>
        <time>2022-11-19T11:02:34Z</time>
      </trkpt>
      <trkpt lat="49.13732" lon="1.93307">
        <ele>91.6</ele>
        <time>2022-11-19T11:02:39Z</time>
      </trkpt>
      <trkpt lat="49.13731" lon="1.9332">
        <ele>91.3</ele>
        <time>2022-11-19T11:02:44Z</time>
      </trkpt>
      <trkpt lat="49.1373" lon="1.93335">
        <ele>91</ele>
        <time>2022-11-19T11:02:50Z</time>
      </trkpt>
      <trkpt lat="49.13729" lon="1.93349">
        <ele>90.9</ele>
        <time>2022-11-19T11:02:56Z</time>
      </trkpt>
      <trkpt lat="49.13729" lon="1.93363">
        <ele>90.7</ele>
        <time>2022-11-19T11:03:02Z</time>
      </trkpt>
      <trkpt lat="49.13728" lon="1.93375">
        <ele>90.3</ele>
        <time>2022-11-19T11:03:08Z</time>
      </trkpt>
      <trkpt lat="49.13726" lon="1.93388">
        <ele>89.9</ele>
        <time>2022-11-19T11:03:14Z</time>
      </trkpt>
      <trkpt lat="49.13724" lon="1.93402">
        <ele>89.5</ele>
        <time>2022-11-19T11:03:19Z</time>
      </trkpt>
      <trkpt lat="49.13722" lon="1.93415">
        <ele>89</ele>
        <time>2022-11-19T11:03:24Z</time>
      </trkpt>
      <trkpt lat="49.1372" lon="1.9343">
        <ele>88.6</ele>
        <time>2022-11-19T11:03:30Z</time>
      </trkpt>
      <trkpt lat="49.13719" lon="1.93443">
        <ele>88.2</ele>
        <time>2022-11-19T11:03:35Z</time>
      </trkpt>
      <trkpt lat="49.13717" lon="1.93454">
        <ele>87.9</ele>
        <time>2022-11-19T11:03:40Z</time>
      </trkpt>
      <trkpt lat="49.13714" lon="1.93466">
        <ele>87.7</ele>
        <time>2022-11-19T11:03:45Z</time>
      </trkpt>
      <trkpt lat="49.13712" lon="1.93476">
        <ele>87.6</ele>
        <time>2022-11-19T11:03:51Z</time>
      </trkpt>
      <trkpt lat="49.13708" lon="1.93487">
        <ele>87.5</ele>
        <time>2022-11-19T11:03:57Z</time>
      </trkpt>
      <trkpt lat="49.13703" lon="1.93499">
        <ele>87.4</ele>
        <time>2022-11-19T11:04:03Z</time>
      </trkpt>
      <trkpt lat="49.13699" lon="1.93507">
        <ele>87</ele>
        <time>2022-11-19T11:04:08Z</time>
      </trkpt>
      <trkpt lat="49.13693" lon="1.93517">
        <ele>86.2</ele>
        <time>2022-11-19T11:04:14Z</time>
      </trkpt>
      <trkpt lat="49.13691" lon="1.93525">
        <ele>85.6</ele>
        <time>2022-11-19T11:04:20Z</time>
      </trkpt>
      <trkpt lat="49.1369" lon="1.93525">
        <ele>85.7</ele>
        <time>2022-11-19T11:04:26Z</time>
      </trkpt>
      <trkpt lat="49.1369" lon="1.93524">
        <ele>85.8</ele>
        <time>2022-11-19T11:04:31Z</time>
      </trkpt>
      <trkpt lat="49.13689" lon="1.93524">
        <ele>85.8</ele>
        <time>2022-11-19T11:04:36Z</time>
      </trkpt>
      <trkpt lat="49.1369" lon="1.93526">
        <ele>85.7</ele>
        <time>2022-11-19T11:04:42Z</time>
      </trkpt>
      <trkpt lat="49.1369" lon="1.93526">
        <ele>85.6</ele>
        <time>2022-11-19T11:04:47Z</time>
      </trkpt>
      <trkpt lat="49.1369" lon="1.93526">
        <ele>85.6</ele>
        <time>2022-11-19T11:04:53Z</time>
      </trkpt>
      <trkpt lat="49.13691" lon="1.93526">
        <ele>85.5</ele>
        <time>2022-11-19T11:04:58Z</time>
      </trkpt>
      <trkpt lat="49.13691" lon="1.93526">
        <ele>85.5</ele>
        <time>2022-11-19T11:05:04Z</time>
      </trkpt>
      <trkpt lat="49.13691" lon="1.93526">
        <ele>85.6</ele>
        <time>2022-11-19T11:05:10Z</time>
      </trkpt>
      <trkpt lat="49.13691" lon="1.93526">
        <ele>85.6</ele>
        <time>2022-11-19T11:05:15Z</time>
      </trkpt>
      <trkpt lat="49.13691" lon="1.93525">
        <ele>85.6</ele>
        <time>2022-11-19T11:05:21Z</time>
      </trkpt>
      <trkpt lat="49.1369" lon="1.93527">
        <ele>85.5</ele>
        <time>2022-11-19T11:05:27Z</time>
      </trkpt>
      <trkpt lat="49.13689" lon="1.93537">
        <ele>85.5</ele>
        <time>2022-11-19T11:05:32Z</time>
      </trkpt>
      <trkpt lat="49.13689" lon="1.93549">
        <ele>85.4</ele>
        <time>2022-11-19T11:05:37Z</time>
      </trkpt>
      <trkpt lat="49.13688" lon="1.93564">
        <ele>85.2</ele>
        <time>2022-11-19T11:05:43Z</time>
      </trkpt>
      <trkpt lat="49.13686" lon="1.93576">
        <ele>84.9</ele>
        <time>2022-11-19T11:05:49Z</time>
      </trkpt>
      <trkpt lat="49.13684" lon="1.93587">
        <ele>84.5</ele>
        <time>2022-11-19T11:05:54Z</time>
      </trkpt>
      <trkpt lat="49.1368" lon="1.93601">
        <ele>83.7</ele>
        <time>2022-11-19T11:06:00Z</time>
      </trkpt>
      <trkpt lat="49.13678" lon="1.93613">
        <ele>83</ele>
        <time>2022-11-19T11:06:05Z</time>
      </trkpt>
      <trkpt lat="49.13677" lon="1.93626">
        <ele>81.9</ele>
        <time>2022-11-19T11:06:11Z</time>
      </trkpt>
      <trkpt lat="49.13676" lon="1.93636">
        <ele>81</ele>
        <time>2022-11-19T11:06:16Z</time>
      </trkpt>
      <trkpt lat="49.13674" lon="1.93649">
        <ele>79.8</ele>
        <time>2022-11-19T11:06:22Z</time>
      </trkpt>
      <trkpt lat="49.13672" lon="1.93664">
        <ele>78.6</ele>
        <time>2022-11-19T11:06:28Z</time>
      </trkpt>
      <trkpt lat="49.13671" lon="1.93676">
        <ele>78.1</ele>
        <time>2022-11-19T11:06:33Z</time>
      </trkpt>
      <trkpt lat="49.13671" lon="1.93689">
        <ele>77.4</ele>
        <time>2022-11-19T11:06:39Z</time>
      </trkpt>
      <trkpt lat="49.1367" lon="1.93703">
        <ele>77</ele>
        <time>2022-11-19T11:06:44Z</time>
      </trkpt>
      <trkpt lat="49.13669" lon="1.93715">
        <ele>76.5</ele>
        <time>2022-11-19T11:06:49Z</time>
      </trkpt>
      <trkpt lat="49.13668" lon="1.9373">
        <ele>76.2</ele>
        <time>2022-11-19T11:06:55Z</time>
      </trkpt>
      <trkpt lat="49.13665" lon="1.93741">
        <ele>75.8</ele>
        <time>2022-11-19T11:07:00Z</time>
      </trkpt>
      <trkpt lat="49.13662" lon="1.93754">
        <ele>75.2</ele>
        <time>2022-11-19T11:07:06Z</time>
      </trkpt>
      <trkpt lat="49.1366" lon="1.93765">
        <ele>74.6</ele>
        <time>2022-11-19T11:07:11Z</time>
      </trkpt>
      <trkpt lat="49.13659" lon="1.93777">
        <ele>73.8</ele>
        <time>2022-11-19T11:07:17Z</time>
      </trkpt>
      <trkpt lat="49.13656" lon="1.93787">
        <ele>73.3</ele>
        <time>2022-11-19T11:07:22Z</time>
      </trkpt>
      <trkpt lat="49.13653" lon="1.93798">
        <ele>72.6</ele>
        <time>2022-11-19T11:07:28Z</time>
      </trkpt>
      <trkpt lat="49.13652" lon="1.93809">
        <ele>71.9</ele>
        <time>2022-11-19T11:07:33Z</time>
      </trkpt>
      <trkpt lat="49.13649" lon="1.93822">
        <ele>71.7</ele>
        <time>2022-11-19T11:07:39Z</time>
      </trkpt>
      <trkpt lat="49.13648" lon="1.93832">
        <ele>71.3</ele>
        <time>2022-11-19T11:07:44Z</time>
      </trkpt>
      <trkpt lat="49.13646" lon="1.93844">
        <ele>71</ele>
        <time>2022-11-19T11:07:50Z</time>
      </trkpt>
      <trkpt lat="49.13642" lon="1.93859">
        <ele>70.6</ele>
        <time>2022-11-19T11:07:56Z</time>
      </trkpt>
      <trkpt lat="49.1364" lon="1.93872">
        <ele>69.9</ele>
        <time>2022-11-19T11:08:02Z</time>
      </trkpt>
      <trkpt lat="49.13638" lon="1.93887">
        <ele>69.3</ele>
        <time>2022-11-19T11:08:08Z</time>
      </trkpt>
      <trkpt lat="49.13635" lon="1.93899">
        <ele>68.5</ele>
        <time>2022-11-19T11:08:13Z</time>
      </trkpt>
      <trkpt lat="49.13631" lon="1.93915">
        <ele>67.5</ele>
        <time>2022-11-19T11:08:19Z</time>
      </trkpt>
      <trkpt lat="49.13627" lon="1.93928">
        <ele>67.2</ele>
        <time>2022-11-19T11:08:25Z</time>
      </trkpt>
      <trkpt lat="49.13623" lon="1.93937">
        <ele>67</ele>
        <time>2022-11-19T11:08:30Z</time>
      </trkpt>
      <trkpt lat="49.13619" lon="1.93951">
        <ele>66.3</ele>
        <time>2022-11-19T11:08:36Z</time>
      </trkpt>
      <trkpt lat="49.13618" lon="1.93962">
        <ele>65.8</ele>
        <time>2022-11-19T11:08:41Z</time>
      </trkpt>
      <trkpt lat="49.13614" lon="1.93975">
        <ele>65.4</ele>
        <time>2022-11-19T11:08:47Z</time>
      </trkpt>
      <trkpt lat="49.13609" lon="1.93984">
        <ele>65.3</ele>
        <time>2022-11-19T11:08:52Z</time>
      </trkpt>
      <trkpt lat="49.13606" lon="1.93994">
        <ele>64.5</ele>
        <time>2022-11-19T11:08:58Z</time>
      </trkpt>
      <trkpt lat="49.13602" lon="1.94006">
        <ele>63.2</ele>
        <time>2022-11-19T11:09:04Z</time>
      </trkpt>
      <trkpt lat="49.13592" lon="1.94012">
        <ele>62.6</ele>
        <time>2022-11-19T11:09:10Z</time>
      </trkpt>
      <trkpt lat="49.13585" lon="1.94019">
        <ele>61.9</ele>
        <time>2022-11-19T11:09:16Z</time>
      </trkpt>
      <trkpt lat="49.13577" lon="1.94025">
        <ele>61.4</ele>
        <time>2022-11-19T11:09:22Z</time>
      </trkpt>
      <trkpt lat="49.13572" lon="1.94028">
        <ele>60.9</ele>
        <time>2022-11-19T11:09:27Z</time>
      </trkpt>
      <trkpt lat="49.13562" lon="1.94033">
        <ele>60.4</ele>
        <time>2022-11-19T11:09:33Z</time>
      </trkpt>
      <trkpt lat="49.13556" lon="1.94036">
        <ele>60.1</ele>
        <time>2022-11-19T11:09:38Z</time>
      </trkpt>
      <trkpt lat="49.13549" lon="1.9404">
        <ele>60.3</ele>
        <time>2022-11-19T11:09:44Z</time>
      </trkpt>
      <trkpt lat="49.13543" lon="1.94051">
        <ele>59.4</ele>
        <time>2022-11-19T11:09:50Z</time>
      </trkpt>
      <trkpt lat="49.13542" lon="1.94063">
        <ele>58.7</ele>
        <time>2022-11-19T11:09:55Z</time>
      </trkpt>
      <trkpt lat="49.13545" lon="1.94074">
        <ele>58.2</ele>
        <time>2022-11-19T11:10:00Z</time>
      </trkpt>
      <trkpt lat="49.13551" lon="1.94088">
        <ele>57.9</ele>
        <time>2022-11-19T11:10:06Z</time>
      </trkpt>
      <trkpt lat="49.13555" lon="1.94097">
        <ele>57.5</ele>
        <time>2022-11-19T11:10:11Z</time>
      </trkpt>
      <trkpt lat="49.1356" lon="1.94111">
        <ele>56.8</ele>
        <time>2022-11-19T11:10:17Z</time>
      </trkpt>
      <trkpt lat="49.13562" lon="1.94124">
        <ele>56.4</ele>
        <time>2022-11-19T11:10:23Z</time>
      </trkpt>
      <trkpt lat="49.13564" lon="1.94136">
        <ele>56.1</ele>
        <time>2022-11-19T11:10:29Z</time>
      </trkpt>
      <trkpt lat="49.13566" lon="1.94146">
        <ele>56</ele>
        <time>2022-11-19T11:10:34Z</time>
      </trkpt>
      <trkpt lat="49.13569" lon="1.94154">
        <ele>56</ele>
        <time>2022-11-19T11:10:39Z</time>
      </trkpt>
      <trkpt lat="49.13577" lon="1.94162">
        <ele>56</ele>
        <time>2022-11-19T11:10:45Z</time>
      </trkpt>
      <trkpt lat="49.13581" lon="1.9417">
        <ele>55.9</ele>
        <time>2022-11-19T11:10:50Z</time>
      </trkpt>
      <trkpt lat="49.13587" lon="1.94181">
        <ele>55.4</ele>
        <time>2022-11-19T11:10:56Z</time>
      </trkpt>
      <trkpt lat="49.13592" lon="1.94189">
        <ele>55.1</ele>
        <time>2022-11-19T11:11:02Z</time>
      </trkpt>
      <trkpt lat="49.13597" lon="1.942">
        <ele>55</ele>
        <time>2022-11-19T11:11:07Z</time>
      </trkpt>
      <trkpt lat="49.13604" lon="1.9421">
        <ele>55</ele>
        <time>2022-11-19T11:11:13Z</time>
      </trkpt>
      <trkpt lat="49.13611" lon="1.94217">
        <ele>55</ele>
        <time>2022-11-19T11:11:18Z</time>
      </trkpt>
      <trkpt lat="49.1362" lon="1.94227">
        <ele>55</ele>
        <time>2022-11-19T11:11:24Z</time>
      </trkpt>
      <trkpt lat="49.13626" lon="1.94233">
        <ele>55</ele>
        <time>2022-11-19T11:11:29Z</time>
      </trkpt>
      <trkpt lat="49.13632" lon="1.94242">
        <ele>55</ele>
        <time>2022-11-19T11:11:35Z</time>
      </trkpt>
      <trkpt lat="49.13639" lon="1.9425">
        <ele>55</ele>
        <time>2022-11-19T11:11:41Z</time>
      </trkpt>
      <trkpt lat="49.13646" lon="1.9426">
        <ele>55.3</ele>
        <time>2022-11-19T11:11:47Z</time>
      </trkpt>
      <trkpt lat="49.13652" lon="1.94271">
        <ele>55.8</ele>
        <time>2022-11-19T11:11:52Z</time>
      </trkpt>
      <trkpt lat="49.13656" lon="1.94277">
        <ele>56.2</ele>
        <time>2022-11-19T11:11:57Z</time>
      </trkpt>
      <trkpt lat="49.13665" lon="1.94281">
        <ele>56.9</ele>
        <time>2022-11-19T11:12:03Z</time>
      </trkpt>
      <trkpt lat="49.1367" lon="1.94286">
        <ele>57.2</ele>
        <time>2022-11-19T11:12:09Z</time>
      </trkpt>
      <trkpt lat="49.13674" lon="1.94293">
        <ele>57.4</ele>
        <time>2022-11-19T11:12:14Z</time>
      </trkpt>
      <trkpt lat="49.13678" lon="1.94302">
        <ele>57.7</ele>
        <time>2022-11-19T11:12:19Z</time>
      </trkpt>
      <trkpt lat="49.13683" lon="1.94312">
        <ele>58.5</ele>
        <time>2022-11-19T11:12:25Z</time>
      </trkpt>
      <trkpt lat="49.13687" lon="1.94322">
        <ele>59.3</ele>
        <time>2022-11-19T11:12:31Z</time>
      </trkpt>
      <trkpt lat="49.13689" lon="1.94331">
        <ele>60.2</ele>
        <time>2022-11-19T11:12:37Z</time>
      </trkpt>
      <trkpt lat="49.13695" lon="1.9434">
        <ele>61.3</ele>
        <time>2022-11-19T11:12:42Z</time>
      </trkpt>
      <trkpt lat="49.13698" lon="1.94346">
        <ele>61.6</ele>
        <time>2022-11-19T11:12:48Z</time>
      </trkpt>
      <trkpt lat="49.13703" lon="1.94347">
        <ele>61.9</ele>
        <time>2022-11-19T11:12:54Z</time>
      </trkpt>
      <trkpt lat="49.13703" lon="1.94346">
        <ele>61.9</ele>
        <time>2022-11-19T11:12:59Z</time>
      </trkpt>
    </trkseg>
  </trk>
</gpx>